GFSSGP_925_thetae_000.txt.gz
Theta_e
321 318 319 324 336 336 340 340 337 337 335 327 326 326 328 327 330 339 336 335 336 339 338 339 342 341 338 335 332 332 330 331 329 329 331 333 331 329 329 328 327 328 329 327 326 327 328 327 329
320 319 321 328 334 340 339 335 338 336 327 326 326 326 326 326 329 332 335 334 336 338 337 340 339 339 338 335 332 331 329 330 329 330 332 333 331 329 329 329 327 325 326 325 325 326 326 325 325
321 320 324 329 335 337 339 337 337 328 326 326 327 324 326 326 326 332 334 334 334 339 337 339 334 337 337 333 332 330 328 330 329 332 330 331 330 328 328 326 325 324 324 324 324 325 325 325 325
320 321 321 330 332 333 335 338 334 330 326 324 325 327 326 326 327 334 334 333 334 336 337 338 334 336 335 331 332 331 329 330 329 329 330 329 330 328 326 325 324 324 324 324 323 323 325 325 325
322 320 324 325 329 330 332 336 331 332 330 325 324 328 329 328 333 333 333 333 334 334 338 337 335 336 334 332 333 330 329 330 328 330 331 330 328 327 327 325 324 326 325 325 324 323 324 325 324
323 320 323 326 326 327 328 333 332 331 330 324 325 325 331 329 331 334 333 332 334 334 338 338 337 336 334 334 332 330 329 329 328 330 329 328 326 328 327 325 326 327 327 325 323 322 323 325 324
325 322 322 321 322 327 329 332 332 331 331 327 326 328 329 328 331 333 333 333 333 333 334 336 336 334 332 333 330 330 329 329 328 329 328 327 326 326 326 325 327 329 326 323 319 319 321 324 324
324 322 321 321 323 327 330 331 330 328 330 324 325 327 329 329 332 333 332 333 333 332 332 334 334 334 332 327 330 329 327 329 327 328 327 326 325 326 326 323 325 327 325 322 316 314 318 322 324
323 323 322 325 326 328 329 329 328 325 325 325 324 327 331 333 332 333 333 333 333 331 331 330 332 333 332 328 330 329 327 329 327 327 327 326 324 325 326 325 326 325 322 319 315 315 319 319 318
325 326 322 322 324 329 328 329 327 326 326 326 324 327 334 333 333 334 333 333 333 332 331 330 330 331 330 328 331 327 326 328 327 327 326 325 324 325 327 326 325 325 322 318 315 313 313 313 313
326 327 324 321 326 326 326 326 328 326 328 328 325 326 329 334 332 332 333 333 333 333 332 332 331 331 330 325 328 329 328 328 328 327 326 326 325 326 325 325 325 324 320 318 318 311 309 310 314
327 324 323 323 325 324 325 326 326 326 326 325 324 325 328 332 332 331 331 331 331 331 332 332 332 332 331 328 324 328 327 329 327 328 327 326 326 324 325 324 323 324 322 322 322 319 318 315 314
326 323 323 322 323 325 323 323 325 326 326 325 324 324 328 329 330 332 331 330 329 330 330 331 332 332 332 330 326 324 326 327 327 327 326 326 326 324 323 323 323 323 321 322 321 320 318 318 317
323 324 323 323 324 325 324 323 325 325 326 326 323 323 324 327 328 330 331 330 329 328 329 329 331 331 334 333 330 326 325 326 326 326 326 326 325 325 324 322 322 322 321 320 321 319 318 318 319
322 322 324 324 324 323 322 323 323 322 325 325 325 322 323 323 325 326 330 330 330 329 328 328 329 332 332 334 334 331 328 326 326 325 326 326 325 325 325 323 321 322 322 322 322 321 320 319 319
323 323 325 324 324 323 322 324 322 323 325 324 324 323 322 322 323 325 326 327 330 330 329 329 328 330 333 332 334 334 332 330 328 327 326 325 326 325 325 325 322 322 322 323 323 323 322 321 320
323 321 323 323 324 324 323 324 325 324 322 322 321 322 322 322 322 324 325 325 326 329 330 330 329 328 330 333 333 334 334 333 331 329 328 326 326 326 326 325 325 322 322 323 323 323 323 323 322
324 321 321 322 324 323 322 322 321 321 321 320 320 320 319 317 317 319 319 319 320 325 327 329 330 330 328 330 333 335 335 334 333 332 331 329 327 327 326 326 326 326 323 323 324 324 323 323 323
323 322 321 322 323 323 321 321 323 320 317 320 316 316 315 316 316 319 319 320 319 318 320 326 327 329 330 330 332 335 335 334 334 334 332 332 330 329 328 327 327 327 326 324 324 325 324 324 323
323 322 322 324 323 323 321 324 321 319 318 317 316 317 318 317 316 317 319 320 319 319 319 320 322 326 328 330 332 333 334 334 333 333 333 332 332 331 330 329 328 328 328 328 325 325 325 325 325
323 323 324 325 324 323 323 324 320 320 319 317 318 318 318 318 318 317 318 319 320 320 319 319 320 321 326 328 330 331 333 333 333 333 333 333 332 332 332 331 330 329 329 329 329 326 326 326 326
324 323 324 324 324 327 322 325 321 320 321 319 318 319 319 317 317 318 318 319 319 319 319 319 319 320 322 325 328 330 330 331 332 332 332 332 332 333 332 332 332 331 331 330 331 330 328 327 327
325 323 322 322 321 322 323 324 320 320 322 321 319 320 319 317 317 317 318 319 319 318 316 317 319 320 320 320 321 323 327 330 330 331 332 331 330 331 332 332 332 332 332 332 332 332 331 330 328
321 321 321 321 320 325 322 322 320 321 321 321 320 320 319 318 316 317 319 319 318 317 317 317 316 316 316 318 322 323 323 323 323 325 327 328 328 329 330 331 332 332 332 332 332 333 333 331 330
319 321 327 328 327 327 320 321 320 319 320 320 320 320 320 317 316 316 317 317 317 317 317 317 317 316 316 316 316 316 317 320 324 326 328 329 329 329 330 330 330 332 332 332 333 333 333 333 331
319 323 328 335 331 325 320 324 324 317 317 317 319 319 319 317 315 316 316 317 317 317 317 317 317 317 316 316 316 315 315 315 315 315 316 317 321 323 326 328 330 331 331 331 332 333 333 333 333
323 325 320 325 325 326 325 326 321 316 316 315 318 319 318 318 315 316 316 316 316 316 316 316 316 316 316 315 315 316 316 315 315 315 315 315 315 315 316 317 319 323 326 330 330 331 331 332 332
315 315 321 323 327 328 325 324 322 317 316 316 319 319 318 318 315 315 315 316 316 316 316 316 316 316 316 316 315 316 316 316 316 316 316 315 315 314 314 314 315 315 317 319 323 327 329 330 330
317 318 318 317 320 324 325 323 319 319 317 316 318 319 318 316 315 315 315 316 316 316 316 315 315 314 314 314 314 314 315 315 315 315 314 314 314 314 314 314 314 314 314 315 316 318 322 325 328
318 320 319 322 323 320 317 318 318 316 318 319 320 319 315 315 316 315 315 316 316 316 315 314 313 313 314 314 314 314 314 314 314 314 313 313 313 313 313 313 313 314 315 315 315 315 317 320 322

GFSSGP_925_thetae_003.txt.gz
Theta_e
325 319 319 320 330 330 334 337 333 337 329 324 324 323 325 325 328 325 333 335 336 338 332 334 341 342 339 337 335 332 329 330 329 331 332 333 332 331 330 329 329 330 329 327 327 327 329 328 332
322 320 319 319 327 334 334 331 336 333 325 323 324 323 323 324 330 331 334 334 337 337 332 337 341 341 338 335 334 332 332 331 330 331 334 333 333 331 331 329 327 326 327 326 326 326 326 325 326
321 319 317 322 328 332 334 335 334 331 322 324 324 322 323 324 328 331 333 333 337 337 332 335 340 340 339 335 333 332 330 332 330 331 330 332 332 330 329 327 325 326 325 325 325 325 325 325 324
321 316 313 324 327 327 330 332 333 330 324 323 322 325 324 329 327 334 332 334 336 338 336 335 334 338 337 334 333 332 330 330 330 330 331 328 330 329 328 325 324 325 325 324 323 324 325 324 325
319 311 318 319 322 323 325 333 332 329 327 324 323 325 326 330 333 333 331 333 334 337 336 338 334 335 335 334 333 332 331 331 330 330 330 330 329 328 328 325 324 326 324 324 322 322 324 325 324
317 312 315 319 320 319 321 332 331 328 328 322 323 326 327 331 332 332 332 333 334 336 336 336 335 338 334 333 334 331 331 330 329 330 331 329 329 327 327 325 326 326 328 327 324 323 323 325 324
320 318 317 317 318 318 320 327 331 327 329 324 322 328 328 326 332 333 331 332 333 335 337 336 335 337 334 333 333 330 329 329 328 330 330 328 327 326 327 325 326 328 329 326 324 321 322 324 325
318 317 319 317 318 320 321 326 326 325 325 322 322 326 328 325 332 333 332 332 332 335 335 335 334 335 334 333 332 328 329 329 328 328 327 326 326 325 325 325 325 328 327 325 322 317 318 320 324
320 321 317 318 321 322 324 325 324 322 324 323 322 326 328 330 332 332 332 333 333 332 333 334 333 332 331 329 329 328 327 329 328 327 328 326 325 324 323 325 324 325 325 323 320 316 317 321 322
321 321 321 317 320 319 324 323 323 325 323 324 326 331 331 331 332 331 331 332 333 332 331 332 333 333 332 331 328 328 327 327 329 327 327 327 325 323 325 326 325 325 325 324 320 317 316 314 315
322 324 323 324 322 321 322 322 323 324 325 324 322 329 330 330 330 331 331 332 333 333 331 331 332 332 332 332 330 330 326 324 328 327 326 325 324 324 325 327 326 325 325 324 320 318 314 310 311
326 323 323 324 322 322 323 321 321 323 324 323 322 324 330 330 329 330 331 332 333 333 332 331 331 331 332 331 327 330 328 326 327 325 326 327 326 324 325 326 325 324 323 321 322 321 320 311 309
325 324 323 320 319 319 322 322 320 321 321 321 322 325 328 330 330 331 331 331 331 332 332 333 332 332 332 331 328 326 328 327 328 327 327 327 326 326 325 324 324 323 323 322 321 321 321 318 317
321 321 320 321 320 320 323 321 320 321 320 322 320 322 324 327 328 330 331 331 330 329 331 330 333 333 333 332 330 327 325 327 328 328 327 328 326 326 325 324 323 322 323 322 320 321 321 320 318
321 321 320 321 321 321 320 321 320 319 320 323 321 318 319 323 326 327 330 331 331 330 329 329 330 332 333 333 332 330 327 325 327 326 326 326 326 326 326 325 324 322 322 322 321 320 321 320 318
322 321 323 321 321 321 320 322 320 318 318 321 320 318 317 318 319 322 325 328 330 330 328 328 329 330 331 333 334 333 331 328 325 325 325 325 325 326 325 325 325 324 321 322 322 321 321 321 320
320 321 320 320 319 321 320 321 319 318 320 320 318 316 315 313 313 316 318 318 321 327 329 329 328 328 328 330 332 334 334 332 330 328 327 326 325 325 325 325 325 325 323 321 322 322 323 323 322
322 320 318 318 322 320 321 320 319 318 317 317 314 312 313 314 315 317 319 319 319 319 323 328 329 328 328 328 332 332 334 334 333 332 330 329 328 326 325 326 325 325 325 322 322 323 323 323 323
319 320 318 319 321 322 321 319 318 317 314 313 313 314 314 315 315 319 320 319 319 319 319 320 323 328 328 330 332 333 333 334 334 333 333 331 330 329 327 326 326 326 326 326 324 323 323 324 323
318 320 319 321 321 320 319 321 319 316 315 314 316 316 315 316 316 316 318 319 319 320 319 319 320 321 327 328 329 331 333 334 334 334 334 333 333 332 331 329 328 327 326 326 326 324 323 323 323
321 321 323 324 321 321 322 321 318 316 315 316 316 316 316 316 317 316 316 318 318 318 319 320 319 321 323 328 330 331 333 333 333 333 333 333 332 332 332 332 331 329 327 327 327 326 324 324 325
321 321 322 323 320 323 319 323 318 317 318 317 316 315 315 315 316 316 316 317 318 317 317 317 319 320 321 321 322 327 329 329 330 331 331 331 332 332 332 332 332 331 330 329 328 328 328 325 326
324 322 321 320 320 319 321 321 318 318 319 318 317 316 315 314 315 316 315 317 317 317 317 316 316 316 317 320 321 322 323 323 324 325 325 326 327 327 328 330 332 332 332 332 331 331 330 329 327
319 319 319 319 318 323 319 320 319 320 319 317 317 316 315 314 314 314 317 317 317 317 317 317 317 316 316 315 316 316 315 315 316 317 317 318 320 323 325 327 330 332 332 332 332 332 332 331 331
317 318 324 325 324 325 318 318 317 317 319 319 317 316 315 313 313 314 314 315 316 316 316 316 316 316 316 316 316 316 315 315 315 315 315 315 315 315 315 316 316 321 329 331 331 331 331 332 332
315 318 325 334 329 326 319 320 320 316 318 317 317 316 314 313 313 314 314 314 315 316 316 316 316 316 316 316 316 316 316 316 316 316 315 315 315 315 315 314 314 314 314 318 325 330 330 330 330
320 322 319 322 322 323 323 322 317 314 316 317 317 316 315 313 313 314 314 314 315 315 315 315 315 315 315 315 315 315 315 316 315 315 315 315 314 313 312 312 313 313 314 314 313 314 318 323 327
315 315 321 320 325 326 322 322 320 316 314 315 317 316 315 313 313 312 313 315 315 315 314 313 313 313 314 314 314 314 315 315 314 314 314 313 312 311 310 310 311 311 312 312 313 314 314 314 316
318 317 315 316 317 322 322 320 316 316 313 314 316 316 314 313 313 312 312 314 314 313 313 313 313 314 313 313 313 313 314 313 313 312 311 309 308 308 309 309 309 310 311 312 313 313 313 314 315
317 319 316 319 323 317 315 318 315 316 313 317 318 316 313 313 313 312 313 312 312 313 312 312 312 312 310 310 310 310 310 310 309 307 306 306 306 307 307 308 308 309 309 309 310 311 312 313 314

GFSSGP_925_thetae_006.txt.gz
Theta_e
324 320 319 320 327 327 333 336 331 335 331 323 323 324 325 325 325 321 332 335 333 337 334 335 341 342 341 338 336 334 331 329 328 331 331 334 332 331 330 329 329 328 327 326 327 327 328 329 333
322 320 319 319 327 334 332 329 335 333 330 321 321 322 323 325 330 332 332 335 334 336 333 334 339 342 340 338 335 333 331 331 329 330 334 334 332 331 330 328 327 327 326 326 327 326 326 327 328
322 318 315 321 325 330 332 333 332 331 323 322 323 321 321 323 328 331 333 336 336 336 333 332 340 341 339 336 335 332 332 331 330 331 330 333 331 329 329 328 326 326 326 325 327 325 325 325 325
321 314 311 322 326 325 328 326 327 331 325 321 321 325 323 328 327 331 333 335 336 336 332 334 340 340 338 336 334 332 330 331 330 332 330 331 329 328 328 325 325 325 325 324 324 325 325 325 324
318 309 315 318 319 321 320 322 328 330 328 323 321 325 326 330 331 333 332 334 336 337 334 333 337 337 338 336 335 333 330 331 330 330 330 329 333 328 327 326 325 326 325 325 323 323 324 324 324
316 310 314 316 317 316 315 317 323 329 328 322 322 324 325 328 332 331 332 334 336 337 336 335 334 335 336 335 335 333 331 332 330 330 329 329 330 328 327 327 326 327 328 327 325 323 323 325 325
319 317 318 317 316 317 318 320 325 328 326 322 319 328 327 327 332 331 332 333 334 336 336 337 336 336 337 333 334 332 330 330 329 329 330 329 328 327 330 327 326 329 329 328 326 323 323 323 325
316 316 319 315 316 318 319 322 322 324 325 320 321 326 328 324 331 331 332 332 334 335 336 337 336 336 336 333 333 331 327 327 329 328 329 328 326 326 325 326 325 327 329 328 326 323 321 321 324
317 319 318 316 318 320 318 320 323 322 322 321 323 324 325 326 332 332 331 331 331 336 337 336 335 335 335 334 332 331 326 325 329 327 328 326 325 324 324 324 325 323 324 326 324 322 320 317 318
319 320 322 318 318 321 319 320 321 323 322 323 327 330 328 329 331 330 329 330 330 336 337 335 334 333 333 332 330 330 328 325 328 328 327 327 326 324 324 322 325 325 322 323 324 323 319 316 317
320 323 321 322 322 321 321 320 320 322 324 323 323 329 329 328 329 329 329 330 332 332 332 335 334 333 332 331 329 326 325 325 327 329 327 326 326 325 323 324 326 326 325 324 324 323 320 317 313
326 322 321 323 323 321 321 321 321 319 321 321 319 321 328 328 327 329 329 330 331 332 332 331 332 333 333 331 330 329 329 328 325 325 327 326 325 324 323 324 325 326 325 325 323 321 319 318 315
325 325 323 322 321 318 318 319 321 320 318 317 318 325 329 328 327 329 330 330 331 331 332 332 330 330 332 332 331 329 329 329 326 323 326 325 325 325 324 324 325 325 324 323 322 321 321 320 320
324 322 320 319 319 319 320 320 320 319 318 317 320 322 326 328 328 329 329 330 331 331 331 332 332 331 331 331 331 330 327 327 327 326 327 326 326 326 326 325 324 324 324 322 322 322 320 320 320
321 322 320 319 319 320 320 320 319 317 316 316 318 316 319 322 325 328 328 329 330 330 329 329 331 332 332 331 331 331 330 326 326 325 326 327 326 327 327 326 325 324 324 323 322 323 321 320 321
320 319 322 319 320 319 319 321 319 317 315 316 317 314 314 313 314 316 317 319 324 328 329 329 329 330 331 332 332 332 331 328 327 325 325 326 326 326 327 326 325 325 325 324 322 322 321 320 320
319 321 320 319 318 320 319 321 319 317 317 317 316 313 313 314 314 317 318 318 318 319 324 328 327 328 329 331 331 332 332 331 330 329 327 325 325 325 325 326 325 325 325 325 324 322 321 320 320
322 321 319 318 318 317 318 319 317 316 315 315 310 311 313 314 315 317 318 318 318 319 320 323 326 327 329 330 331 332 333 333 333 332 332 330 328 327 326 325 325 325 325 325 324 324 321 321 321
319 319 318 316 316 319 318 319 318 316 312 311 312 313 314 315 315 316 317 318 319 319 319 319 321 323 326 329 331 331 332 333 333 333 333 332 332 331 328 328 327 327 325 325 325 324 322 322 321
318 318 317 317 319 321 319 318 317 313 314 314 314 314 316 316 315 314 316 316 316 317 319 319 320 322 325 326 329 331 332 332 332 332 333 333 333 333 332 331 331 329 327 326 325 324 323 322 322
319 318 318 322 320 319 321 320 317 316 316 316 316 315 315 316 316 314 314 316 315 315 315 316 319 321 322 326 327 329 331 332 332 332 332 332 332 332 332 332 332 331 329 327 327 326 323 324 325
319 317 320 322 320 322 319 322 316 316 317 317 315 314 314 315 314 314 314 315 315 315 316 316 315 315 316 319 321 321 322 323 323 324 325 325 325 326 326 327 329 330 330 328 329 328 326 325 324
320 320 321 319 318 318 319 320 317 315 318 317 315 314 313 313 314 314 314 315 315 316 316 316 316 315 315 315 315 314 314 314 315 315 315 315 315 315 315 315 317 325 329 329 329 329 328 328 327
319 318 316 315 316 321 318 320 319 318 318 317 315 313 313 313 313 313 314 315 315 316 316 316 315 315 315 315 315 315 315 315 315 314 314 315 315 314 314 314 314 313 316 323 327 329 330 330 330
316 317 322 324 322 323 317 318 319 316 316 318 316 313 312 312 313 313 312 313 314 315 315 315 315 314 314 314 315 315 315 315 314 314 314 314 312 311 310 309 309 309 310 312 313 315 322 327 328
316 317 322 329 326 325 317 319 318 313 315 315 315 313 312 312 312 313 312 313 314 314 314 313 313 313 313 313 314 314 314 314 314 313 313 312 310 309 307 307 307 306 306 307 308 311 312 314 318
317 320 318 322 320 322 321 319 317 315 316 316 315 313 312 312 312 312 312 313 314 313 312 313 313 313 313 313 313 313 313 312 311 310 309 307 306 305 305 305 306 306 307 307 307 309 309 310 312
317 315 320 318 326 325 321 320 320 318 318 317 316 314 312 311 312 312 311 313 312 311 312 313 312 311 311 310 310 309 310 309 308 307 306 305 304 303 304 304 305 306 307 308 307 308 309 310 310
316 316 314 316 318 322 322 320 314 314 315 317 316 314 313 311 311 311 311 311 311 312 311 310 309 308 307 306 306 306 306 305 305 303 302 301 301 302 303 303 305 305 306 305 306 306 307 308 309
316 317 314 317 319 315 314 318 313 314 311 313 315 314 312 311 311 310 308 310 310 310 309 307 306 306 304 304 304 303 303 302 300 299 298 298 298 298 299 301 302 302 301 303 305 305 305 306 304

GFSSGP_925_thetae_009.txt.gz
Theta_e
324 321 319 321 325 326 331 334 330 332 333 323 321 322 324 324 323 321 331 334 334 335 337 335 340 342 342 341 339 335 333 330 328 330 328 332 329 331 331 330 329 329 327 325 327 327 329 327 330
323 320 318 318 326 330 328 328 334 332 330 321 321 322 322 324 329 331 332 335 334 335 335 334 337 342 342 338 337 335 332 330 328 330 332 334 331 330 329 327 328 327 326 326 327 326 327 326 331
322 317 316 321 323 329 330 329 330 328 326 321 322 320 321 323 326 329 332 333 334 336 334 332 337 341 341 339 336 334 332 331 330 329 332 334 333 329 330 328 327 326 326 326 327 326 325 325 326
320 313 310 319 324 325 327 324 320 321 327 319 320 324 322 325 326 329 332 334 335 335 333 332 337 341 341 338 337 334 332 331 330 331 327 335 333 329 329 327 326 326 325 325 325 325 325 325 325
315 308 313 316 318 319 319 318 318 323 327 324 319 323 326 326 330 330 332 335 335 335 334 332 339 341 340 338 336 333 330 331 330 330 331 330 332 330 327 326 325 326 325 325 324 324 325 325 324
316 310 313 314 315 315 313 314 317 321 327 323 321 323 325 325 331 332 331 333 335 336 334 334 340 340 339 338 336 334 331 331 330 330 329 329 330 331 328 328 327 326 327 326 325 324 323 325 325
318 316 317 315 316 315 317 317 321 323 326 326 319 325 325 327 331 331 331 333 335 336 335 335 338 339 338 336 335 334 333 331 331 330 330 328 328 330 329 329 328 328 328 329 328 327 324 323 324
314 316 319 315 315 316 317 317 319 321 322 318 321 325 325 324 331 330 332 332 335 336 336 336 336 336 338 336 334 334 331 329 330 329 329 329 326 327 326 328 326 327 329 329 329 327 326 323 323
313 319 320 318 316 317 317 320 319 319 321 320 323 324 324 325 330 330 331 330 333 336 336 336 337 336 336 336 333 334 332 328 326 329 328 328 326 324 323 323 323 324 325 329 329 328 326 323 320
319 320 323 318 316 319 320 320 319 321 319 322 322 328 327 327 330 329 328 328 329 335 336 337 337 336 336 336 334 333 332 328 324 328 328 327 327 326 324 323 322 323 324 325 327 327 327 324 320
319 322 321 321 319 321 321 320 319 321 321 322 322 320 328 328 328 328 328 329 329 331 335 336 336 335 335 334 333 333 331 328 325 325 327 326 326 326 325 324 322 321 325 325 324 324 324 324 321
324 321 320 322 322 322 321 319 319 318 319 319 318 317 327 327 326 327 327 328 329 330 331 335 335 334 334 333 332 329 328 326 325 324 327 328 327 326 325 324 322 323 324 325 325 324 324 323 321
324 324 323 322 321 320 318 317 317 318 317 316 316 318 324 326 325 328 329 328 329 330 331 331 331 333 333 333 332 330 329 327 327 326 325 324 326 326 325 324 324 323 324 324 325 324 323 322 320
324 323 323 319 319 318 319 318 318 319 316 316 315 316 320 326 326 327 327 328 329 329 329 331 331 331 330 332 332 331 330 329 327 327 326 324 324 325 324 325 325 325 324 324 325 324 323 322 322
322 322 319 319 320 319 318 320 318 317 315 314 313 313 314 318 323 325 328 328 328 329 329 329 330 331 331 330 330 331 331 330 329 326 325 325 325 326 326 326 326 326 326 325 324 324 323 322 322
319 319 322 319 319 318 319 321 318 316 316 315 314 312 310 311 312 315 316 316 316 317 324 328 328 329 331 331 330 330 331 330 330 329 327 325 325 325 326 326 326 326 326 325 324 324 323 323 322
319 321 320 318 316 318 319 319 318 316 315 314 313 311 313 314 314 316 317 317 317 318 319 319 324 327 328 330 331 331 331 331 330 330 329 328 326 325 326 326 325 325 325 325 324 324 323 322 321
324 322 319 318 317 317 318 317 318 316 314 312 310 312 313 314 313 315 316 317 318 318 319 320 323 325 326 328 330 331 331 331 331 331 330 328 328 328 326 325 325 325 325 324 324 324 323 323 322
321 319 319 315 314 316 316 317 317 315 314 310 311 313 314 314 314 314 315 315 317 318 318 319 321 323 324 327 329 329 330 331 331 332 332 332 331 331 329 328 328 327 326 326 325 324 322 322 321
319 319 319 316 317 316 318 317 315 314 313 311 312 313 315 315 313 313 314 314 314 315 316 318 320 322 325 324 328 330 330 331 331 331 331 331 331 332 331 331 330 329 327 327 326 325 323 322 322
320 319 319 318 318 317 318 319 318 315 315 315 315 314 314 314 314 312 312 313 314 314 314 314 315 317 319 325 327 328 329 328 322 322 322 321 322 322 322 323 324 326 327 327 326 326 324 323 324
331 317 318 319 319 322 317 322 316 314 317 316 314 313 314 314 314 313 312 313 314 314 314 314 314 314 314 314 315 314 314 315 314 314 314 314 314 314 313 313 313 314 319 326 327 327 325 324 324
322 317 317 318 318 317 318 319 318 314 317 316 313 312 312 313 313 313 312 313 314 314 314 314 314 315 315 315 315 315 314 314 314 314 315 314 313 311 309 308 307 307 308 309 311 317 324 325 326
317 317 315 315 315 320 317 319 319 315 317 316 314 312 312 313 312 312 313 313 313 314 314 314 314 313 314 314 314 314 314 314 314 313 312 311 309 308 306 306 305 306 306 307 307 307 308 312 319
315 317 322 323 322 323 315 317 320 316 313 316 315 312 311 312 312 311 311 312 313 312 313 313 313 313 313 313 313 313 313 312 311 310 308 307 306 305 304 303 303 304 305 306 307 306 306 307 309
315 318 321 325 324 321 314 318 317 313 311 314 314 311 310 311 311 311 311 311 311 311 312 312 312 312 312 312 312 311 310 309 308 307 306 305 304 303 302 302 302 303 304 305 306 305 306 307 307
316 319 316 321 319 321 319 317 316 315 315 314 313 312 311 311 311 310 310 311 310 311 311 311 311 310 309 308 308 308 307 306 305 304 302 300 299 299 299 299 301 302 303 303 302 304 305 305 306
315 313 320 317 326 325 319 318 320 319 318 315 314 312 311 311 311 310 309 309 310 311 311 309 307 306 306 306 305 304 303 302 300 299 297 296 296 296 296 297 299 299 300 299 300 302 303 304 305
313 314 313 315 316 321 321 319 313 315 315 316 315 312 311 310 311 310 307 309 310 310 308 306 306 305 304 303 302 302 299 297 295 293 292 291 291 292 293 294 295 295 295 297 300 298 300 302 301
315 314 312 317 318 313 313 317 311 312 312 314 314 313 311 310 309 308 307 308 308 307 306 304 303 302 301 300 299 297 295 293 290 289 289 289 289 289 290 290 291 291 292 294 296 295 299 297 297

GFSSGP_925_thetae_012.txt.gz
Theta_e
325 322 318 320 322 324 329 331 329 330 331 323 318 321 323 323 322 323 329 333 333 334 334 336 342 342 342 340 339 337 334 330 328 329 328 330 328 329 330 329 329 330 328 325 326 327 328 328 327
324 320 318 316 324 327 326 326 331 329 329 325 319 321 321 323 327 329 331 333 333 334 335 335 340 341 342 339 338 336 334 331 329 329 330 333 333 328 328 328 327 328 326 325 326 326 327 327 328
323 317 315 320 322 327 327 327 329 323 319 323 321 319 320 323 323 326 330 332 333 335 335 333 337 340 340 339 337 336 333 331 330 329 331 334 334 330 327 326 327 327 326 325 326 326 326 326 326
320 312 308 317 323 324 325 324 319 317 321 320 319 322 321 321 325 328 331 332 333 335 334 332 333 339 342 339 337 336 333 332 330 330 332 331 334 332 327 328 326 326 326 325 325 326 326 326 326
315 308 312 315 316 317 317 316 314 319 321 325 319 321 323 323 329 328 331 333 332 334 334 332 333 339 341 340 338 336 333 332 330 330 332 332 332 329 329 327 325 325 326 325 325 324 326 326 325
316 309 314 313 313 313 313 313 316 320 320 324 319 322 323 324 330 330 332 332 334 334 334 332 334 339 339 339 338 336 332 331 330 331 331 329 328 332 329 328 328 327 326 326 326 325 324 324 325
318 316 318 315 315 314 315 316 319 320 318 323 318 324 322 324 329 331 331 333 334 335 335 332 335 339 339 338 337 335 333 332 330 329 330 328 328 329 330 329 329 328 328 327 329 328 327 325 324
313 316 319 316 315 315 315 318 318 319 320 317 319 322 324 323 329 330 330 332 334 335 335 334 336 338 338 337 336 335 333 331 329 329 329 329 327 327 328 327 328 328 328 328 327 329 328 327 326
312 319 321 320 315 315 316 320 319 318 318 318 320 322 322 326 328 329 329 330 333 335 336 336 336 337 338 337 336 334 333 332 330 328 328 329 327 326 322 322 323 324 324 328 329 328 328 327 325
318 320 322 318 314 317 319 320 320 319 317 319 320 323 327 326 328 328 327 327 329 333 335 336 336 336 337 337 336 335 333 333 331 326 328 328 327 327 326 325 323 323 323 324 326 327 327 326 326
318 322 320 321 317 317 321 321 319 319 319 318 320 318 320 326 327 327 327 327 328 329 333 335 335 336 337 336 335 334 333 333 331 327 324 327 327 326 326 326 325 323 323 322 324 325 324 324 324
322 320 320 321 321 322 322 319 319 317 318 317 316 315 316 324 325 326 327 327 327 328 329 332 334 336 336 335 334 333 332 331 329 327 324 324 325 326 326 325 325 324 323 322 323 324 324 324 324
324 324 323 321 321 320 319 318 317 317 316 315 314 314 314 319 323 326 327 328 328 327 328 330 331 334 335 335 333 333 331 330 328 326 325 324 324 323 324 324 324 324 324 324 323 323 324 324 323
323 323 323 321 321 318 319 319 317 317 316 315 314 313 312 316 323 326 327 327 327 328 328 328 329 330 331 332 333 332 331 331 329 328 327 327 326 325 322 324 325 324 325 325 325 325 324 324 324
323 324 320 318 318 319 316 320 318 316 315 314 312 310 312 311 314 315 318 319 319 319 319 325 328 329 330 330 330 331 331 331 330 330 329 327 326 325 325 324 326 326 326 325 325 325 324 324 323
320 318 321 321 318 317 318 319 316 315 315 316 312 309 312 312 313 315 316 316 317 317 319 319 321 328 328 329 330 330 330 330 330 330 330 329 327 326 325 325 325 325 325 325 324 324 324 323 322
318 323 319 319 316 317 318 318 315 315 314 314 310 312 313 313 312 314 315 316 317 317 319 321 320 322 326 327 329 330 330 330 330 330 329 329 328 327 326 325 326 325 325 324 324 323 322 322 321
324 322 320 320 318 316 316 315 316 314 315 313 311 313 313 313 312 312 314 315 316 317 319 321 322 323 324 325 327 328 329 329 329 329 328 328 328 327 325 325 326 325 324 325 325 324 323 322 322
321 320 322 316 314 315 314 314 315 314 314 312 310 313 313 313 312 313 313 314 315 316 318 320 323 324 323 326 328 328 329 329 329 329 329 330 330 329 329 329 328 328 327 327 326 324 322 322 322
320 320 319 318 316 315 315 316 315 313 313 311 310 312 314 313 312 311 312 313 313 313 314 316 318 322 326 325 328 329 330 328 320 318 318 319 318 318 318 317 318 319 321 323 325 325 323 323 323
322 322 323 323 316 315 315 317 316 314 314 312 312 312 313 313 312 311 311 312 313 313 313 314 314 315 317 321 323 323 317 314 314 313 313 313 312 311 311 310 309 308 308 311 313 319 323 323 323
330 320 319 319 319 321 316 321 316 313 315 314 312 313 313 313 313 311 311 311 312 312 313 314 314 314 314 314 314 314 313 312 312 313 312 311 310 308 307 305 305 305 306 307 307 307 309 314 321
330 320 320 319 317 316 317 318 316 313 316 315 312 312 312 312 311 311 311 311 312 313 313 313 314 314 314 314 314 314 313 312 312 310 309 308 307 306 305 304 304 303 304 304 306 306 306 306 310
319 317 315 313 314 320 317 318 317 315 314 315 313 310 312 312 311 310 311 311 311 312 312 313 313 312 313 313 312 311 310 309 308 307 306 305 304 303 302 301 301 301 302 302 303 303 302 304 306
318 319 323 323 322 323 315 316 317 314 313 314 314 311 310 311 310 310 309 309 310 311 312 312 312 311 311 311 309 308 307 306 305 303 302 301 300 299 298 298 298 299 299 300 299 300 301 303 304
319 317 320 326 323 320 313 318 316 314 311 310 313 311 310 311 309 310 308 309 309 311 311 311 310 309 308 307 306 305 304 303 301 299 298 296 295 295 294 293 293 294 294 295 297 299 300 301 302
315 320 316 319 317 320 319 315 315 315 313 313 311 311 311 310 309 309 308 308 309 310 309 308 307 306 305 305 304 302 301 299 297 294 292 291 291 291 290 291 291 291 291 291 293 298 297 296 300
314 313 320 317 326 326 320 317 319 316 317 315 312 311 310 310 309 308 307 307 309 308 306 305 305 304 303 302 301 299 296 294 292 291 289 289 289 289 289 289 289 289 289 289 290 296 292 295 299
313 315 313 315 316 321 321 318 312 313 312 314 312 311 310 310 310 308 306 308 308 306 305 303 303 302 300 300 297 296 293 290 289 288 288 288 288 288 288 288 288 288 288 288 289 291 291 293 294
311 313 313 318 318 312 313 317 311 310 310 312 312 311 309 309 309 306 305 307 306 303 302 300 299 298 297 297 294 291 289 288 288 287 287 287 287 287 287 287 287 287 287 287 288 289 289 292 291

GFSSGP_925_thetae_015.txt.gz
Theta_e
325 321 318 320 328 329 331 332 329 331 332 327 322 321 324 323 324 329 327 333 332 333 331 340 344 343 343 341 338 336 335 332 330 329 328 329 330 329 327 329 328 329 327 325 326 328 328 328 327
326 320 318 321 329 330 329 327 332 329 325 325 321 321 323 326 326 328 331 332 332 333 333 333 342 342 341 338 335 335 334 332 329 329 329 331 333 329 327 327 327 327 326 325 325 326 326 328 326
324 316 320 324 325 329 329 328 327 322 318 320 322 320 321 324 322 327 329 332 332 334 334 333 340 340 338 339 336 336 334 334 330 329 331 333 333 331 328 327 326 326 326 325 325 326 325 327 326
319 314 313 319 324 325 327 326 320 318 323 322 319 323 321 320 325 327 330 332 332 334 334 333 335 338 338 339 337 336 334 333 331 329 331 334 334 331 328 328 326 325 324 326 326 325 327 326 326
315 312 316 316 317 318 318 318 316 321 321 323 320 324 324 323 328 327 331 332 332 334 334 331 332 336 341 339 338 335 334 333 330 331 331 332 335 331 329 328 326 326 326 326 325 325 324 326 326
321 314 321 322 315 314 314 314 317 320 320 323 320 321 324 324 329 328 331 332 332 333 333 331 330 337 339 339 338 336 334 333 331 330 331 332 333 330 332 329 328 328 327 327 326 327 326 325 324
322 321 323 318 319 318 315 317 319 320 320 322 319 323 322 325 328 330 332 333 334 334 333 331 331 338 339 339 337 336 335 332 332 330 331 330 329 328 329 329 330 330 329 326 326 327 327 328 327
316 320 319 318 321 319 315 319 319 320 322 319 319 324 325 324 326 330 330 333 334 334 334 333 332 337 339 340 337 336 334 333 331 329 328 329 328 327 327 328 328 329 329 328 327 327 327 327 326
313 322 324 323 317 321 315 322 320 318 320 319 319 322 323 325 325 328 328 330 333 335 335 335 334 335 337 338 338 336 335 333 332 330 327 329 329 328 326 323 322 323 323 326 328 327 329 326 325
320 324 324 320 316 317 318 321 322 322 320 320 320 319 322 324 327 328 328 329 329 333 334 335 335 335 336 338 337 337 335 335 333 331 327 328 328 327 326 326 325 325 323 322 321 323 325 325 327
319 325 321 321 319 317 320 322 321 320 323 320 321 321 318 322 325 327 327 327 327 328 331 333 334 335 335 336 336 336 336 334 333 332 329 325 326 327 326 325 325 324 324 323 322 322 323 324 325
322 320 320 322 321 322 323 321 322 319 323 320 319 316 315 317 318 323 327 327 327 327 327 329 332 334 335 336 336 335 334 333 332 330 329 327 324 324 325 326 325 325 324 323 323 323 322 323 323
322 323 321 321 321 321 321 322 322 320 319 317 315 316 316 315 316 322 325 327 328 327 327 327 328 331 334 336 335 334 333 332 331 329 328 327 325 324 324 324 323 324 324 324 324 324 325 324 324
323 324 324 322 324 320 321 323 318 323 317 317 315 315 313 312 317 325 325 325 325 326 326 326 327 328 330 333 334 334 333 331 331 330 329 328 327 326 326 325 324 324 324 325 325 325 324 324 324
322 326 322 321 320 321 318 321 319 320 316 317 316 312 312 313 314 315 315 315 315 316 317 318 318 326 328 329 331 332 332 332 331 330 330 329 328 328 327 326 325 325 325 325 325 324 324 323 323
324 320 329 323 318 318 318 327 319 314 315 316 314 312 314 314 314 313 315 316 316 316 319 320 320 319 326 328 329 329 330 330 330 330 330 329 328 327 327 326 326 325 324 324 324 323 323 323 323
320 330 322 324 318 320 319 321 318 314 315 316 313 314 315 315 314 312 313 315 316 318 320 322 322 319 324 326 327 327 328 328 328 328 327 327 327 326 326 325 326 325 325 325 324 323 322 322 323
326 324 320 323 319 316 317 318 316 315 314 316 313 314 315 315 313 311 312 314 316 318 321 323 322 323 324 325 326 327 328 328 328 328 329 329 329 328 328 327 327 326 326 324 323 322 323 322 323
319 322 326 322 316 316 317 316 317 316 314 314 311 314 315 315 312 311 311 313 315 316 318 322 324 324 325 326 327 329 327 323 320 319 318 318 317 317 315 314 313 313 317 319 320 320 321 322 323
321 323 321 319 315 316 318 319 318 315 315 314 312 314 315 314 313 311 311 311 312 313 314 315 317 323 326 328 328 327 317 314 313 312 311 310 309 308 307 306 306 306 308 309 311 314 315 317 318
322 323 321 325 318 316 316 320 317 315 313 311 311 314 314 315 314 312 311 311 312 312 313 313 314 314 316 321 316 314 313 313 312 310 309 307 307 306 305 304 304 304 304 306 307 308 309 310 310
330 321 322 322 325 328 316 325 318 317 314 313 313 314 314 314 313 312 311 311 311 312 313 314 314 314 314 314 314 313 311 310 308 307 306 305 305 304 303 302 301 301 302 304 305 305 306 306 307
328 323 324 323 321 316 317 321 320 313 315 316 314 314 314 314 313 312 311 310 310 312 312 313 313 313 312 312 312 310 308 307 306 305 305 304 302 301 299 298 297 298 299 300 301 302 303 304 305
315 317 317 315 317 322 318 321 322 317 316 314 313 313 314 313 313 311 310 310 310 311 312 311 311 310 310 309 308 307 306 304 303 302 301 300 298 298 294 293 294 296 297 298 298 299 301 301 302
319 326 331 326 324 325 314 317 320 315 313 315 315 313 313 313 313 312 310 309 309 310 310 310 309 308 307 306 305 304 302 301 298 297 296 295 294 295 292 291 292 293 293 293 294 294 298 298 298
326 326 325 328 325 322 313 321 319 313 313 311 313 313 313 313 312 311 310 309 309 309 308 307 306 305 305 304 302 300 298 296 294 292 291 292 292 292 290 289 290 290 290 290 291 292 296 293 295
321 327 317 319 316 322 321 318 316 314 314 312 312 313 314 313 311 311 308 308 308 307 306 305 304 303 303 300 298 296 294 292 290 289 289 289 289 289 288 288 288 288 288 289 289 290 293 291 292
320 317 326 318 326 327 322 318 322 316 314 314 312 313 313 312 311 310 308 307 307 305 304 303 302 301 299 297 295 293 291 290 289 288 288 288 288 288 287 287 287 288 288 288 288 289 290 290 290
316 319 315 317 318 324 322 321 312 313 311 313 313 312 312 312 311 309 307 307 305 303 302 300 299 299 297 295 293 291 289 288 288 288 287 287 287 287 286 286 286 287 287 287 287 287 288 288 290
313 316 315 321 318 313 315 320 310 310 309 310 312 311 311 311 310 308 307 305 302 300 299 298 297 296 294 292 290 288 288 288 287 287 287 286 286 286 286 286 286 286 286 286 286 286 287 288 289

GFSSGP_925_thetae_018.txt.gz
Theta_e
326 323 319 324 328 330 328 330 333 333 334 328 327 328 329 328 330 333 332 337 335 336 335 342 346 342 340 342 340 336 335 333 331 330 328 329 331 331 329 330 329 330 328 326 327 329 329 329 328
325 319 322 327 324 327 326 331 335 332 327 325 327 327 327 330 328 331 333 335 335 336 335 342 345 343 340 342 337 333 334 333 331 329 329 331 333 331 330 327 327 328 327 326 326 327 328 327 327
321 317 323 324 326 325 328 332 329 325 326 325 329 325 326 329 326 329 332 335 336 336 336 340 342 343 339 339 335 334 335 335 332 329 331 332 335 331 329 328 327 325 325 326 325 322 327 326 328
322 322 321 323 321 326 328 329 322 325 327 327 327 329 326 326 328 331 333 335 336 336 337 340 341 340 337 338 337 336 335 334 332 331 330 332 335 332 330 327 326 324 324 326 326 325 326 327 327
321 322 326 325 324 319 321 322 321 325 326 327 327 332 329 328 331 330 334 335 335 336 337 338 337 338 339 339 338 337 334 333 333 330 330 332 334 334 332 329 327 326 327 327 326 326 326 325 326
327 323 327 330 328 324 323 320 323 325 325 327 327 326 329 329 331 332 336 335 335 337 338 337 334 336 340 340 338 337 334 333 333 330 329 332 334 334 332 331 328 328 328 327 326 326 327 327 326
328 327 328 328 327 327 320 321 323 324 326 327 324 327 327 329 331 333 336 335 336 337 338 337 336 338 340 339 336 335 334 332 333 331 331 331 330 328 328 329 330 330 327 328 328 328 328 327 326
326 326 327 326 328 329 321 320 325 324 325 323 323 328 329 328 327 332 335 335 336 337 338 337 337 339 341 341 337 336 335 333 331 330 328 328 328 327 327 327 328 328 326 326 323 325 329 329 328
321 327 328 327 327 327 321 326 326 324 325 324 324 325 325 326 328 331 332 333 335 336 337 338 338 339 340 340 339 336 335 334 333 332 330 328 329 330 329 327 324 322 322 321 322 322 325 326 326
327 329 328 326 326 326 325 326 327 327 326 326 324 324 323 322 325 328 330 332 333 334 336 337 338 338 340 339 339 338 337 335 334 333 331 329 328 329 329 328 326 325 324 323 322 321 321 323 327
327 329 327 326 324 323 325 327 326 327 329 326 325 324 324 322 323 323 326 330 331 331 333 335 337 338 339 339 338 338 337 335 334 333 332 330 327 327 328 328 328 327 327 326 326 326 326 326 327
328 327 326 326 324 326 327 326 328 328 328 327 326 326 323 323 323 323 324 328 330 330 330 332 335 337 338 338 339 338 337 336 335 334 332 331 329 328 327 327 327 327 327 327 327 327 327 327 327
328 327 326 325 325 325 326 327 328 328 327 327 326 324 322 322 321 321 326 328 330 330 330 330 331 334 336 338 338 338 337 335 334 334 333 331 330 329 328 328 328 327 327 327 328 328 328 328 328
327 327 327 326 326 327 327 328 325 327 327 326 324 323 322 319 319 323 326 329 329 329 329 328 329 330 333 336 337 337 336 335 335 334 333 332 331 330 330 329 329 329 328 328 328 328 328 328 328
328 329 328 328 327 328 325 328 328 326 322 320 321 321 319 319 319 321 320 321 320 320 320 320 320 325 331 334 335 336 336 335 334 333 332 331 330 330 330 330 330 329 329 328 328 329 328 329 329
330 330 333 328 328 327 325 330 326 323 321 321 320 319 320 319 319 319 318 319 319 320 322 323 322 320 327 332 333 334 334 333 333 332 331 331 330 329 329 329 329 329 328 328 328 329 329 329 328
330 333 332 329 327 327 326 328 325 320 321 321 322 320 320 320 319 318 317 318 319 320 323 324 324 324 328 330 331 330 330 330 329 329 329 328 328 327 328 328 329 328 328 328 327 326 326 326 326
331 331 328 330 327 323 327 326 324 323 321 322 322 320 321 320 319 317 317 317 318 321 323 325 327 328 328 329 329 329 330 329 329 328 327 327 326 325 326 323 321 321 321 320 320 320 320 321 321
327 326 329 328 326 324 326 328 324 324 324 322 321 320 321 320 317 316 316 317 317 318 320 324 328 329 329 330 331 328 323 321 317 315 313 312 312 312 312 312 311 311 312 312 311 312 312 312 314
327 327 328 327 322 322 327 328 327 326 324 322 322 320 321 319 318 316 316 316 316 316 316 318 322 327 329 330 327 321 318 315 314 312 311 310 309 308 308 308 308 308 309 309 309 309 309 309 309
328 327 327 328 324 326 325 329 327 321 318 317 317 320 320 319 318 317 317 316 316 316 316 316 316 318 318 318 317 316 316 315 313 311 310 308 307 306 306 306 306 306 306 306 306 306 306 306 306
330 326 326 328 332 334 324 333 328 324 322 319 318 320 320 319 318 317 317 316 316 315 315 315 315 315 315 316 316 315 314 312 310 309 308 307 305 303 301 301 302 302 302 302 302 301 302 302 303
326 327 327 329 331 327 330 330 328 320 322 320 320 320 319 319 318 317 316 315 315 315 315 314 313 313 312 312 312 311 310 309 307 306 305 304 303 301 298 298 298 298 298 298 298 298 298 300 300
325 327 323 321 322 333 329 327 328 323 321 320 319 320 319 318 318 317 315 314 314 314 314 312 311 310 310 309 308 308 307 305 305 303 302 300 299 298 296 295 295 295 295 295 295 295 297 299 297
326 329 336 335 334 332 320 323 327 322 319 320 320 320 319 318 318 316 316 315 314 314 313 311 310 308 307 306 305 304 303 301 300 299 298 297 296 295 294 293 293 293 293 293 293 294 295 297 295
327 329 332 333 333 330 319 327 324 318 317 317 319 320 319 319 318 317 316 315 314 313 311 310 308 306 304 302 301 299 299 298 297 295 295 294 293 293 292 292 291 292 291 291 292 292 293 294 294
327 331 322 324 322 326 326 324 321 319 319 317 317 320 320 319 318 317 315 314 313 311 309 308 307 305 302 300 298 297 296 294 294 293 292 292 291 291 291 290 290 291 290 290 290 291 291 291 292
327 325 329 324 329 329 326 326 326 322 320 318 317 320 320 319 317 316 314 314 312 309 307 305 304 302 299 297 296 294 293 292 291 291 291 290 290 290 290 289 289 289 289 289 289 290 290 290 290
325 326 325 323 324 328 327 326 320 320 319 318 318 319 320 318 317 315 314 312 309 307 305 303 302 300 297 295 294 293 291 291 290 290 290 289 289 289 289 288 288 288 288 288 288 289 289 289 290
325 327 328 330 326 323 323 325 316 317 316 315 318 318 319 318 317 315 313 310 307 306 303 302 300 298 296 294 292 291 290 290 290 289 289 288 288 288 288 288 288 288 288 287 287 288 288 289 290

GFSSGP_925_thetae_021.txt.gz
Theta_e
328 326 322 325 327 326 328 328 333 336 336 330 329 331 332 331 332 335 334 336 335 336 338 343 345 346 344 341 340 336 335 333 331 331 329 328 330 331 328 330 330 331 328 327 328 330 330 330 331
326 325 324 325 323 326 325 327 332 334 331 328 328 329 330 332 329 334 336 336 335 335 337 341 343 345 341 340 339 334 335 334 331 330 330 330 333 332 331 329 328 329 329 327 325 327 328 329 329
326 324 326 328 326 322 327 329 330 329 329 329 331 328 329 331 329 332 334 335 335 335 336 344 345 343 341 340 336 335 334 334 332 330 330 333 333 335 330 328 328 326 324 327 327 325 325 327 325
325 326 325 328 329 324 325 329 328 326 330 329 330 332 329 329 331 334 334 335 335 335 336 344 341 343 340 337 338 335 335 336 333 332 330 332 334 336 333 329 325 326 325 327 326 326 324 325 328
326 326 327 330 330 325 320 324 324 326 328 328 329 333 332 331 332 332 335 335 335 336 337 342 338 342 339 339 339 337 336 333 332 331 330 331 334 336 334 331 328 328 327 328 328 327 327 327 326
328 326 329 328 330 328 326 322 323 327 328 328 329 329 332 330 333 334 335 334 335 337 337 338 337 338 339 339 339 337 336 332 332 329 330 331 332 335 333 332 330 329 327 327 327 326 327 328 327
328 328 329 327 327 330 329 321 323 326 327 329 326 329 331 330 330 334 336 335 336 337 337 337 336 337 335 341 338 335 334 332 331 332 328 331 331 330 328 328 328 329 329 327 325 327 331 331 331
328 328 329 328 328 328 327 322 322 326 326 326 326 330 332 330 329 333 335 335 336 337 338 337 337 338 341 341 337 335 335 333 331 330 328 326 327 326 327 327 327 328 326 323 324 322 326 330 330
327 329 330 328 328 327 326 326 326 327 327 326 325 326 327 325 329 332 333 334 335 336 338 337 337 338 340 340 341 336 335 334 333 332 331 328 328 330 330 329 327 324 323 323 322 323 322 322 323
329 329 328 327 327 327 327 327 328 328 328 328 327 326 325 325 325 326 328 332 334 335 336 338 338 338 340 339 339 339 338 337 336 334 333 333 329 329 329 328 326 325 323 324 323 324 324 324 327
330 330 328 327 327 326 326 327 328 329 330 329 328 326 327 326 325 324 325 327 331 333 334 336 337 338 339 339 339 338 337 336 335 333 332 331 328 327 328 329 329 329 328 328 328 328 329 328 328
331 328 327 328 327 327 327 326 328 328 329 328 328 328 328 327 324 324 324 325 330 331 332 333 335 337 338 338 339 338 337 336 335 334 333 332 330 329 328 328 328 328 328 328 329 329 329 329 329
330 328 327 327 327 326 326 327 327 328 328 328 328 328 328 327 325 323 324 328 329 331 332 332 333 335 336 338 338 338 337 336 335 335 334 332 331 330 329 329 329 329 329 329 329 330 330 330 331
329 328 327 327 327 327 327 327 327 327 327 327 327 326 325 325 323 323 326 328 330 331 332 332 332 332 334 336 337 338 337 336 336 335 335 334 333 332 332 332 331 331 331 331 331 330 331 331 331
329 330 328 328 328 328 327 329 328 327 327 325 322 322 323 322 322 323 324 324 324 325 324 323 324 326 331 334 336 337 337 336 336 335 334 334 333 333 332 332 332 332 332 331 330 330 330 330 329
328 332 333 328 327 328 328 331 327 327 325 324 323 322 322 323 322 322 321 322 322 323 324 326 325 322 326 333 335 336 336 336 335 334 333 333 332 331 331 331 331 331 330 330 329 328 327 327 326
331 335 333 331 327 328 329 330 327 326 324 323 323 322 323 323 322 321 320 321 322 324 325 327 327 327 328 333 334 334 333 332 332 331 331 331 330 330 331 329 327 324 325 324 322 320 320 320 319
331 334 332 332 328 328 329 329 327 326 324 325 323 323 323 323 322 320 320 321 323 326 327 330 330 330 331 331 331 331 332 329 326 323 321 319 317 317 318 316 314 314 315 314 313 312 313 312 313
328 330 330 330 327 328 329 328 326 325 325 326 325 323 323 323 321 320 320 321 321 324 328 330 330 331 332 332 332 327 323 320 317 314 313 312 312 311 311 311 311 311 311 311 310 310 311 311 310
327 329 330 327 326 327 327 326 326 326 326 327 326 323 323 322 320 320 319 319 319 319 322 327 329 331 331 326 324 321 319 316 314 313 311 310 308 308 308 308 308 308 308 308 307 307 306 306 306
328 330 327 327 327 326 326 328 328 327 327 327 324 323 323 322 321 320 320 319 319 318 319 320 320 320 320 320 319 318 317 316 313 311 310 308 306 304 303 303 303 303 303 303 302 302 302 303 303
332 326 326 326 330 332 329 331 328 327 325 322 321 322 323 322 320 320 319 319 319 318 318 318 318 318 318 318 318 317 314 312 311 310 308 307 305 302 300 300 299 300 299 299 299 299 299 299 301
328 326 325 327 329 331 332 333 329 328 326 324 322 322 323 321 320 320 319 318 318 318 317 316 315 314 314 314 313 312 311 310 308 308 306 304 303 301 298 297 297 297 297 296 296 297 297 298 300
326 326 327 327 329 334 330 331 329 328 325 324 322 322 322 320 320 319 318 318 318 317 315 314 313 312 311 310 310 309 308 307 306 305 303 302 300 299 296 295 295 295 295 295 294 295 296 297 299
327 330 335 334 334 331 327 331 329 322 321 322 322 322 321 320 320 319 318 318 317 316 314 312 311 310 308 307 307 306 305 304 302 301 300 299 298 296 295 294 294 294 293 293 293 293 294 294 296
331 329 329 333 331 329 323 327 326 322 320 320 321 322 321 320 319 318 318 317 317 315 313 311 310 307 306 304 303 302 301 300 299 298 297 296 295 294 293 293 292 292 292 292 292 292 293 293 293
329 330 325 327 327 330 328 326 322 321 321 320 321 322 321 320 320 319 318 317 316 314 313 311 308 306 304 302 301 300 298 297 296 295 295 294 293 292 292 292 291 291 291 291 291 291 291 291 291
328 326 330 327 330 330 328 327 327 323 322 320 320 322 321 320 320 319 318 316 315 312 311 309 307 304 302 300 299 298 296 295 294 294 293 292 292 291 291 291 290 290 290 290 290 290 290 290 290
328 330 330 327 328 330 330 327 324 322 321 321 320 322 322 321 320 318 317 316 313 311 309 307 304 302 300 299 298 296 295 294 294 293 292 291 291 290 290 290 290 290 290 290 289 289 289 289 290
328 328 329 330 330 326 326 326 320 320 320 319 321 321 321 320 319 318 317 315 312 310 308 306 304 301 299 297 296 295 294 293 293 292 291 290 290 290 290 289 289 289 289 289 288 288 289 288 289

GFSSGP_925_thetae_024.txt.gz
Theta_e
324 326 326 325 330 328 328 327 326 335 335 328 327 328 328 329 331 338 335 334 336 339 345 346 345 343 341 340 338 335 334 333 332 331 329 328 329 330 329 330 328 328 328 328 328 330 331 332 332
326 326 325 327 326 325 327 323 332 332 329 327 327 328 329 331 331 333 336 334 335 336 342 346 345 345 340 338 338 334 334 334 331 330 329 330 332 331 330 328 328 328 328 328 326 327 328 328 329
327 326 325 330 330 324 325 329 328 325 326 329 330 329 328 330 332 334 335 334 335 334 340 344 342 345 340 339 337 333 335 334 332 329 329 332 333 334 329 329 326 324 323 325 326 326 325 328 327
327 326 325 326 329 329 323 323 327 324 326 329 329 329 329 331 332 334 335 334 335 335 342 345 343 342 341 340 337 334 335 335 332 330 327 332 334 335 332 329 325 327 326 324 327 326 325 319 318
326 326 327 328 328 328 322 320 324 324 327 327 328 330 332 331 332 334 335 335 335 337 341 341 341 342 340 340 337 337 335 333 330 328 329 333 335 336 334 331 329 328 327 326 327 326 327 327 326
328 327 328 329 327 326 326 325 321 322 325 328 328 326 331 330 333 334 334 334 336 336 340 337 338 341 337 339 338 337 336 332 329 325 332 332 332 334 335 332 330 329 327 327 328 328 330 331 331
329 328 330 328 326 326 329 320 320 322 325 326 325 327 328 327 332 335 335 334 336 337 337 338 333 337 337 339 338 337 334 332 329 327 327 331 330 330 329 328 327 326 326 328 328 325 328 330 332
328 328 329 327 329 329 326 324 320 322 325 324 325 327 329 327 331 335 335 335 336 337 337 337 336 334 335 339 339 335 334 333 331 330 327 324 327 327 325 327 326 327 327 321 320 320 321 326 328
328 331 331 329 328 328 325 325 325 326 325 325 324 324 325 326 330 333 334 334 335 337 337 337 337 338 340 340 337 335 335 334 333 332 329 329 324 329 330 330 329 327 324 322 322 321 321 320 320
330 332 330 327 326 326 326 326 327 328 327 325 326 325 325 325 325 325 329 333 334 335 337 338 337 338 340 341 341 339 337 335 334 333 333 332 330 329 330 329 328 326 325 325 326 326 327 328 327
331 332 329 326 325 326 326 326 325 326 329 327 326 326 326 327 326 324 324 326 333 334 335 337 338 338 339 339 339 340 338 338 337 336 333 331 329 327 327 328 328 328 328 328 328 328 328 328 328
332 329 328 327 327 327 327 326 326 325 326 326 326 326 326 325 325 323 324 324 326 333 334 335 336 338 338 339 339 338 338 336 335 334 333 332 331 329 328 328 328 328 328 328 328 328 329 329 329
331 330 328 326 326 326 326 326 326 325 324 324 325 326 325 325 325 325 323 326 328 331 332 332 334 335 337 338 339 338 337 337 336 335 334 332 331 330 330 330 329 329 330 330 330 330 330 330 331
329 330 330 328 326 326 327 326 325 325 324 324 325 324 322 324 324 322 322 326 329 331 332 332 332 333 335 337 338 338 337 337 335 335 335 334 333 332 332 332 332 332 331 331 330 330 330 330 330
323 327 330 329 327 327 325 327 327 325 324 324 324 321 319 322 322 322 324 324 324 325 325 326 327 330 332 334 337 337 337 337 335 335 334 333 333 332 332 332 332 331 330 330 330 329 327 326 325
327 327 332 329 329 326 326 329 327 325 324 324 323 320 320 321 322 322 322 322 322 323 324 325 325 323 328 332 336 337 336 336 335 334 333 332 331 330 331 330 329 326 326 324 322 317 317 317 316
327 331 329 331 328 327 326 328 326 325 324 323 322 319 319 320 320 321 321 322 323 324 326 327 325 323 326 333 336 335 334 333 331 331 329 328 327 327 324 318 316 315 315 313 312 311 312 312 311
328 331 328 332 331 328 328 327 326 325 324 321 320 320 319 320 319 320 321 323 325 327 330 329 330 330 333 334 332 331 328 322 321 319 315 314 313 314 313 311 311 310 311 310 310 309 309 308 308
323 326 329 327 328 328 328 326 326 325 324 322 322 321 319 319 318 320 321 323 327 329 330 330 330 331 331 331 329 322 318 315 313 312 311 309 309 308 308 309 308 307 307 307 305 304 303 303 303
323 328 329 328 327 328 327 328 326 324 323 322 322 321 319 319 317 319 320 321 323 327 330 331 331 328 328 326 323 319 316 314 312 310 308 307 305 305 304 303 303 302 302 302 301 300 300 301 300
320 326 328 328 327 326 325 327 325 323 322 322 322 323 319 319 318 317 317 319 319 322 322 323 324 323 321 319 318 315 314 313 311 309 307 306 304 301 300 299 299 299 299 299 298 298 298 298 299
321 321 327 328 330 332 325 328 325 324 324 324 322 320 319 318 317 316 317 318 319 318 318 319 319 319 318 318 317 316 312 311 309 308 306 304 302 301 298 297 297 297 296 296 295 296 296 297 298
320 322 326 328 330 331 332 332 328 325 325 325 319 318 319 318 317 317 317 318 318 317 316 316 315 315 314 314 313 311 310 308 307 306 304 302 301 298 297 295 295 295 295 294 294 294 294 295 296
316 322 325 329 330 335 329 332 328 326 324 321 318 318 319 317 317 317 318 318 317 315 314 312 312 311 311 310 310 309 308 306 304 302 301 300 298 296 295 294 294 293 293 293 293 293 292 293 294
318 324 328 335 337 336 327 328 328 320 320 321 319 319 318 317 317 317 316 316 316 314 313 311 310 308 307 306 305 304 303 301 300 299 298 296 296 294 293 293 292 292 292 292 292 292 291 292 292
322 319 331 335 334 327 324 329 325 320 318 319 319 319 318 317 317 316 315 316 316 314 312 310 307 306 304 303 302 301 300 298 297 296 295 294 294 293 292 292 291 291 291 291 291 291 291 291 291
321 321 324 328 323 327 324 325 318 319 319 318 319 319 318 317 317 316 315 316 315 313 311 308 306 304 302 301 299 298 297 296 295 295 294 293 292 292 291 291 290 290 290 290 290 290 290 290 290
325 324 331 328 329 333 328 325 323 320 319 318 320 319 318 317 316 315 315 315 314 312 310 307 304 302 301 300 298 296 295 295 294 293 292 292 291 291 290 290 290 290 290 289 289 289 289 289 289
328 331 328 327 328 332 328 325 319 319 319 318 317 319 318 317 317 316 314 315 313 311 309 306 303 301 300 298 297 295 294 294 293 292 291 290 290 290 290 289 289 289 289 289 288 288 288 288 288
327 328 328 327 332 328 324 322 318 317 318 317 316 320 318 317 316 315 314 312 311 310 307 304 302 300 298 297 295 294 294 293 292 291 290 290 290 289 289 289 289 289 288 288 288 288 288 287 287

GFSSGP_925_thetae_027.txt.gz
Theta_e
323 323 326 324 321 322 326 326 322 331 330 326 326 326 326 326 329 336 334 337 338 342 341 345 344 340 338 339 336 333 332 332 332 329 328 328 330 330 331 330 329 329 328 328 328 330 330 332 332
324 326 325 320 321 320 321 323 325 324 326 326 326 327 327 329 331 333 334 336 338 339 339 345 343 339 339 339 337 333 332 333 332 329 329 329 330 331 330 329 329 327 325 327 327 326 328 329 328
327 327 321 324 325 324 319 323 324 323 323 327 328 326 326 331 331 333 334 335 338 340 338 344 343 342 340 337 337 333 333 332 331 327 330 330 333 332 328 330 325 326 324 322 324 324 323 327 327
328 322 318 323 324 324 323 318 323 323 323 324 326 327 329 330 332 335 334 334 335 341 340 340 342 343 340 339 337 333 334 333 329 327 328 331 332 334 331 329 327 328 326 324 323 321 320 318 317
326 320 323 324 324 323 321 318 322 322 324 326 326 327 330 330 334 334 334 335 334 341 342 344 342 341 340 340 336 335 335 334 326 327 330 332 333 336 333 329 330 329 327 325 326 326 326 327 327
325 320 324 325 324 323 321 321 319 320 319 322 325 325 329 332 333 334 334 335 336 340 341 342 343 341 340 339 337 336 335 332 325 328 332 330 331 333 335 333 330 328 326 327 328 328 329 331 331
327 325 326 325 324 325 325 318 318 319 323 324 321 326 326 329 333 334 334 335 337 338 338 334 340 341 339 338 338 337 335 332 328 325 329 330 330 329 330 330 327 326 328 328 329 328 328 329 331
325 323 328 324 326 326 324 321 318 320 322 323 322 325 327 326 333 335 334 334 337 337 337 336 331 338 336 337 338 337 334 332 329 327 323 325 327 327 327 325 325 326 326 324 321 321 322 323 321
328 328 330 329 326 325 323 323 323 322 324 324 323 322 324 328 332 334 334 334 336 337 337 337 335 332 332 335 338 336 334 334 332 330 327 327 324 323 327 329 329 328 325 322 321 322 323 325 326
329 330 331 326 324 323 323 322 325 327 326 325 323 322 323 328 330 331 332 333 334 337 337 337 337 337 339 340 337 335 335 333 333 331 329 332 329 329 329 330 328 327 327 327 327 327 328 328 328
331 334 328 327 325 324 324 324 323 324 325 326 325 323 324 324 323 323 322 331 333 335 337 337 337 337 339 341 340 339 338 337 336 335 334 332 331 327 327 328 328 327 328 328 328 328 328 328 329
331 330 330 328 327 326 325 324 324 324 323 323 322 322 323 323 323 323 324 322 325 333 335 337 337 337 339 339 339 338 338 337 337 335 333 332 330 329 328 327 327 328 328 328 329 329 329 329 329
327 327 328 328 327 326 324 324 324 324 322 321 321 322 321 321 321 324 323 324 326 332 334 335 336 337 337 339 339 338 339 337 335 333 332 331 330 330 330 330 330 330 330 330 330 330 329 329 330
321 324 326 328 328 325 325 324 323 323 322 321 321 321 320 319 320 321 321 323 327 329 333 335 335 336 337 338 339 338 337 336 335 334 333 333 332 332 332 331 331 331 330 330 329 328 327 325 323
321 324 322 322 328 328 326 325 324 322 322 322 322 320 321 317 319 320 323 323 324 325 329 331 332 333 335 337 337 338 336 336 335 334 333 333 333 332 332 330 328 327 326 325 324 319 318 318 316
323 324 326 323 325 327 326 330 325 322 321 322 321 318 316 318 318 321 322 322 323 323 323 324 327 329 331 332 337 337 336 335 334 333 332 331 330 329 328 324 319 316 315 316 315 312 311 311 310
322 326 326 326 325 327 327 329 324 322 322 322 318 317 315 317 317 320 321 321 322 323 325 325 324 323 328 334 336 335 334 333 331 329 328 327 325 317 320 316 312 312 312 311 310 309 307 305 304
320 323 324 326 324 326 329 329 323 322 322 323 319 317 315 317 317 319 321 322 324 326 327 326 324 324 333 334 331 330 327 325 325 320 319 319 315 314 312 310 309 308 308 307 305 302 301 300 300
317 319 322 324 323 326 327 327 326 323 322 319 318 315 315 316 316 320 323 325 327 329 329 330 332 332 332 329 325 322 315 315 314 313 311 309 308 308 307 305 304 302 302 301 299 299 298 298 298
319 320 321 322 324 325 327 328 326 324 322 323 320 318 316 316 316 317 320 325 328 329 329 330 331 331 329 327 322 318 313 311 310 308 306 305 305 303 302 301 300 299 299 298 297 297 296 297 298
318 320 320 321 323 324 326 329 327 323 322 320 320 319 318 317 317 314 314 320 322 324 325 325 327 327 325 323 318 314 311 309 308 306 305 303 302 300 299 298 297 297 296 295 295 295 295 296 296
318 316 316 319 324 329 326 335 324 324 322 319 317 316 318 316 316 315 314 316 318 319 321 321 321 321 320 319 315 312 311 309 308 306 303 301 300 299 297 296 295 295 294 293 293 293 294 293 295
316 315 317 318 323 328 328 332 326 321 323 323 321 315 317 316 316 316 315 316 317 317 317 317 318 317 316 315 314 311 309 308 306 303 301 299 298 297 295 294 294 293 293 293 292 292 292 292 294
314 315 317 319 322 329 328 332 327 325 324 321 319 317 316 316 316 316 316 316 314 314 313 313 313 312 313 312 310 308 306 304 302 301 299 297 296 295 293 293 292 292 292 292 291 291 291 291 291
315 316 319 322 324 326 325 330 329 321 317 320 316 317 316 316 317 316 315 313 312 311 311 310 310 308 308 308 306 305 303 301 300 298 297 296 295 293 292 292 291 291 291 291 290 290 290 290 290
315 315 317 320 323 324 328 331 324 325 316 317 318 317 316 317 316 316 314 313 312 310 309 308 306 305 305 304 302 301 300 299 297 296 295 294 293 292 291 291 290 290 290 290 290 289 289 289 289
315 317 314 322 322 328 328 322 317 316 316 318 318 317 317 316 316 315 314 313 311 309 308 306 304 303 302 301 300 298 297 296 295 294 293 292 291 291 290 290 290 290 289 289 289 289 288 288 288
317 316 318 320 325 334 326 321 320 319 317 319 318 317 316 316 315 315 314 312 311 309 306 304 303 301 299 298 297 296 295 295 294 294 292 291 290 290 290 290 289 289 289 289 288 288 288 287 287
319 321 319 321 320 330 327 324 316 317 317 319 318 317 316 316 315 314 313 312 310 308 305 303 301 300 298 297 296 295 294 294 293 293 291 290 290 289 289 289 289 289 288 288 288 288 287 287 287
321 322 321 320 328 326 321 320 315 314 315 317 317 317 316 315 314 313 312 309 308 306 304 302 300 299 297 296 295 294 294 293 292 291 291 290 289 289 289 289 289 288 288 288 288 287 287 287 287

GFSSGP_925_thetae_030.txt.gz
Theta_e
325 323 326 322 321 320 323 325 320 324 328 324 325 326 327 326 328 331 334 337 339 342 346 344 340 339 338 339 333 332 331 333 332 329 328 329 330 329 330 329 329 328 329 328 329 331 331 334 332
325 326 324 317 321 320 320 320 325 323 323 321 325 323 325 332 332 331 336 339 338 341 344 344 341 339 338 338 336 332 331 334 332 328 328 329 329 330 330 329 328 327 323 327 325 325 329 329 329
325 325 320 321 321 323 320 320 323 324 322 325 327 324 327 331 332 332 334 339 339 340 342 344 341 338 339 338 338 334 332 333 332 329 329 331 331 332 329 330 327 326 324 322 324 324 325 328 327
328 321 316 322 323 322 323 321 320 322 323 324 325 328 329 329 330 334 334 338 338 338 339 343 341 339 340 338 337 335 333 332 331 328 330 330 333 334 329 329 327 328 326 324 324 324 323 321 321
325 317 323 323 323 321 321 320 317 321 323 324 322 326 330 331 334 334 334 337 337 339 338 341 342 341 341 340 338 336 335 332 331 329 330 331 333 334 333 329 329 329 327 325 325 325 326 327 327
325 318 323 324 322 321 320 320 317 319 320 322 323 327 328 331 333 333 334 334 336 339 341 341 342 342 340 340 337 336 335 333 329 331 334 334 333 334 334 331 330 327 325 325 328 328 328 330 330
326 322 325 323 323 323 323 322 317 318 321 324 321 327 326 328 333 334 333 334 336 340 342 343 343 342 340 339 337 336 335 332 327 331 333 329 329 331 334 332 328 326 325 327 325 326 327 327 328
324 323 327 324 326 326 323 321 317 320 321 322 321 327 328 324 333 334 333 336 339 340 339 339 342 342 341 338 338 337 335 332 328 324 328 326 328 328 328 327 326 326 327 325 321 321 321 322 321
326 328 329 328 325 325 321 323 321 320 322 323 322 320 321 326 333 333 332 336 340 339 337 336 335 339 339 336 338 337 335 333 331 328 325 323 323 321 322 327 328 328 326 325 324 325 325 327 327
329 331 331 325 324 324 323 323 321 325 325 325 324 322 324 328 332 332 331 332 335 339 338 336 334 331 334 335 338 337 335 334 332 330 326 329 327 327 328 329 328 327 327 327 327 327 327 328 328
329 334 328 327 325 324 324 323 322 323 324 324 325 323 323 323 326 329 331 332 334 336 337 337 336 335 334 335 336 336 335 335 334 332 331 331 331 328 327 327 327 327 327 327 328 328 328 328 329
326 328 329 329 327 327 327 323 323 321 322 322 322 321 321 320 320 320 320 325 330 333 336 336 336 336 337 339 340 339 337 336 336 335 334 333 331 327 326 327 327 327 328 328 328 329 329 329 329
322 324 325 326 328 328 326 325 323 322 320 319 319 320 320 319 319 322 323 323 322 326 334 336 336 336 337 338 340 339 338 337 336 336 335 332 330 328 329 329 330 330 330 329 329 329 328 328 325
318 319 321 324 324 326 327 326 322 322 320 320 320 320 319 319 319 319 321 322 325 327 331 335 336 336 337 338 339 338 338 338 336 333 332 331 331 331 331 331 330 329 329 328 325 322 320 318 317
319 321 320 320 320 323 326 330 329 321 320 320 320 319 318 318 318 318 320 321 326 327 330 333 335 336 337 338 338 338 337 336 334 333 333 333 332 332 331 328 324 321 320 320 319 316 313 311 310
321 320 324 321 320 322 327 332 327 321 319 320 319 318 317 316 317 319 322 323 324 326 328 331 334 334 336 337 338 337 335 334 334 333 332 331 329 329 328 322 317 314 316 313 312 310 308 305 303
319 321 322 324 320 324 326 329 326 322 319 320 319 317 317 314 316 318 320 321 322 323 324 324 325 328 331 334 335 335 333 333 330 330 328 325 326 324 322 317 311 310 310 309 306 303 300 299 298
320 319 320 322 322 322 325 326 325 322 320 321 321 321 315 314 316 317 320 321 322 322 324 325 324 323 331 334 331 328 330 325 323 322 321 322 319 315 312 308 306 305 304 302 300 299 297 298 297
317 316 317 318 319 322 323 324 323 323 321 319 318 317 314 314 315 317 321 323 326 327 327 325 323 328 330 327 324 322 317 315 316 316 314 313 309 307 305 303 302 301 300 297 296 296 295 296 295
318 319 318 316 316 320 322 324 323 323 323 322 322 318 314 315 315 316 322 326 328 328 329 330 328 324 325 327 323 319 315 312 311 308 306 305 304 303 302 301 299 298 296 295 294 294 294 295 294
315 318 317 317 316 316 316 321 323 323 323 321 321 320 314 316 316 316 317 323 326 327 329 329 328 326 325 324 319 314 311 307 305 304 303 301 301 300 299 298 297 295 294 293 293 293 292 292 294
316 315 317 316 317 319 321 327 323 323 324 322 322 317 316 317 316 314 315 317 321 324 327 327 326 325 322 321 318 314 308 306 305 303 301 300 299 298 297 295 294 294 293 292 292 292 291 292 293
315 313 314 316 316 318 317 322 324 323 324 324 322 318 316 316 316 315 316 316 318 320 321 322 322 321 319 319 316 310 308 306 303 301 300 298 297 296 295 294 293 292 292 291 291 291 290 291 290
314 315 316 316 318 323 317 320 321 325 323 322 321 315 315 316 315 314 314 314 314 316 317 317 317 316 315 313 311 309 306 304 301 299 298 297 296 295 293 292 291 291 291 290 290 290 290 289 289
312 315 318 319 319 317 314 320 318 321 321 320 320 316 315 315 315 314 313 310 309 310 312 314 314 312 312 310 308 307 304 302 300 298 297 296 294 293 292 291 290 290 290 290 289 289 289 289 288
314 314 318 315 313 313 323 326 322 320 319 319 315 316 315 316 316 315 312 310 308 307 308 309 310 307 308 307 304 303 301 300 298 298 296 294 293 291 290 290 290 289 289 289 289 289 288 288 287
313 316 312 316 317 322 321 323 320 320 316 315 315 316 316 316 316 314 311 309 307 306 305 306 305 304 304 302 300 299 299 298 297 295 294 292 291 290 290 290 289 289 289 289 288 288 288 287 287
312 312 314 316 313 322 326 323 317 318 317 316 316 317 317 316 315 313 311 308 306 305 305 304 303 302 300 299 299 298 297 296 295 294 292 291 290 290 289 289 289 289 289 288 288 288 287 287 287
314 313 314 312 315 322 330 327 318 319 317 317 316 317 316 316 315 313 310 308 305 304 303 302 301 299 297 297 296 296 295 294 294 293 291 290 290 289 289 289 289 289 288 288 288 287 287 287 286
312 313 313 315 313 317 321 320 315 313 317 317 316 316 316 315 314 312 310 306 304 302 301 300 298 297 296 296 295 294 294 293 293 292 291 290 289 289 288 288 288 288 288 287 287 287 286 287 287

GFSSGP_925_thetae_033.txt.gz
Theta_e
328 325 326 320 321 319 322 323 320 322 327 324 322 324 326 325 327 330 332 338 338 341 346 343 341 341 338 335 335 332 332 332 331 330 328 328 328 328 328 329 328 327 328 327 330 332 332 334 333
324 325 322 315 321 321 318 319 325 322 322 320 322 323 325 333 331 331 337 338 339 342 345 343 341 341 338 337 339 334 331 334 331 329 328 329 329 329 329 328 329 329 327 327 325 327 329 329 329
325 324 318 319 319 323 319 319 319 320 320 324 326 324 327 332 331 330 333 337 342 343 343 343 340 339 339 340 337 334 334 334 332 328 329 330 330 331 329 330 328 325 324 323 325 324 324 328 327
327 319 315 322 323 322 320 321 320 319 320 323 323 329 328 328 330 333 335 338 341 341 340 342 339 339 338 338 336 337 337 335 332 329 329 331 332 334 331 330 327 327 325 323 323 322 320 319 319
322 316 322 323 323 320 319 319 319 319 320 321 322 326 330 329 332 333 337 338 338 339 338 343 341 338 339 340 338 338 337 335 332 328 331 331 332 334 330 331 328 328 325 323 324 324 326 327 327
324 317 323 323 321 320 318 318 319 317 317 322 322 328 328 330 332 332 337 337 337 337 337 342 341 339 341 339 338 337 335 335 332 329 332 334 331 334 334 331 329 328 325 325 327 328 328 329 329
325 320 324 322 321 321 320 320 320 318 319 323 320 327 325 325 333 332 334 337 337 338 338 340 342 341 341 340 340 336 335 335 329 331 334 331 330 332 333 333 331 326 324 326 326 325 327 328 328
323 322 326 322 324 324 322 322 317 316 318 320 320 326 327 324 331 332 331 334 337 339 340 341 341 343 341 340 339 336 336 334 328 327 332 328 328 329 331 330 327 325 326 327 324 322 321 323 324
321 327 328 326 324 324 321 323 320 319 320 322 321 321 320 325 332 331 334 338 340 340 341 342 342 343 341 340 339 337 336 334 330 326 325 327 326 325 326 327 327 327 327 326 326 326 326 327 327
329 331 329 324 322 322 323 321 321 323 323 324 322 321 324 329 333 331 330 336 340 342 342 341 340 341 341 340 339 337 337 334 332 329 326 325 325 323 324 326 328 328 327 327 327 327 327 327 328
328 332 327 327 325 323 323 323 322 323 323 322 324 323 321 327 329 330 330 331 336 338 339 339 337 336 338 340 337 337 337 334 333 331 329 329 329 328 327 327 327 327 327 327 327 327 328 328 328
323 324 328 328 327 327 327 323 323 320 320 319 319 320 320 320 322 324 329 331 331 333 336 337 337 335 334 336 335 337 336 335 334 333 331 330 331 329 327 327 327 327 327 328 328 328 328 327 327
320 322 323 323 325 326 326 327 324 323 320 318 318 318 318 318 318 320 321 322 323 327 331 335 337 336 335 335 336 337 337 336 335 334 334 333 332 330 326 327 329 330 329 329 328 327 324 322 321
317 318 318 318 321 321 324 325 325 323 319 318 318 318 318 317 316 319 319 320 321 322 320 329 335 336 336 336 337 339 339 337 336 335 335 333 330 329 330 330 329 326 325 323 322 320 317 314 313
319 320 319 318 319 319 322 324 325 323 321 319 318 317 318 317 318 317 321 321 321 323 324 327 333 335 336 336 337 339 339 337 336 335 331 330 331 330 329 324 321 319 318 316 314 312 308 307 305
320 319 322 318 318 319 321 324 324 322 324 321 318 316 316 316 316 319 320 320 320 324 325 328 331 335 335 336 337 338 335 335 333 331 331 331 330 327 328 324 320 314 313 310 308 306 303 301 300
318 320 319 319 319 321 322 324 321 322 320 319 317 316 316 316 314 317 319 320 322 323 326 328 331 334 334 335 336 335 333 333 331 330 330 328 324 325 323 316 312 308 306 304 302 300 298 297 297
316 319 318 319 320 319 320 322 321 320 321 320 319 317 316 316 315 317 318 319 320 321 323 324 327 331 332 333 333 331 328 326 325 324 322 319 319 319 314 307 304 303 302 301 298 296 295 296 294
315 316 315 316 315 316 318 320 320 319 319 321 319 318 317 315 313 315 317 320 321 321 323 324 323 328 331 329 323 320 317 317 320 318 314 315 313 307 305 303 302 301 300 296 295 294 294 294 293
316 317 316 315 315 314 315 316 316 313 315 319 320 320 318 314 314 314 317 322 324 325 325 324 324 327 326 325 322 320 314 311 310 307 306 305 304 303 303 301 300 298 295 294 293 293 292 292 293
313 314 314 315 314 314 315 315 312 313 316 319 320 320 319 317 314 314 316 322 325 326 327 325 323 323 323 323 320 313 309 305 302 302 302 301 302 301 300 299 297 295 293 293 292 292 291 292 292
314 312 313 315 317 316 315 317 314 315 317 319 320 320 319 314 314 315 316 319 323 326 327 325 323 322 320 319 318 315 307 303 301 301 300 300 299 298 297 296 294 293 292 292 291 291 290 290 290
313 313 314 316 316 314 314 314 313 315 316 319 319 320 316 313 314 315 318 319 322 324 325 324 321 320 318 319 319 315 307 304 301 300 299 298 297 296 295 293 292 291 291 291 290 290 290 289 289
313 314 315 317 316 317 314 316 313 311 316 319 319 318 316 315 314 315 315 316 316 319 321 320 319 317 317 317 315 313 306 302 299 298 298 296 295 294 293 292 291 290 290 290 290 289 289 289 288
311 316 317 318 320 316 312 315 314 310 315 318 318 316 315 312 314 314 314 312 310 313 315 316 316 313 314 313 310 307 305 303 301 299 298 296 294 293 291 291 290 290 289 289 289 289 288 288 287
313 313 317 318 317 314 314 316 314 312 312 311 312 314 312 313 314 316 314 311 310 309 312 312 312 310 309 308 306 305 303 301 299 298 296 295 293 291 290 290 289 289 289 289 289 288 288 287 287
313 315 311 314 316 319 316 314 310 313 314 314 314 313 313 314 315 315 311 309 308 307 308 310 308 307 307 305 303 301 300 299 297 296 295 293 291 290 290 289 289 289 289 288 288 288 287 287 287
311 310 314 315 315 317 314 317 314 311 311 310 313 314 313 314 315 312 309 307 305 305 306 307 307 304 302 301 300 298 298 297 296 294 293 292 290 289 289 289 289 289 288 288 287 287 287 286 286
314 314 313 310 312 314 314 316 316 314 311 310 313 314 315 315 313 310 308 305 302 302 302 301 302 300 298 298 297 297 295 295 294 294 292 290 289 289 289 288 288 288 288 287 287 286 286 286 286
312 313 313 313 310 311 317 316 313 311 310 314 316 316 315 314 312 309 306 303 301 299 299 298 298 297 297 296 295 295 294 294 293 292 290 289 289 288 288 288 288 287 287 286 286 285 286 286 287

GFSSGP_925_thetae_036.txt.gz
Theta_e
326 324 325 318 320 316 319 319 319 321 325 323 321 323 325 325 328 330 332 338 338 340 343 342 340 341 339 335 335 333 332 333 332 330 331 331 332 331 327 328 328 328 328 326 330 332 334 335 333
326 325 321 314 320 321 320 317 323 322 321 318 320 323 324 332 330 331 336 337 338 340 345 341 341 340 339 336 335 333 332 332 331 329 328 328 328 329 328 328 328 329 327 327 325 328 330 330 329
326 323 317 318 318 321 320 316 320 319 317 321 325 324 326 331 331 330 333 337 340 342 344 341 341 339 338 336 336 336 335 334 331 329 329 330 329 330 330 329 327 325 324 322 322 322 324 327 327
326 318 314 321 322 321 318 319 319 318 319 321 323 329 327 327 329 331 333 337 340 342 344 342 340 339 341 338 336 338 337 335 332 329 330 330 331 332 331 330 327 327 323 322 322 319 318 317 317
320 315 320 322 321 319 317 318 319 319 317 319 321 326 329 328 331 332 336 338 339 343 343 342 339 340 339 339 337 338 338 336 333 330 330 331 332 335 331 332 328 328 323 322 323 321 324 325 327
323 316 321 322 321 320 318 318 319 317 316 317 322 327 327 327 332 335 337 337 338 340 341 342 341 340 339 340 339 337 337 336 333 329 332 332 331 333 333 332 329 329 326 325 326 328 328 328 329
323 320 323 321 319 319 318 317 319 319 316 318 320 326 325 325 331 334 336 337 337 338 338 341 342 339 340 341 338 337 336 335 331 329 332 334 330 332 333 332 331 329 327 328 329 329 329 329 329
320 320 325 320 323 322 321 321 319 315 317 318 319 325 326 324 330 332 338 338 339 339 338 339 342 340 340 342 339 338 336 335 330 327 332 330 329 330 333 331 329 327 327 328 329 326 325 325 326
318 326 327 325 323 322 320 321 320 318 318 320 320 321 320 324 330 330 331 336 339 340 340 339 341 342 341 341 340 339 336 335 332 326 330 330 327 327 327 328 328 327 327 327 328 327 327 327 327
327 328 327 322 320 322 321 321 321 322 320 322 322 321 323 327 330 329 332 335 338 339 340 341 341 342 343 342 340 339 337 336 333 329 326 326 324 323 322 324 326 327 327 327 327 327 327 327 327
326 330 326 326 325 325 323 322 321 323 324 321 322 320 321 327 329 329 329 333 337 338 339 340 341 341 342 343 341 339 337 336 333 331 329 327 327 326 327 327 327 327 327 327 327 327 328 328 327
323 322 326 327 327 327 327 324 324 321 321 319 318 318 318 319 324 328 329 330 331 334 338 339 340 340 340 341 340 338 337 336 334 332 330 329 329 329 329 327 326 326 327 328 328 328 327 326 322
319 320 321 320 319 322 324 325 326 324 320 320 320 318 317 316 316 321 326 325 326 329 330 333 337 338 338 339 339 336 336 336 335 333 332 331 331 331 327 326 327 329 329 327 325 324 322 321 317
317 317 317 317 318 318 321 321 322 322 320 319 318 318 317 316 316 317 319 320 321 321 321 323 330 336 337 336 336 335 336 336 336 334 334 333 332 329 329 330 328 326 322 320 321 317 313 311 307
318 319 317 317 317 317 318 321 321 319 320 322 321 318 317 316 317 316 320 320 321 322 322 321 321 330 336 336 335 336 337 337 336 336 335 333 329 330 329 326 322 318 315 313 312 309 305 303 302
319 317 320 316 317 317 319 322 319 317 319 321 320 317 317 317 316 318 319 320 322 321 321 321 323 326 335 336 335 336 339 338 336 335 333 329 331 328 322 322 316 313 311 307 304 302 300 299 298
316 317 317 318 316 318 319 321 321 318 318 319 318 317 317 316 315 318 320 320 320 320 321 324 325 329 333 335 335 336 337 336 334 330 330 329 323 321 320 322 314 307 304 303 301 299 297 297 297
314 315 315 317 317 315 316 318 317 316 316 317 317 316 315 315 315 317 318 319 319 321 323 325 327 330 332 334 334 333 332 329 329 329 325 321 319 318 319 313 305 303 302 301 298 296 295 294 293
314 315 315 314 313 314 315 315 315 314 315 316 317 317 316 316 315 315 317 317 318 319 322 323 327 329 332 331 327 323 323 321 321 320 318 319 313 309 306 304 302 300 300 297 295 294 293 293 292
313 315 315 312 312 314 314 314 313 312 313 314 315 317 317 317 313 312 315 317 319 319 321 322 325 327 328 327 324 321 318 313 314 312 310 308 304 303 303 302 300 298 296 294 293 292 292 292 291
312 313 313 312 311 312 313 313 309 309 310 311 311 312 316 317 316 312 313 318 321 322 322 322 323 325 325 325 321 315 313 307 303 302 300 300 302 302 301 299 297 295 294 292 291 291 291 291 290
313 311 312 312 313 313 312 315 310 311 309 308 310 313 316 316 314 312 312 317 321 323 324 323 322 322 322 321 319 318 308 302 299 299 298 299 299 299 298 296 294 293 292 291 290 290 290 290 289
312 311 312 313 314 313 313 313 309 309 310 311 312 313 314 316 315 312 313 318 321 324 325 323 320 319 318 317 316 311 304 302 298 297 297 297 297 296 295 293 292 291 291 290 290 290 289 289 288
311 312 313 314 317 318 313 313 312 309 308 309 311 312 315 315 312 312 314 318 320 322 322 320 318 316 315 315 312 312 308 300 297 296 296 296 295 294 292 292 291 290 290 290 289 289 289 288 288
310 314 314 314 316 314 311 313 312 308 308 309 310 312 313 313 311 312 314 315 313 316 317 316 316 312 312 312 311 310 305 301 299 298 297 295 293 292 291 290 290 290 289 289 289 289 288 288 287
311 312 311 310 314 313 311 314 311 309 309 309 309 309 312 312 311 314 315 315 314 313 314 313 313 311 311 311 309 306 303 301 299 298 296 295 293 291 290 290 289 289 289 289 289 288 288 287 287
313 314 310 313 311 314 314 312 310 309 308 308 310 308 307 310 312 313 314 314 312 311 311 312 310 308 308 307 304 302 301 299 297 296 295 293 291 290 289 289 289 289 289 288 288 287 287 286 286
312 311 315 314 315 314 312 311 311 310 309 307 308 309 311 311 312 313 312 309 309 307 308 309 309 306 304 303 302 299 298 297 296 294 293 291 290 289 289 289 289 288 288 288 287 286 286 286 286
314 314 314 312 313 310 310 309 308 312 313 315 311 305 309 312 313 312 309 305 302 303 303 303 302 302 300 299 298 296 295 295 294 293 291 290 289 289 289 288 288 288 287 286 286 285 285 286 286
311 313 313 315 311 310 308 310 312 312 312 314 313 311 311 312 311 307 304 302 301 299 299 298 297 298 298 297 296 295 294 293 293 291 290 289 289 288 288 288 288 287 286 286 285 285 286 286 286

GFSSGP_925_thetae_039.txt.gz
Theta_e
324 324 324 319 326 322 323 320 320 324 325 323 321 324 327 326 331 336 332 338 338 341 343 346 342 339 339 336 335 332 331 331 330 331 333 334 335 332 327 328 328 329 327 328 332 334 336 335 334
325 324 319 319 324 325 324 318 323 323 322 320 320 325 326 332 331 332 336 337 338 341 343 346 340 340 338 334 332 330 330 330 331 329 329 329 328 328 328 328 328 328 326 325 326 330 331 332 330
326 322 322 322 322 325 324 318 323 321 319 320 325 324 326 331 331 331 334 337 339 342 342 342 341 340 337 334 333 332 332 332 331 329 329 329 329 329 329 328 327 325 322 321 320 323 327 328 327
325 320 318 324 324 322 320 320 319 320 321 320 323 329 327 327 331 331 333 337 339 342 343 342 342 339 338 336 334 333 335 334 331 329 330 331 330 331 331 328 326 326 321 321 321 319 319 318 317
320 319 323 324 323 320 319 319 319 321 319 319 320 326 329 328 329 331 335 338 339 342 344 343 341 340 340 338 335 336 337 336 332 330 330 330 331 333 331 330 328 328 323 323 323 323 325 325 328
325 319 324 326 323 320 319 319 320 319 318 317 322 326 328 327 331 335 337 338 338 339 342 342 340 340 340 340 337 336 337 336 333 330 331 331 331 335 332 331 329 329 325 325 327 329 329 329 329
326 323 325 322 321 321 320 318 320 320 320 320 321 327 326 326 331 336 338 339 340 340 341 342 343 341 339 339 338 337 337 335 332 329 332 330 331 332 334 332 330 329 326 327 328 329 328 328 329
322 323 324 323 324 324 320 320 320 319 318 317 320 326 327 325 331 336 338 339 340 341 341 341 341 341 342 342 339 337 336 335 331 326 330 330 329 331 334 331 330 327 328 328 329 328 328 327 327
318 330 330 326 323 323 320 321 320 318 320 320 320 321 320 324 329 335 338 339 339 339 340 340 342 342 340 341 341 339 337 335 333 326 329 330 327 327 330 328 327 327 327 327 328 328 328 327 327
328 331 328 323 321 323 321 321 321 323 322 323 322 320 323 326 328 331 333 336 339 339 339 340 341 343 341 341 341 340 338 337 334 328 327 328 327 324 324 325 326 327 327 327 327 327 327 327 327
327 329 325 325 325 326 326 325 322 323 326 323 324 322 320 327 329 329 331 332 335 336 338 339 341 346 345 342 341 340 338 336 334 330 327 325 325 324 324 326 326 327 327 326 326 327 327 327 326
324 322 325 326 325 326 327 325 328 323 324 320 319 319 319 321 321 329 330 329 332 334 336 337 339 344 345 345 343 341 339 336 335 332 329 327 328 328 328 327 326 326 326 327 327 327 325 323 321
321 320 320 320 317 318 322 325 326 326 324 321 322 323 322 321 319 318 321 328 329 330 331 336 339 339 343 345 343 340 339 336 335 332 330 329 329 330 328 326 326 328 328 325 323 322 320 316 312
316 318 318 317 318 318 321 321 322 322 322 323 322 323 322 320 320 319 318 319 321 321 322 323 330 337 339 341 339 339 338 336 336 333 332 331 331 331 327 328 328 327 322 320 319 317 313 310 306
317 320 318 318 318 318 317 320 320 319 319 322 322 322 322 322 321 319 320 320 321 321 321 320 320 325 336 338 336 336 336 336 336 334 333 333 332 329 329 329 325 320 318 315 312 309 304 302 301
318 316 319 316 317 317 318 318 318 316 318 320 320 320 321 321 321 321 321 320 321 320 320 320 320 320 328 336 336 336 336 336 337 336 335 334 331 329 328 322 318 318 314 308 303 302 300 299 298
314 316 317 317 316 317 319 321 319 318 317 318 318 319 319 320 321 320 320 320 320 320 320 320 320 322 325 334 336 336 336 337 337 336 335 332 329 325 321 317 312 310 304 303 301 300 298 296 296
314 315 315 317 314 314 315 316 315 314 315 317 316 316 317 318 318 317 319 319 319 319 319 320 322 325 329 332 335 335 336 336 334 333 330 328 323 320 317 311 305 303 303 301 299 296 295 294 294
313 315 315 314 313 313 314 315 314 314 313 314 314 315 316 317 317 317 318 318 318 318 319 322 324 328 330 332 332 327 328 326 325 326 324 321 320 313 311 303 302 303 302 298 296 295 293 293 292
312 313 313 312 311 312 313 313 312 311 312 312 312 313 314 315 316 317 316 317 317 318 318 321 325 328 329 328 325 322 321 314 318 316 314 312 309 305 303 303 302 300 298 295 294 293 292 291 292
312 314 313 312 311 311 311 312 310 309 309 309 311 311 312 314 315 317 315 315 318 317 318 320 324 326 326 327 325 320 314 310 307 305 305 301 302 301 302 301 300 297 295 293 292 291 291 292 291
313 310 312 312 313 313 310 314 310 309 309 309 308 309 311 311 312 315 316 315 317 319 319 320 322 324 324 324 323 321 312 306 301 300 299 298 299 300 299 298 296 294 293 291 291 290 290 290 291
312 310 311 312 314 313 313 315 313 309 310 309 309 309 308 310 312 314 316 316 317 319 321 321 321 321 321 320 320 314 309 303 299 297 297 296 295 297 296 295 294 292 291 291 290 290 290 289 289
310 311 313 314 316 317 313 314 313 311 310 310 308 309 310 311 313 315 315 315 317 319 322 321 319 317 316 316 314 313 310 300 296 295 295 294 294 293 293 293 292 291 290 290 290 289 289 288 288
311 315 314 313 315 313 310 314 313 309 308 308 308 308 308 311 314 314 314 317 317 318 318 317 316 312 312 312 310 309 305 300 298 295 294 293 292 292 291 291 290 290 290 290 289 289 288 288 287
312 313 313 310 311 312 310 315 312 308 309 309 309 308 308 310 312 313 315 317 317 317 314 313 311 308 308 308 306 304 301 299 297 297 295 294 293 292 291 290 290 290 289 289 289 288 287 287 286
312 313 311 311 310 312 311 310 309 309 308 308 308 309 310 308 311 313 314 316 317 315 314 312 309 307 307 306 305 302 301 300 297 295 295 293 292 291 290 290 289 289 289 289 288 287 287 286 286
310 310 313 313 315 315 312 311 310 309 308 309 313 314 311 308 309 313 315 315 315 314 310 308 307 305 305 304 304 301 298 297 295 294 293 292 291 290 289 289 289 289 288 288 287 286 286 286 286
312 312 314 314 315 315 313 310 306 307 309 314 313 314 312 307 312 314 314 312 310 307 306 303 303 302 300 300 299 297 295 295 294 293 292 291 290 289 289 289 288 288 287 287 286 285 285 286 286
310 312 312 315 316 314 314 312 310 311 313 313 315 315 313 311 312 312 307 305 305 303 301 301 298 297 296 296 296 295 294 293 293 291 290 290 289 289 288 288 288 287 286 286 285 285 286 286 286

GFSSGP_925_thetae_042.txt.gz
Theta_e
327 327 323 324 328 327 327 323 324 327 327 328 326 328 332 331 337 338 336 341 342 344 346 347 342 340 337 336 339 338 336 335 333 337 335 337 336 332 328 329 329 329 327 330 332 334 336 337 336
328 324 324 325 327 329 327 324 323 327 326 325 326 327 330 334 333 337 338 341 342 344 347 347 342 339 338 335 336 335 335 333 331 332 332 332 330 329 330 329 329 327 327 325 328 330 332 332 331
327 322 325 326 327 327 327 325 324 325 324 325 329 328 330 334 334 336 337 340 342 345 346 346 341 339 338 335 333 333 333 332 331 329 329 329 329 328 328 328 328 325 322 322 322 325 328 329 328
326 324 324 326 326 326 325 324 325 325 325 324 326 331 331 331 335 335 337 342 343 344 344 347 341 340 337 335 334 334 334 332 330 330 330 331 331 331 331 328 327 323 321 324 322 320 319 318 319
325 325 326 326 325 325 324 324 324 325 325 324 323 329 331 332 332 335 340 343 343 344 343 345 342 340 338 336 335 335 336 334 331 331 331 333 330 333 330 329 328 326 322 323 324 325 326 326 328
326 325 325 326 324 324 324 323 323 324 324 324 323 325 329 332 335 339 342 343 343 345 344 344 343 340 339 338 336 335 336 336 332 331 331 331 332 333 333 331 329 327 325 326 327 329 330 330 329
324 325 323 324 324 324 324 323 324 324 324 324 324 326 329 331 335 341 342 343 343 344 343 343 344 343 341 340 338 336 336 336 331 330 332 332 331 332 334 332 330 326 326 327 328 329 329 328 329
325 325 323 324 324 324 322 322 322 323 324 321 324 324 327 330 335 341 341 343 343 343 342 342 343 343 343 343 339 337 336 335 331 326 331 330 330 332 333 331 330 327 328 328 329 329 329 328 327
326 325 324 324 323 323 323 323 323 322 323 325 324 325 326 326 333 339 340 341 342 343 342 341 343 343 343 344 342 339 337 335 332 326 330 329 331 334 334 332 327 327 327 327 327 328 327 327 328
327 326 324 323 324 323 323 323 324 325 325 325 325 324 325 328 332 337 338 339 340 341 343 342 343 343 343 343 344 342 340 338 335 330 330 330 329 329 329 328 327 327 327 327 327 327 327 328 329
325 328 324 326 324 326 327 327 325 325 325 326 326 325 325 326 330 332 334 334 337 339 341 342 343 344 344 343 343 342 341 339 337 332 330 330 328 325 326 328 327 329 327 329 328 329 329 325 321
325 324 324 325 326 327 328 326 327 325 324 325 325 324 325 326 327 329 332 333 334 336 339 341 342 343 344 343 343 342 341 339 337 334 329 329 329 329 329 329 328 329 329 330 330 324 322 320 314
322 321 321 321 322 322 321 323 324 325 325 325 326 326 326 327 327 326 324 329 332 333 336 339 341 342 342 343 342 342 341 338 338 334 331 331 331 331 330 328 329 329 328 324 320 322 319 313 311
319 320 320 320 320 320 321 321 321 321 321 321 322 323 324 325 326 326 325 325 324 330 330 333 339 341 341 343 342 340 340 338 338 335 332 332 331 330 329 328 328 328 325 322 316 313 310 308 306
319 321 319 319 319 320 319 321 320 320 319 320 321 321 322 322 323 325 325 325 325 324 323 323 329 337 340 341 341 342 339 339 338 336 334 330 331 330 327 328 327 324 319 311 309 308 305 304 303
318 319 321 319 318 318 318 320 318 318 320 320 320 320 321 321 322 323 325 325 325 324 323 322 320 326 335 339 341 340 339 339 339 336 334 333 332 331 328 327 321 315 310 309 305 304 304 302 301
317 318 319 318 317 319 320 321 319 320 319 320 320 320 321 321 321 320 320 322 323 323 323 322 322 323 330 336 339 340 339 339 339 337 334 333 330 328 327 321 316 306 305 304 302 301 301 300 300
318 317 316 317 316 316 317 318 317 318 318 319 319 320 321 321 321 321 321 321 322 321 322 322 323 325 330 334 337 339 338 339 337 333 328 332 323 327 325 316 311 303 302 301 300 299 298 298 298
315 316 317 315 314 314 314 314 314 313 314 314 315 316 317 318 319 319 320 321 322 321 321 322 323 327 331 333 335 337 334 329 325 324 327 323 321 322 318 309 303 301 300 299 298 298 298 297 297
315 316 316 314 312 313 313 314 313 313 313 314 314 314 313 314 315 317 318 320 321 321 321 323 324 328 331 332 331 331 326 318 319 320 318 314 317 318 314 302 301 300 298 297 297 297 297 296 296
315 315 315 314 313 312 314 316 316 313 312 312 312 312 313 313 313 314 315 318 321 321 322 322 325 329 330 330 330 322 314 310 309 306 310 308 309 307 304 300 299 298 297 296 296 296 296 297 295
315 312 313 314 314 317 313 318 315 314 314 314 313 313 313 313 313 313 314 315 319 321 322 322 325 328 328 325 320 318 321 316 308 305 305 303 303 301 299 298 297 296 296 295 294 294 294 295 295
313 311 312 313 314 314 315 316 314 313 313 313 313 313 313 313 313 314 314 313 316 319 322 322 324 325 323 321 323 323 321 315 305 300 299 298 297 298 296 296 295 295 294 294 293 293 293 293 293
312 313 313 313 315 317 313 316 314 312 311 312 312 312 312 312 313 313 313 314 315 318 323 323 322 322 321 322 322 324 318 307 300 297 296 296 295 295 294 294 294 293 293 293 292 292 292 291 291
312 316 317 317 317 316 311 314 314 312 312 312 312 311 312 312 313 314 315 316 316 318 323 322 321 320 319 320 321 318 310 306 302 296 296 294 294 293 293 293 293 292 292 292 292 292 291 291 291
314 313 315 316 314 311 312 314 312 312 311 312 311 311 313 314 314 313 315 318 318 319 322 321 320 318 317 317 316 313 307 300 296 295 294 294 294 295 293 292 292 291 291 291 291 291 290 290 290
312 315 312 315 313 314 311 311 311 311 311 310 311 313 314 314 314 314 314 317 318 320 322 321 319 316 315 314 311 306 299 297 295 295 295 293 293 292 292 291 291 291 290 290 290 290 289 289 289
312 311 313 315 314 316 314 313 313 312 311 311 311 313 313 315 316 314 313 317 319 321 321 320 317 314 312 308 306 301 296 297 296 295 294 293 292 291 291 291 291 290 290 289 289 289 288 288 288
312 313 313 313 315 316 317 315 312 310 309 310 313 313 314 316 316 313 313 317 319 321 319 317 314 310 307 304 300 297 296 296 296 294 294 293 292 291 291 290 290 290 289 288 288 288 288 288 288
310 312 312 316 317 315 316 317 311 310 311 313 312 311 313 315 315 315 316 318 319 317 315 312 309 306 303 298 297 294 295 294 294 293 292 291 291 290 290 289 289 288 288 287 287 287 288 288 288

GFSSGP_925_thetae_045.txt.gz
Theta_e
329 328 326 325 328 329 329 328 324 326 326 326 329 330 333 333 336 340 339 342 342 347 347 347 343 340 339 340 341 341 339 338 339 339 339 339 337 332 330 330 330 329 329 332 334 337 337 338 337
329 326 326 327 328 330 330 327 324 324 327 327 328 330 331 334 334 340 341 341 343 345 347 347 343 340 337 338 341 340 337 334 335 336 337 337 333 330 329 330 330 327 327 328 330 332 333 332 332
327 325 327 328 328 328 328 328 325 326 326 328 330 331 333 335 335 338 340 341 343 345 346 346 342 338 338 335 338 337 335 333 332 332 331 331 329 328 329 329 328 325 323 322 326 328 328 327 327
327 325 325 328 328 327 326 326 325 326 326 327 329 332 332 334 336 337 340 340 343 344 346 346 341 340 338 334 336 336 334 332 330 331 331 330 331 331 330 329 326 322 324 323 321 322 322 321 320
326 326 327 326 325 325 326 325 325 326 326 327 327 331 334 334 335 338 341 340 343 343 347 347 340 340 337 335 335 336 335 332 331 331 332 332 333 333 332 328 328 322 326 327 327 326 325 324 328
325 325 327 327 325 325 324 325 325 325 326 326 326 329 331 335 336 339 341 341 342 343 345 346 342 340 337 336 336 337 336 333 331 332 333 334 333 334 334 331 329 324 325 326 328 330 330 328 327
326 326 325 325 324 324 324 324 324 325 325 325 325 327 330 333 338 340 341 341 342 342 342 344 345 343 338 338 336 336 337 335 332 331 332 333 332 334 335 332 330 325 326 326 327 327 327 327 328
326 325 325 324 323 323 323 324 324 324 325 324 325 326 327 335 339 340 340 341 342 343 341 343 344 344 343 342 338 336 336 335 328 330 331 331 330 332 334 332 330 326 328 327 329 329 328 327 327
326 328 326 325 322 323 323 324 324 323 323 324 324 325 328 329 337 339 340 341 341 342 341 341 342 343 343 343 341 338 337 335 330 327 330 329 332 335 333 333 329 326 327 327 327 327 327 327 329
327 325 324 321 322 323 323 324 324 324 324 323 325 325 326 328 334 337 339 340 341 342 341 340 342 342 343 344 343 341 340 337 334 329 330 331 330 332 333 331 326 327 326 327 327 327 328 329 330
326 326 323 323 326 325 324 323 324 325 326 324 324 325 326 328 330 335 336 336 338 340 341 341 342 342 341 342 343 342 340 339 336 332 331 330 329 328 327 328 327 328 327 330 330 330 329 324 323
324 323 323 324 325 326 327 325 325 324 325 324 325 327 326 327 328 331 333 333 334 337 339 341 341 342 342 342 341 341 342 339 337 334 331 330 328 326 328 329 329 330 329 330 330 325 321 319 317
323 323 322 322 323 324 324 324 325 325 325 324 324 325 327 327 327 327 328 332 332 333 336 339 340 341 343 343 342 341 340 339 337 336 331 330 330 330 330 329 329 329 329 327 324 320 318 317 315
321 321 322 322 321 322 322 322 321 321 321 322 323 324 324 326 326 327 327 327 329 332 333 336 339 340 342 343 342 342 340 339 337 336 333 331 332 332 331 331 329 326 328 325 319 318 315 313 310
321 323 321 320 320 321 321 322 322 321 321 321 321 321 321 322 323 325 326 327 327 327 331 331 335 338 340 341 342 341 340 339 337 336 333 333 333 332 331 327 326 323 319 317 315 312 310 308 306
320 320 322 320 319 319 319 322 320 320 320 321 321 321 321 321 321 322 323 326 327 327 326 326 325 332 337 339 341 340 341 339 338 337 335 333 333 332 327 323 321 317 316 313 310 308 307 305 304
319 321 321 320 319 319 320 322 321 320 321 320 320 320 320 321 321 320 322 323 326 326 326 326 324 324 329 336 339 340 340 338 338 338 336 334 333 329 323 320 320 313 311 309 306 305 303 303 302
320 320 319 318 319 318 318 319 319 319 319 320 320 321 321 321 321 321 321 321 322 324 325 325 325 325 325 330 337 339 339 338 339 338 336 335 331 324 321 321 312 309 307 305 304 303 301 300 300
317 318 319 318 317 316 316 316 316 316 316 316 317 317 317 318 320 320 321 322 322 322 324 324 325 325 326 330 335 338 339 338 339 338 335 332 326 317 318 314 308 306 305 304 303 301 301 300 299
318 318 318 316 316 314 315 316 315 316 316 316 316 316 316 316 317 318 319 320 321 322 324 323 324 325 328 331 334 336 338 334 330 326 327 322 316 312 311 311 306 303 302 301 300 301 300 299 297
316 317 317 317 315 314 315 317 318 317 317 316 316 316 316 316 316 316 316 318 320 321 323 323 324 325 329 331 334 335 329 320 319 317 313 311 313 314 311 306 303 301 301 300 299 299 299 299 298
317 315 314 315 316 319 315 321 317 316 316 315 315 315 315 315 315 315 315 316 317 320 323 323 324 326 330 332 333 331 323 317 311 310 308 307 305 306 304 302 301 300 299 299 297 297 297 297 297
315 313 313 314 314 315 316 318 316 315 314 314 315 314 314 314 314 314 315 315 314 316 322 324 324 326 331 331 332 327 322 321 309 307 305 304 302 300 300 300 299 298 298 296 296 296 295 295 296
313 313 313 313 315 319 316 317 316 313 313 313 313 313 313 313 313 313 314 314 315 315 319 324 325 327 330 330 326 323 326 313 305 302 301 300 299 298 298 298 297 297 296 295 295 295 294 294 294
313 315 319 321 319 318 313 314 314 313 313 313 313 313 312 312 313 313 314 315 314 315 316 324 325 326 328 326 326 325 325 310 305 302 300 298 297 296 296 296 296 296 295 294 294 294 294 293 293
314 315 318 320 318 316 313 314 313 313 313 312 313 313 312 312 313 315 316 316 315 317 317 323 325 325 324 325 325 327 316 310 305 302 298 297 297 297 296 296 295 294 294 293 294 293 293 292 292
315 316 313 315 313 315 312 311 312 313 313 312 312 312 312 313 314 315 316 316 316 318 318 322 324 323 323 324 325 318 313 307 301 298 297 296 296 295 295 294 294 293 293 293 292 292 292 291 291
313 312 314 315 316 316 315 315 316 315 314 313 312 312 312 313 314 315 315 316 315 317 319 323 323 321 321 322 319 312 304 299 296 296 296 296 295 294 294 294 293 292 292 291 291 291 290 290 290
314 314 313 313 315 317 319 317 315 313 313 311 311 312 313 313 314 315 315 314 315 318 321 322 322 320 319 316 309 303 299 295 295 295 295 294 294 294 294 293 292 292 291 290 290 290 289 289 290
312 313 313 316 316 316 317 318 313 313 312 311 311 312 312 312 315 315 316 316 318 321 323 322 319 316 313 308 303 299 295 295 295 295 294 294 294 293 293 292 292 291 290 289 289 289 289 289 290

GFSSGP_925_thetae_048.txt.gz
Theta_e
324 330 327 327 331 329 329 329 327 325 325 324 327 329 328 329 338 347 342 343 349 348 349 343 343 341 339 338 339 340 339 339 340 340 340 338 336 331 331 330 329 328 332 334 337 338 336 338 337
324 330 326 328 330 330 329 327 327 323 326 325 325 327 328 333 339 338 341 343 348 348 348 345 342 340 337 339 341 339 338 338 339 338 339 337 332 331 330 330 328 327 329 331 333 334 333 332 331
323 328 327 330 328 329 327 326 325 323 325 326 326 325 328 336 336 339 341 343 346 348 348 344 341 339 336 339 339 337 334 334 335 335 337 333 331 329 329 329 324 322 324 327 329 330 329 328 327
327 327 325 326 328 326 325 325 326 326 325 326 326 330 331 335 336 341 340 342 345 347 347 343 340 337 335 333 335 335 334 332 332 331 331 330 329 329 330 325 319 321 323 324 326 327 326 325 324
324 328 327 325 325 325 324 323 325 325 325 326 326 327 334 335 338 340 340 342 344 348 347 342 339 339 335 332 334 335 334 331 331 332 331 332 333 332 331 328 322 324 326 326 325 323 321 320 326
324 325 327 328 326 323 322 322 324 325 324 324 325 324 334 335 338 340 340 341 343 348 346 341 340 339 335 333 333 334 333 332 332 332 333 334 334 334 333 330 325 324 326 328 328 327 326 324 325
325 325 325 324 324 323 323 322 322 323 323 323 324 325 330 333 339 341 340 341 342 347 347 343 340 339 336 335 334 335 334 331 331 333 333 333 332 334 334 331 327 324 325 325 324 325 324 325 326
323 326 327 324 323 323 322 322 323 322 322 323 323 325 329 337 339 341 340 341 342 343 345 343 343 340 337 337 335 335 334 331 328 331 332 331 331 333 335 331 328 325 325 325 327 326 326 326 327
323 326 327 326 324 323 321 323 323 323 322 322 323 323 327 335 339 340 340 341 342 342 343 344 344 342 341 339 337 336 335 333 326 329 330 330 332 333 334 331 328 324 325 326 326 326 327 327 329
325 329 329 325 322 323 323 323 323 323 322 322 322 322 328 329 336 339 339 340 341 342 341 343 344 342 341 341 340 337 336 335 329 325 329 329 332 335 333 333 328 325 326 326 326 327 329 329 329
324 327 324 322 321 325 325 324 323 323 324 323 321 322 324 328 330 335 337 339 341 341 341 340 343 343 341 343 342 340 339 336 334 328 327 329 331 332 333 327 325 326 325 328 329 330 326 326 323
324 324 323 324 323 325 325 324 325 322 322 322 321 322 325 325 326 329 333 336 339 340 341 340 341 342 342 340 341 341 340 338 335 332 331 330 329 328 326 328 328 329 329 330 327 325 325 323 317
321 321 322 322 322 322 324 325 324 324 322 321 322 322 325 325 325 326 330 332 333 337 340 341 341 342 342 341 341 341 340 340 336 335 331 330 328 326 327 329 329 329 329 329 327 323 320 317 315
322 322 322 321 321 321 322 321 321 320 319 320 321 321 321 323 324 325 326 327 329 332 338 340 340 341 342 342 342 341 340 340 337 335 332 330 328 329 330 329 329 329 329 326 322 318 316 313 311
321 322 321 321 320 321 320 321 321 319 319 319 318 319 319 320 322 323 326 326 327 327 332 336 339 340 342 342 342 342 341 338 338 335 334 330 331 331 330 330 330 327 327 321 317 316 311 309 307
322 322 323 319 320 319 319 321 319 318 318 318 318 318 318 318 319 320 322 324 325 327 327 332 336 339 340 342 342 339 341 339 337 336 335 331 333 332 331 329 326 321 316 315 313 309 308 306 304
319 319 320 320 319 319 318 320 319 318 319 318 317 317 317 318 317 319 320 322 323 326 327 327 331 335 338 340 341 340 339 341 337 336 335 332 333 332 330 326 324 317 314 312 310 307 305 303 302
319 319 318 318 319 318 318 318 317 316 316 317 317 317 316 317 317 319 320 320 322 323 327 327 326 325 331 338 341 341 338 340 337 336 336 334 333 332 327 323 319 314 312 309 305 304 302 301 300
317 318 318 317 316 315 315 315 314 314 314 314 315 315 316 317 317 319 320 321 320 321 323 327 326 325 324 326 338 340 340 339 338 337 336 334 333 329 323 320 313 312 308 305 303 302 301 300 298
316 318 318 316 315 315 314 314 314 314 313 313 313 313 314 314 313 314 318 320 321 321 322 322 325 325 324 324 330 338 339 338 338 338 336 334 330 325 319 314 311 308 306 303 301 302 300 299 297
317 317 316 315 314 313 313 315 314 315 314 313 314 313 313 313 313 312 312 316 318 320 321 322 323 325 325 326 331 336 336 335 334 334 332 329 322 319 313 310 309 306 304 301 301 300 300 299 297
317 315 315 315 315 317 313 317 314 313 313 314 312 312 312 313 313 312 312 312 315 318 320 321 323 324 324 327 333 335 331 325 325 325 321 316 316 315 310 308 305 303 302 301 299 298 297 298 297
315 313 314 314 314 313 314 314 314 314 313 312 311 311 311 311 311 311 311 313 314 314 319 320 321 323 324 328 333 332 328 323 319 317 316 315 312 309 306 304 302 301 300 298 297 296 296 296 296
313 313 314 313 314 317 314 314 314 313 312 310 309 311 311 311 311 312 312 314 314 315 314 315 322 324 324 330 333 330 324 320 314 310 310 307 305 302 301 301 300 299 298 297 296 295 294 294 293
314 314 315 319 317 314 313 315 314 312 311 311 310 312 311 311 310 310 311 310 312 313 315 314 318 324 326 332 331 327 320 320 312 308 306 303 300 299 299 299 298 297 297 296 295 294 293 293 293
315 315 316 317 317 316 313 313 310 311 310 312 312 312 311 310 308 311 313 311 313 314 314 315 318 325 329 331 327 324 319 313 309 308 305 301 299 298 298 297 297 296 295 294 294 293 293 292 292
315 316 313 314 312 310 310 309 308 309 309 309 310 310 309 308 309 313 312 312 313 314 315 315 320 325 328 328 325 318 314 309 306 304 301 299 298 297 297 296 295 294 294 293 293 292 292 291 291
313 312 313 311 308 312 313 311 312 312 312 310 309 310 309 310 312 312 312 312 312 313 317 316 322 325 326 325 320 311 309 307 304 300 300 298 297 296 296 295 294 293 293 292 292 291 291 290 290
314 315 312 312 311 311 314 313 312 312 311 310 309 308 309 312 310 311 312 313 314 314 318 318 324 324 324 321 311 307 304 302 299 297 297 296 295 295 294 294 293 292 291 291 291 290 290 289 290
313 313 312 309 309 311 311 314 312 310 311 312 311 309 308 310 310 312 312 312 314 316 319 322 323 321 314 305 303 299 298 296 295 295 295 295 295 294 293 293 292 291 290 290 289 289 289 289 289

GFSSGP_925_thetae_051.txt.gz
Theta_e
322 323 329 325 324 323 326 328 324 322 323 322 324 325 327 328 336 342 341 342 346 343 343 344 344 340 338 338 342 341 341 340 340 341 340 337 334 333 332 330 329 333 335 338 334 336 338 338 337
322 322 327 321 325 327 325 323 324 321 324 322 323 324 325 341 337 339 345 346 346 343 344 344 342 339 337 339 341 340 340 340 339 340 339 335 333 332 330 328 328 330 334 337 337 336 337 334 333
322 326 322 324 323 326 326 322 321 321 322 324 324 323 326 335 336 339 345 348 346 344 344 343 340 338 336 340 339 337 337 338 338 338 337 334 332 330 330 328 327 327 331 333 333 331 331 329 329
326 323 320 323 325 323 323 322 321 323 323 324 324 327 331 334 337 341 346 347 346 345 345 342 339 337 334 337 334 331 333 335 335 337 334 331 329 330 329 326 326 326 325 329 329 329 328 327 325
322 321 324 323 321 321 320 320 320 323 322 324 325 325 333 338 340 341 346 346 347 347 343 341 338 336 331 330 330 331 332 333 332 332 331 330 331 332 328 322 324 325 326 328 328 329 325 325 327
320 320 324 328 323 320 319 319 319 322 322 322 323 323 333 339 339 340 343 346 346 347 342 340 338 337 331 330 330 331 331 332 332 331 333 333 333 333 330 324 322 325 328 329 328 327 324 322 324
320 319 322 322 321 321 321 320 319 320 322 322 322 323 331 333 339 340 341 344 347 346 342 339 339 338 333 332 331 329 329 332 332 332 333 334 335 333 331 328 324 325 324 323 322 322 322 324 325
318 320 324 320 322 320 318 319 319 319 320 320 321 321 337 337 340 339 340 346 347 345 343 340 339 337 334 334 333 331 328 331 332 333 334 332 332 334 331 330 324 324 323 323 323 324 325 326 327
319 322 324 325 324 322 319 319 321 320 320 320 321 323 331 339 340 340 340 346 347 346 344 341 339 337 336 335 334 334 331 326 330 331 332 331 331 334 334 330 324 324 324 325 325 325 326 328 328
319 323 324 323 321 320 322 322 320 321 321 320 321 324 330 338 339 338 339 339 341 344 343 341 340 339 337 337 336 335 334 329 325 329 329 330 332 332 334 331 326 324 324 325 326 327 328 327 328
320 323 324 324 322 322 324 323 322 321 322 319 320 319 324 329 334 337 338 340 341 342 344 343 341 340 339 339 337 336 335 333 326 324 328 329 333 334 332 332 329 325 325 327 328 329 327 323 323
322 321 321 322 322 322 324 323 324 323 320 319 319 320 322 322 326 331 336 339 340 342 340 343 343 341 340 340 340 337 337 335 332 326 323 328 331 334 333 328 324 326 326 329 329 328 325 322 317
319 319 320 320 320 319 321 323 323 321 319 318 318 319 321 321 322 326 331 335 339 340 341 340 343 342 341 341 341 339 338 337 335 333 329 327 330 330 330 327 328 329 328 329 326 324 323 318 315
321 320 319 319 319 318 320 320 320 320 318 316 316 316 317 318 321 324 324 325 329 338 341 340 341 342 341 341 341 339 339 337 336 334 331 329 328 328 325 327 329 329 329 327 324 323 319 316 314
321 321 319 319 319 319 318 320 319 317 317 317 316 315 316 315 318 320 324 324 325 326 339 341 340 341 342 342 340 339 340 338 337 335 333 330 329 327 327 329 328 328 325 325 321 317 315 313 309
321 320 323 319 319 319 318 321 318 317 316 317 317 317 314 315 315 318 320 322 325 325 326 340 340 341 341 341 341 340 340 340 338 335 334 331 329 329 329 329 329 327 326 321 317 314 311 308 306
318 318 320 320 317 319 319 320 318 316 315 314 315 315 316 316 315 317 319 320 321 322 324 332 339 340 341 342 342 341 341 340 338 336 334 332 330 331 330 329 329 325 319 316 314 310 308 305 303
318 319 316 316 317 317 317 316 315 315 313 312 312 312 312 315 316 316 317 319 320 320 321 324 330 339 339 341 341 341 340 340 338 337 334 334 331 332 331 329 325 320 317 314 312 308 304 302 301
317 316 317 315 314 313 314 314 312 311 311 312 312 310 313 314 313 316 317 318 319 320 320 322 326 333 337 340 341 340 338 338 339 337 334 334 331 332 332 328 323 317 316 313 309 304 303 301 300
317 315 316 315 314 313 312 313 312 312 312 312 312 310 311 313 312 311 315 317 317 319 319 320 324 326 335 338 340 340 340 338 339 337 335 335 333 333 332 327 320 315 313 309 305 304 301 299 297
316 316 315 315 313 311 311 312 312 312 311 311 312 311 310 311 310 309 309 313 315 317 319 320 321 324 325 328 338 339 338 337 337 336 335 334 333 332 331 323 316 312 312 307 304 303 302 300 297
316 312 314 314 313 315 311 315 311 311 310 311 309 309 311 310 308 309 309 309 313 314 316 318 320 321 324 323 326 337 336 332 334 335 334 333 332 328 324 318 311 307 306 303 302 301 301 300 298
314 312 312 312 312 310 311 312 310 309 312 311 309 306 307 308 309 310 308 310 313 314 314 315 318 320 322 324 324 329 332 332 331 329 329 324 321 321 315 313 310 307 304 302 301 299 298 298 297
312 312 312 312 311 311 310 312 310 311 311 310 308 307 308 308 308 308 309 310 311 312 312 313 316 319 321 323 326 329 332 330 321 316 315 314 313 313 312 308 305 304 302 300 298 298 297 296 295
312 311 306 318 316 311 311 312 310 310 310 310 308 307 308 307 306 307 309 309 312 313 314 313 313 315 319 322 328 330 330 329 324 315 312 310 308 307 304 305 302 301 300 298 297 296 295 294 293
313 311 307 311 311 315 311 314 311 308 309 307 309 309 307 309 306 308 310 309 311 312 313 313 313 314 315 324 328 329 327 321 319 313 311 309 305 304 302 301 300 299 298 296 295 294 293 292 292
314 312 310 309 309 305 309 307 306 307 307 306 307 308 306 305 305 308 310 310 312 313 313 313 313 314 318 327 326 323 320 321 318 312 309 307 303 301 300 300 299 297 296 295 294 293 292 292 291
311 310 309 302 304 309 310 309 310 311 310 308 307 307 306 307 306 308 310 311 312 312 314 314 313 314 325 325 323 317 318 318 314 309 305 303 300 298 299 298 297 295 294 293 293 292 291 291 291
314 315 311 307 306 306 310 311 307 310 310 310 309 309 307 307 306 306 309 311 312 312 314 315 313 319 324 318 313 315 312 311 307 305 302 300 297 298 298 297 295 294 293 292 292 291 290 290 290
311 312 310 302 303 303 309 312 309 309 309 309 310 312 311 310 308 305 309 311 311 313 315 316 319 320 313 311 312 308 307 304 303 301 298 297 296 296 295 294 293 292 291 291 291 290 289 289 289

GFSSGP_925_thetae_054.txt.gz
Theta_e
324 322 324 323 322 321 325 327 323 324 321 322 322 324 327 330 334 335 340 343 345 344 343 343 343 342 343 343 343 341 341 340 340 339 338 336 336 333 331 332 333 333 335 334 332 336 339 339 337
323 322 325 318 323 325 324 321 323 322 320 320 322 322 326 341 337 343 344 345 344 342 343 343 342 340 340 341 342 340 340 340 341 340 338 335 335 332 330 328 331 333 336 335 334 339 339 338 335
322 326 321 322 322 325 323 321 321 320 319 321 324 322 328 336 337 343 344 346 343 342 343 343 340 338 339 342 341 341 341 340 340 340 337 334 333 331 329 328 329 333 335 335 337 336 334 333 329
324 322 318 323 326 322 322 321 319 319 320 322 323 326 331 334 338 340 345 345 343 343 344 343 340 338 338 341 340 340 340 339 339 339 336 334 331 330 328 327 327 332 333 333 332 330 330 330 330
322 318 323 323 323 320 319 318 319 320 319 323 323 325 335 337 338 345 346 346 343 343 343 342 339 337 339 339 337 336 338 337 337 337 334 331 331 330 327 326 326 327 331 331 331 331 328 327 325
319 318 324 324 321 320 317 317 318 318 318 320 322 329 332 337 341 347 347 346 343 343 342 340 339 336 334 333 329 329 333 335 335 334 331 331 333 332 327 328 327 327 329 330 330 327 321 318 320
319 318 324 322 322 321 320 318 317 317 317 320 319 323 332 335 340 346 346 346 344 343 341 339 337 335 329 328 328 326 329 331 331 331 332 333 332 331 328 325 328 329 330 327 324 323 321 323 324
316 318 322 320 321 320 318 319 317 316 317 318 318 329 335 333 338 345 345 346 346 344 341 339 337 335 330 330 329 326 329 330 330 333 333 333 332 330 330 324 324 325 323 322 321 322 324 325 326
316 320 323 323 320 320 319 321 318 318 318 320 319 324 331 337 337 342 345 345 344 343 341 339 338 336 332 331 331 328 329 331 331 332 332 332 334 333 331 327 322 323 322 323 324 325 326 327 326
318 320 322 321 321 321 320 322 321 319 319 319 322 326 336 338 337 338 344 344 343 343 342 340 339 337 334 333 333 331 327 330 331 332 332 331 331 333 333 329 323 323 324 325 326 326 327 328 326
318 322 321 322 322 322 323 322 321 321 321 318 320 328 327 334 336 336 341 344 344 343 342 341 339 338 335 335 334 334 331 327 329 330 330 330 330 332 334 330 326 324 324 326 327 327 328 324 326
322 319 320 321 321 321 322 322 323 322 320 319 318 317 319 325 326 335 337 340 343 345 344 341 340 338 336 336 335 334 334 331 326 326 328 329 331 333 334 331 331 324 325 326 328 328 324 321 320
318 319 319 319 319 319 318 321 322 321 319 317 316 317 318 317 320 327 334 337 340 342 343 342 340 339 338 337 337 335 335 334 331 325 325 329 330 332 332 332 326 325 325 327 328 327 322 318 315
319 318 318 318 319 318 319 318 318 318 317 316 316 316 315 316 317 320 323 331 335 339 340 342 342 340 339 339 338 338 336 336 335 331 323 326 329 331 333 331 327 328 327 328 328 323 321 317 313
320 322 319 319 319 319 319 320 318 317 316 316 315 314 315 313 316 316 319 322 324 332 339 339 342 342 340 340 339 339 338 337 336 334 331 325 328 330 331 328 328 328 329 328 324 320 317 316 313
320 319 322 319 319 318 318 322 318 315 315 315 314 314 314 314 314 317 318 319 320 323 327 338 340 341 341 340 340 340 339 338 337 335 334 331 329 329 326 326 327 328 328 325 321 317 315 313 309
317 320 319 319 317 318 318 320 317 317 313 314 312 312 313 314 313 315 318 319 319 319 320 326 337 340 341 341 340 340 339 339 338 336 335 333 330 328 327 326 328 326 325 322 320 317 314 309 304
320 319 316 317 314 316 316 318 316 313 313 313 312 310 310 312 314 315 316 318 319 319 319 319 331 338 339 340 340 340 339 339 338 337 335 334 330 329 328 328 327 326 324 320 317 315 310 305 302
316 317 316 314 314 313 312 312 312 312 310 311 311 309 310 311 312 313 315 316 317 318 318 319 319 335 338 339 339 339 339 340 339 338 336 334 332 330 329 329 327 325 323 320 315 312 306 302 300
318 318 316 314 313 313 311 311 311 311 311 311 312 312 310 309 309 309 313 315 316 316 317 318 319 319 336 338 338 338 338 340 340 338 337 334 333 331 330 330 327 324 319 315 313 311 303 301 299
315 315 315 315 312 310 310 311 310 309 309 310 311 310 310 310 310 308 308 311 314 314 316 317 317 319 323 337 338 338 337 336 338 337 336 335 333 332 331 330 329 323 317 315 312 307 304 302 297
316 312 313 313 313 313 310 313 310 309 309 308 308 307 309 309 307 308 307 308 312 313 315 316 317 318 320 330 338 336 335 334 335 336 337 336 332 331 331 330 327 320 316 314 308 303 303 303 300
314 311 312 311 311 309 310 312 309 308 311 311 309 305 304 307 307 306 305 308 311 312 313 313 314 315 319 322 330 335 334 334 335 335 335 335 331 327 329 327 322 316 312 309 304 303 303 301 300
311 311 310 310 308 305 309 311 309 310 310 309 307 306 305 306 306 305 307 309 310 311 312 312 312 314 315 320 322 328 333 333 331 330 328 327 325 323 322 318 314 311 308 305 304 301 300 299 298
310 307 303 305 305 308 309 311 310 309 309 308 308 306 305 304 304 306 308 307 310 311 312 313 313 312 313 316 321 326 331 333 332 329 325 320 318 316 316 313 309 306 307 305 301 299 298 296 295
311 308 306 307 312 312 309 313 310 308 306 305 305 304 304 304 303 304 308 308 310 311 312 312 312 313 313 313 317 323 326 329 327 325 323 319 314 312 310 309 306 306 304 301 299 298 295 294 293
313 309 308 306 303 303 308 306 304 307 306 306 306 306 306 305 305 304 307 309 310 311 311 311 312 313 313 313 316 323 325 323 324 321 319 314 311 309 306 305 303 301 300 299 297 295 294 292 292
310 309 309 299 301 306 308 308 307 309 310 308 307 307 308 310 309 306 307 309 311 311 310 311 313 314 314 313 318 322 323 321 320 317 313 311 309 306 304 303 301 298 298 296 295 293 292 292 291
313 312 307 305 304 305 308 309 305 308 309 308 307 307 309 309 308 306 307 307 311 311 310 310 313 315 314 318 319 316 315 315 315 311 309 308 306 304 301 300 299 296 295 294 293 292 291 290 290
310 311 307 302 301 299 309 309 308 307 307 307 309 310 311 309 309 307 304 306 308 309 312 314 316 317 318 317 314 312 312 310 309 308 306 304 302 299 299 298 296 295 294 293 291 290 291 293 291

GFSSGP_925_thetae_057.txt.gz
Theta_e
327 323 322 322 321 320 324 324 321 322 323 320 319 322 326 328 332 332 339 345 345 344 345 344 344 344 344 344 344 343 342 341 340 339 339 338 336 335 335 336 336 334 332 335 334 339 339 338 336
324 322 324 317 321 323 322 320 322 320 320 317 320 321 329 338 337 342 343 345 344 344 344 344 344 342 344 343 342 342 341 340 339 339 337 337 335 333 331 333 332 333 332 333 335 337 338 339 333
321 324 320 322 321 322 320 319 319 320 317 319 321 321 327 335 336 341 342 346 344 344 343 343 342 342 343 342 341 341 341 341 340 340 337 336 334 332 329 330 331 333 334 333 336 338 338 334 329
322 322 318 323 325 322 320 320 318 318 319 317 321 332 331 333 338 341 344 345 343 343 342 342 340 340 340 340 340 340 341 340 340 339 336 335 333 330 329 329 332 334 333 334 335 334 332 329 328
322 317 324 324 324 322 318 318 318 319 318 317 318 325 334 336 338 342 346 345 343 344 342 341 340 338 340 340 340 340 340 339 339 338 336 333 331 329 328 327 330 332 333 333 332 330 328 326 326
319 317 322 325 323 320 317 317 318 318 316 316 320 330 333 335 343 346 346 345 343 343 343 341 340 338 340 342 339 339 338 338 339 337 335 332 332 328 325 326 326 331 332 332 330 329 328 324 324
319 320 324 321 321 318 319 316 318 318 316 316 318 330 331 334 345 346 346 344 343 343 343 340 339 337 337 339 334 333 335 335 336 335 332 332 331 326 325 327 327 329 331 331 329 325 322 323 324
315 317 321 320 320 320 318 317 317 316 317 315 318 332 338 333 345 347 346 344 344 343 341 339 338 336 333 330 328 328 332 333 334 332 330 331 329 328 324 324 328 330 329 326 325 323 324 325 325
314 320 322 320 320 321 318 321 319 317 316 317 317 326 328 336 344 345 344 344 345 344 341 340 338 336 330 329 328 327 329 329 331 331 330 330 329 329 328 322 323 324 323 323 323 324 325 326 326
318 319 321 319 318 321 319 321 320 320 317 318 322 329 333 335 342 343 343 342 341 343 342 341 338 336 331 330 329 326 328 328 330 333 333 333 333 333 331 327 322 322 322 324 325 326 327 327 326
318 320 319 321 321 321 321 320 321 321 321 318 319 317 322 333 339 343 343 343 343 343 342 341 338 336 333 331 330 328 327 330 330 331 332 331 332 332 333 330 324 324 324 325 326 327 327 327 327
321 318 320 320 321 320 321 320 322 321 320 318 318 317 317 323 331 336 342 343 343 342 343 341 339 337 335 333 332 331 327 328 330 331 331 332 330 330 333 332 327 323 324 326 327 327 326 323 326
319 319 319 319 319 319 318 318 320 320 318 317 316 316 316 316 317 326 336 341 342 342 342 342 340 339 336 335 333 333 331 328 325 328 330 330 330 330 332 333 330 326 324 325 327 327 323 319 318
318 318 318 317 318 318 319 318 317 317 316 316 315 316 314 314 315 317 323 331 338 343 343 342 341 340 338 336 335 334 333 332 330 326 324 328 329 330 332 332 331 328 324 326 327 328 322 317 313
320 321 319 318 318 319 317 319 317 316 315 315 315 313 313 312 315 314 317 321 331 338 342 342 342 341 339 337 336 336 335 334 333 332 329 323 327 329 331 332 331 326 326 326 327 327 319 314 311
320 319 322 319 318 318 318 320 318 315 315 315 314 313 313 312 313 316 317 317 318 322 333 338 341 341 340 338 338 337 336 336 335 335 333 328 322 327 329 332 332 327 327 327 327 323 317 313 311
317 319 320 319 317 318 318 319 317 314 313 314 312 312 311 311 311 313 316 316 317 318 319 328 338 341 340 339 339 338 338 337 336 336 335 332 328 325 328 330 330 327 327 328 325 320 315 312 309
320 319 317 317 315 316 317 316 316 315 313 313 312 312 311 311 311 312 313 315 317 316 317 318 328 337 340 340 339 339 338 338 338 337 336 335 332 329 328 328 326 325 327 325 322 318 312 311 306
315 316 317 314 313 312 312 311 311 310 309 309 310 311 311 310 311 311 313 314 316 316 315 316 317 324 338 338 339 339 338 338 338 338 337 336 334 333 329 328 325 327 326 324 319 313 312 307 302
318 318 317 314 312 312 311 310 310 310 310 310 311 311 310 308 307 307 310 312 314 316 315 315 315 318 331 337 338 338 338 338 339 338 338 336 335 333 330 328 327 327 326 321 317 315 310 303 300
317 316 315 315 312 309 309 310 310 309 309 308 309 309 309 309 309 308 306 310 312 313 315 316 315 315 319 334 337 337 337 336 336 336 337 337 336 333 330 328 328 328 325 321 317 315 313 303 299
317 312 313 312 313 314 309 312 309 308 307 307 306 305 306 306 307 306 306 306 309 311 313 313 314 315 315 321 336 336 335 334 334 335 336 337 336 333 330 329 329 328 324 320 316 312 310 305 301
314 311 311 310 310 309 310 312 309 306 310 309 307 305 303 302 303 305 305 306 308 309 310 311 312 313 315 317 332 336 333 333 333 334 334 335 335 332 330 329 328 326 320 316 315 309 305 304 303
310 309 308 308 307 305 308 310 307 308 309 306 306 303 302 301 302 303 306 306 307 309 310 312 312 312 312 314 321 333 334 333 333 332 331 333 333 331 330 328 326 321 319 314 312 307 304 304 302
308 308 306 305 304 308 308 311 309 308 308 308 306 303 304 304 304 304 303 305 308 309 310 311 311 312 312 313 315 321 331 332 333 332 330 328 328 327 327 326 323 319 314 311 307 304 303 300 299
311 308 306 306 308 310 308 312 310 306 304 303 305 306 306 305 303 305 304 306 308 309 310 310 311 312 312 312 312 315 320 326 330 330 329 327 325 323 322 321 319 314 309 306 304 301 299 298 295
312 307 307 306 302 304 307 305 302 307 306 306 306 307 307 308 307 305 305 308 309 310 311 310 310 311 311 311 311 312 316 323 326 328 326 323 323 321 317 315 311 308 304 303 300 297 297 294 293
310 308 308 300 303 307 306 306 305 308 308 307 306 305 306 309 309 307 304 306 309 310 311 311 310 310 311 312 313 312 314 319 324 324 321 320 317 314 313 311 308 304 303 299 297 295 293 292 292
311 309 305 305 304 306 309 306 303 305 308 307 305 305 307 308 307 307 306 307 307 307 306 309 309 310 312 314 314 314 316 320 320 318 316 314 312 310 309 307 305 303 299 297 295 293 292 291 291
309 310 306 303 302 299 306 306 306 306 305 307 306 307 309 309 308 306 305 308 309 309 312 312 313 314 315 315 315 314 315 314 314 312 310 309 307 305 305 303 300 297 296 294 292 292 292 292 292

GFSSGP_925_thetae_060.txt.gz
Theta_e
328 324 322 321 321 319 323 321 319 321 321 318 319 321 323 326 332 333 338 343 343 344 345 344 346 344 344 344 345 344 343 341 340 341 340 338 338 337 338 338 337 334 333 335 338 339 339 337 335
325 322 322 315 320 321 320 319 321 320 319 315 316 322 326 333 337 339 342 344 343 344 345 344 344 343 344 344 344 343 342 340 339 339 338 337 335 334 335 334 333 331 334 334 336 339 337 336 330
322 323 320 321 319 321 319 317 317 319 316 317 319 319 324 333 336 340 342 344 343 344 345 343 343 344 343 343 342 342 340 339 338 337 336 336 334 332 331 331 331 332 331 333 335 337 338 332 327
322 321 316 322 324 321 317 319 316 317 318 317 319 322 327 332 337 340 342 344 343 345 344 344 343 343 342 341 341 341 339 338 338 338 336 335 334 330 330 331 332 333 331 333 338 337 334 329 326
320 317 323 324 323 321 318 317 317 319 318 317 317 319 329 334 338 340 344 345 344 344 343 343 341 342 340 339 339 339 339 341 338 338 336 335 332 330 329 330 332 333 332 335 335 332 329 327 325
319 316 321 325 324 321 318 317 318 318 316 315 318 325 331 336 342 345 347 345 344 346 343 342 340 339 339 339 340 340 339 339 340 338 337 334 332 329 328 328 331 333 333 333 332 330 328 325 326
320 320 322 320 322 320 318 314 316 316 317 316 318 329 328 335 344 346 347 344 346 347 342 341 341 338 338 339 339 339 339 338 337 337 335 332 330 328 327 327 328 332 332 331 329 327 322 324 327
314 319 321 320 320 320 317 316 317 316 317 314 315 321 328 332 347 345 345 345 346 345 342 340 340 338 337 338 338 337 337 336 336 335 333 331 327 323 325 324 327 330 331 329 323 323 325 328 326
312 319 320 320 320 320 317 318 318 316 316 315 316 321 327 335 345 344 344 345 344 344 343 341 339 337 335 334 331 330 333 334 334 333 331 330 328 326 322 323 327 328 326 324 323 325 327 326 326
317 318 320 317 317 318 319 320 320 320 318 318 318 321 332 341 344 342 341 341 342 342 344 341 339 337 335 330 328 327 328 330 332 331 330 330 329 329 328 321 323 325 325 324 325 327 327 326 325
317 319 317 320 319 320 320 320 319 321 321 317 319 317 326 338 342 341 341 341 341 340 341 343 339 338 335 330 329 327 325 327 328 330 330 330 331 332 332 328 323 324 324 326 328 327 327 326 325
320 318 318 319 320 320 320 319 320 320 319 317 318 317 316 330 333 339 340 341 341 341 341 341 340 338 336 331 330 328 325 327 327 330 332 332 332 333 332 332 327 323 324 326 327 327 327 325 326
319 319 318 318 318 318 318 318 319 319 317 316 316 316 317 315 316 325 337 341 340 340 340 340 342 339 337 333 331 330 328 326 327 328 331 331 331 330 331 332 330 323 324 325 326 327 326 322 325
317 319 318 317 317 317 318 317 316 316 314 315 315 315 315 315 314 316 319 332 341 341 340 342 343 339 338 335 334 332 331 328 325 327 329 330 331 330 329 331 332 329 324 325 326 327 324 319 316
318 320 318 317 317 318 316 318 317 315 315 314 313 313 313 313 313 314 317 318 329 339 342 342 342 341 339 338 336 334 332 331 329 326 326 328 328 329 329 331 332 330 328 325 326 327 323 316 313
320 319 323 319 317 317 318 318 316 314 314 315 313 311 311 312 313 315 316 316 317 322 337 341 343 342 340 339 337 336 334 333 333 331 329 326 325 327 328 331 332 331 329 325 325 326 323 315 312
320 320 320 321 317 318 317 319 316 314 313 313 312 311 311 311 310 313 315 315 316 316 319 332 340 341 341 340 339 337 336 335 334 334 333 332 329 324 327 328 329 331 329 326 326 325 321 314 310
321 319 318 320 315 315 317 315 314 313 313 312 311 310 310 310 311 313 313 315 315 315 316 317 326 335 339 340 338 337 336 336 336 335 335 334 333 330 323 326 328 331 330 326 325 325 317 313 310
316 317 317 314 313 313 312 310 310 309 308 308 309 309 310 311 310 311 313 313 314 314 315 315 316 322 338 339 337 337 336 336 337 336 336 335 335 332 327 324 328 330 330 326 326 319 315 311 306
317 317 317 314 312 312 311 310 310 310 309 309 309 309 308 308 307 306 309 311 311 313 314 314 315 316 329 337 337 337 337 336 337 337 337 337 336 334 332 329 327 328 327 324 324 321 312 307 303
318 318 316 316 311 308 308 309 309 308 308 308 307 307 306 306 307 307 305 308 309 310 312 313 314 314 317 330 335 337 337 336 334 336 336 337 336 335 334 332 328 328 325 325 324 318 316 308 302
318 313 313 312 313 315 308 314 309 307 306 306 304 302 302 301 300 302 304 305 307 309 310 311 312 313 314 324 334 335 335 335 334 335 336 336 336 336 335 333 331 328 325 324 323 319 314 311 304
314 311 310 309 309 309 310 311 309 306 309 304 303 302 302 303 302 303 304 305 306 307 307 309 310 311 313 314 331 334 334 334 334 334 334 333 334 335 334 333 331 328 325 323 322 319 311 310 308
308 308 307 305 306 304 308 309 306 307 307 307 304 304 304 304 305 305 305 307 308 308 308 308 308 310 311 313 316 329 332 333 333 333 333 333 332 333 332 332 330 329 325 323 321 318 313 310 307
309 309 304 303 304 307 308 310 308 307 307 307 306 306 305 305 305 305 306 304 307 309 309 310 309 309 310 311 312 316 326 331 332 332 332 330 328 329 331 331 329 326 324 320 318 314 311 307 304
309 309 307 304 308 309 307 311 308 304 302 304 306 305 306 307 306 305 304 306 308 309 310 310 309 310 310 310 311 314 318 327 331 331 330 329 328 326 328 326 324 322 319 314 312 311 308 304 300
310 306 305 304 301 303 307 305 302 305 306 306 305 306 305 306 307 306 305 306 307 310 310 308 307 309 309 309 310 310 311 314 317 322 327 328 327 325 323 322 322 319 316 313 310 307 303 298 297
309 306 309 301 306 306 305 305 304 307 308 306 305 305 305 306 307 307 306 306 308 309 310 311 308 308 309 309 311 312 312 312 314 317 321 323 323 320 318 316 315 313 311 309 306 302 297 295 293
310 309 305 304 303 305 308 305 302 304 306 307 305 305 305 307 307 307 306 306 308 309 311 311 311 311 313 313 313 313 313 314 316 318 319 319 318 316 313 310 309 307 306 302 300 296 293 292 291
309 309 305 304 304 302 304 306 303 304 305 305 305 306 310 310 308 307 305 306 308 309 306 304 305 306 308 310 311 312 311 311 312 313 313 313 312 310 309 306 304 300 299 297 295 293 292 291 291

GFSSGP_925_thetae_063.txt.gz
Theta_e
329 325 322 320 325 324 324 323 319 322 322 318 319 322 325 325 336 338 338 343 340 343 346 347 344 344 344 345 346 345 344 343 342 341 341 340 340 339 339 339 338 337 336 336 339 338 337 336 332
328 323 321 320 326 325 324 321 323 322 320 317 317 319 328 333 338 341 342 343 342 344 348 349 345 344 344 345 345 344 342 340 340 340 339 339 338 338 338 336 333 332 334 335 338 339 337 335 326
323 322 324 327 323 325 323 319 321 319 318 318 320 320 323 332 336 341 341 343 344 347 345 347 344 343 343 344 343 342 341 339 338 338 337 335 335 334 334 332 332 331 332 333 337 338 336 331 323
322 321 319 326 327 322 320 319 317 319 319 317 318 321 325 331 335 340 343 344 347 346 346 345 343 342 342 342 342 342 340 338 337 336 335 334 334 331 332 332 332 331 331 332 335 338 333 328 324
319 319 325 326 326 322 319 318 318 320 319 319 317 321 323 333 338 340 344 344 346 345 344 344 344 342 342 341 341 340 339 338 337 336 335 334 333 331 332 332 332 331 332 337 336 333 331 328 324
323 319 325 327 325 322 320 319 319 319 318 318 318 320 328 336 342 345 345 344 345 346 344 345 343 342 342 340 339 339 339 338 338 338 337 335 332 330 330 331 332 332 332 335 333 330 329 323 322
323 323 325 322 324 322 321 316 319 320 318 319 318 324 327 337 342 343 344 344 344 346 344 344 343 342 338 339 339 339 339 339 340 338 336 334 331 329 329 330 332 333 333 332 330 329 325 324 324
319 321 323 321 322 323 318 316 316 318 319 315 317 322 324 333 343 342 343 344 343 343 343 342 340 338 338 339 339 339 338 338 338 336 335 332 328 325 327 325 330 332 332 331 328 325 327 328 324
313 323 323 323 321 320 316 317 317 315 317 316 316 319 325 333 342 341 341 341 341 342 343 341 340 339 337 337 338 338 337 336 336 335 334 331 327 326 325 324 327 330 331 327 325 327 329 326 326
318 321 321 318 319 318 318 318 320 320 319 319 318 322 334 339 341 341 341 342 342 341 343 342 341 339 338 337 337 335 335 335 335 334 333 330 328 325 321 323 326 326 324 324 326 328 327 326 325
318 321 318 319 317 319 321 320 319 321 322 320 319 320 333 339 340 341 340 340 341 340 340 340 342 339 338 335 333 330 330 331 333 333 331 329 328 329 327 322 325 327 324 327 328 327 327 326 325
320 318 317 319 320 320 321 319 320 320 321 317 318 318 320 337 339 339 340 340 340 340 340 339 340 339 338 335 331 328 328 328 328 330 330 329 329 330 331 329 323 323 323 325 327 327 327 326 326
320 318 318 318 318 318 318 319 320 319 318 316 316 317 318 319 329 334 337 339 339 340 340 339 339 340 338 336 331 329 328 326 325 327 329 329 330 331 332 332 330 323 324 325 326 326 327 324 325
318 319 319 318 318 317 319 318 316 317 315 316 316 317 317 317 317 316 323 337 340 340 339 339 339 340 339 337 334 331 329 327 325 326 327 331 331 330 331 331 332 328 323 324 326 326 327 322 324
316 319 319 318 317 318 317 319 318 316 315 317 316 316 315 316 315 316 317 318 331 339 341 340 339 339 341 338 336 334 331 330 327 326 327 328 330 331 330 329 330 331 327 324 325 326 325 320 317
320 319 323 319 318 317 317 318 316 315 315 317 316 314 313 314 315 316 316 316 317 319 333 339 340 341 343 339 338 336 334 332 331 328 327 327 328 329 330 329 329 331 330 326 325 326 326 319 315
321 322 321 321 318 318 318 318 316 314 314 315 314 313 312 313 313 313 315 316 316 316 316 323 335 339 341 341 339 338 337 335 333 332 331 328 327 326 328 328 328 331 331 329 325 325 325 320 313
322 320 320 320 317 317 318 318 316 313 312 314 313 313 313 312 312 313 313 314 314 315 315 316 323 333 339 339 338 337 336 336 335 334 333 332 331 329 326 326 327 330 332 330 325 325 323 319 313
317 317 318 316 313 313 314 313 312 311 309 310 310 311 311 312 311 311 313 314 313 314 313 314 315 318 335 338 336 335 336 336 335 335 335 335 334 333 332 328 325 327 329 331 326 324 321 314 309
317 317 317 314 311 313 311 311 311 311 311 311 311 311 309 308 308 307 308 309 310 312 313 313 314 315 323 335 335 336 336 336 336 335 335 335 335 335 334 332 327 324 328 330 328 324 317 311 308
317 318 315 316 311 308 309 312 310 308 307 306 305 305 305 304 304 303 304 306 308 308 310 311 313 314 315 327 335 336 336 335 335 334 334 337 336 336 335 334 331 325 326 329 329 324 322 310 305
322 315 314 313 315 319 309 318 312 307 306 305 305 306 306 305 305 304 305 305 305 306 307 308 310 311 313 315 333 334 334 334 334 333 334 336 336 335 336 335 332 329 325 327 328 324 321 317 309
318 313 311 310 310 311 311 314 311 306 306 306 306 307 307 306 306 307 306 306 306 307 307 307 308 309 311 312 325 331 333 333 333 333 333 334 335 334 334 334 333 332 330 327 327 322 319 317 312
309 309 307 306 307 311 308 310 309 308 307 307 306 307 307 308 308 307 306 307 308 309 309 308 307 307 308 309 311 328 332 333 332 333 333 333 334 331 330 331 331 330 330 328 326 323 319 316 313
309 311 311 310 312 312 307 310 309 306 307 307 308 308 307 308 309 309 308 307 308 309 309 309 309 309 308 309 309 313 329 331 332 331 331 331 330 329 329 329 328 328 327 325 322 318 317 314 311
310 313 312 309 311 309 307 312 309 304 302 305 306 305 305 308 309 309 308 306 308 310 310 310 309 308 309 308 309 310 313 320 328 330 330 330 330 329 327 325 325 326 325 322 319 316 314 312 309
310 311 304 304 301 307 308 306 304 305 306 306 306 306 307 308 309 309 308 307 307 309 310 311 311 310 309 309 309 310 310 310 314 321 326 328 328 328 326 324 322 320 318 316 315 313 312 309 307
309 306 310 304 307 311 305 305 307 307 308 307 307 307 307 308 309 309 308 307 307 308 309 309 309 310 310 311 312 312 312 312 312 312 315 318 321 323 322 320 318 317 314 312 312 310 307 306 300
310 309 305 305 305 308 308 305 302 307 307 307 306 306 308 311 310 309 307 306 308 308 306 305 305 307 308 309 310 311 312 312 313 314 315 316 316 317 317 317 315 312 311 310 308 305 301 298 293
308 309 304 306 307 304 306 307 303 302 304 304 305 305 311 309 308 305 304 305 306 302 302 301 302 303 305 307 308 308 309 309 310 310 312 311 313 313 313 312 309 307 305 302 301 297 294 292 290

GFSSGP_925_thetae_066.txt.gz
Theta_e
330 328 324 325 327 326 327 325 324 326 326 324 323 325 328 328 334 338 342 345 342 344 349 347 345 344 344 344 345 345 345 343 343 343 342 342 341 340 340 339 339 336 338 340 339 338 336 335 330
330 324 324 326 326 328 327 325 325 324 324 323 323 323 326 333 336 343 345 345 343 347 348 348 344 342 345 344 345 345 344 342 342 341 341 340 340 340 339 338 335 335 337 337 338 338 337 331 330
328 324 326 327 327 328 326 325 324 323 322 323 325 324 328 333 338 343 344 344 344 347 348 349 344 343 344 345 345 344 342 340 339 339 338 337 337 338 336 334 332 333 334 336 337 337 332 329 331
324 324 324 328 329 326 325 323 322 323 323 322 323 326 327 336 338 343 345 344 345 347 348 348 344 343 344 344 344 342 340 339 338 337 336 335 334 334 333 331 332 330 333 335 337 337 330 328 331
323 326 329 330 328 326 325 323 322 323 323 323 321 325 326 338 342 345 346 346 346 346 348 349 343 342 343 343 342 342 340 338 337 336 335 334 333 332 332 333 333 330 331 334 338 334 330 328 328
325 326 329 330 328 326 325 324 323 323 323 322 321 324 327 341 345 346 346 346 346 347 347 348 344 342 343 342 341 341 339 338 337 336 335 334 332 332 330 332 333 330 336 336 335 332 330 326 326
325 327 328 326 327 326 325 324 324 323 323 322 321 324 328 340 345 345 346 346 346 347 346 346 347 344 342 341 340 339 339 338 338 336 336 334 332 331 330 331 332 332 335 335 333 332 328 327 324
321 325 326 325 325 326 324 323 322 323 323 321 321 323 326 337 345 344 344 346 346 346 345 346 346 344 343 341 338 338 339 340 339 337 335 333 329 327 328 331 332 332 333 332 330 328 326 326 323
319 322 322 324 324 323 321 322 321 320 321 320 321 323 328 334 343 344 344 345 344 345 344 344 344 343 341 340 341 339 339 337 339 337 334 332 328 327 326 327 331 332 332 330 327 328 327 324 324
319 320 320 319 321 321 319 320 321 321 320 321 321 324 334 337 343 344 342 341 342 343 343 344 343 341 340 339 338 339 337 336 335 336 334 332 328 327 326 326 328 330 330 326 326 328 326 326 327
320 321 320 321 319 319 320 321 322 322 323 322 322 324 335 338 341 343 342 342 342 342 343 343 343 342 340 338 336 336 336 334 334 334 334 332 329 329 326 327 328 329 326 327 327 329 328 328 327
322 319 319 319 321 322 322 321 322 323 322 321 323 322 326 339 340 341 341 342 342 342 342 342 342 342 340 339 336 333 333 333 333 333 333 332 330 331 329 326 327 328 327 328 329 329 329 328 325
323 320 319 318 320 321 320 322 321 322 322 321 321 321 322 327 339 339 340 341 341 342 342 341 341 341 341 340 338 334 332 332 331 331 332 331 330 331 332 331 328 327 327 328 329 329 327 328 324
321 321 320 319 319 320 320 320 320 320 321 321 321 321 321 321 323 336 340 340 340 340 341 341 341 340 341 341 339 336 334 332 331 331 331 331 330 331 333 334 333 329 327 327 328 328 326 325 322
320 322 321 320 319 319 319 320 320 319 319 319 319 319 320 320 320 321 324 334 341 342 342 341 341 340 340 341 340 338 336 334 332 331 331 331 332 333 333 333 333 333 327 327 327 328 325 322 319
322 321 324 320 319 319 318 317 317 318 318 318 318 318 318 319 319 319 320 320 321 329 338 342 341 341 341 340 341 340 338 336 334 333 332 331 331 332 332 332 332 332 332 328 327 326 323 320 316
321 321 320 321 319 318 319 317 316 317 317 318 318 319 318 318 317 317 318 318 319 319 320 328 337 341 341 341 340 340 339 338 336 335 333 332 331 331 331 331 331 331 332 330 327 325 324 320 316
322 321 320 319 320 319 319 318 318 318 317 319 318 318 318 318 318 317 317 317 317 318 318 318 324 334 338 339 338 338 339 338 338 337 336 334 332 332 331 330 330 330 332 331 329 324 322 321 319
317 319 319 318 316 321 321 320 318 318 318 318 317 317 317 317 316 315 315 315 316 316 316 317 317 323 333 339 337 336 336 338 336 338 338 336 334 332 331 331 331 330 330 332 330 325 320 316 316
318 320 318 316 317 316 317 318 317 317 317 316 316 316 316 315 314 313 311 311 313 314 315 316 316 317 322 332 337 337 338 337 337 335 336 337 336 334 332 332 331 330 329 330 330 326 320 319 312
320 318 318 318 314 314 315 318 318 312 310 310 309 310 311 311 311 310 310 309 310 311 312 314 315 315 317 323 330 335 335 336 336 335 335 334 335 335 334 332 332 331 329 328 329 325 320 318 311
322 318 318 316 319 322 313 319 315 310 311 312 313 313 313 313 312 312 312 310 309 310 309 309 310 312 313 317 325 331 332 334 334 335 335 336 334 334 334 333 333 331 328 327 327 324 321 320 313
321 315 317 317 318 317 316 319 314 311 313 314 314 315 314 314 313 313 312 311 311 311 310 309 308 309 311 312 319 328 331 331 332 334 334 335 334 333 331 332 332 331 328 327 326 323 321 319 318
313 312 312 313 316 322 316 316 313 311 312 313 314 314 315 315 315 313 312 313 313 313 312 311 310 309 308 311 313 321 327 330 331 332 333 333 333 331 331 330 329 329 328 326 325 322 320 319 318
313 319 322 323 322 320 311 314 313 311 310 313 314 315 315 316 316 315 314 313 313 314 313 311 311 311 310 310 310 312 319 326 329 330 331 332 332 330 329 329 327 328 328 326 324 321 318 317 317
316 317 320 319 319 315 311 315 312 308 308 311 311 311 313 316 316 315 315 314 312 313 313 314 313 312 310 310 310 311 313 316 324 328 329 330 330 330 328 328 326 326 325 324 322 320 317 315 314
314 319 309 313 309 314 313 311 309 308 309 310 311 312 315 316 315 315 314 313 311 312 312 312 311 312 312 313 313 312 312 312 314 320 324 326 327 328 328 326 325 324 324 322 320 317 315 313 311
314 310 316 316 318 316 311 311 314 311 312 312 313 313 313 315 315 313 312 312 312 312 310 308 308 309 310 310 311 312 313 313 314 315 316 318 320 321 320 320 320 321 320 319 316 314 312 309 307
312 314 311 312 311 314 311 310 311 312 313 311 311 310 313 315 314 311 311 310 311 308 306 306 305 306 307 308 309 309 310 310 311 312 312 312 313 313 314 315 316 316 315 313 311 310 308 304 301
311 313 311 318 315 311 314 311 308 312 309 308 309 310 313 313 310 310 311 311 307 305 304 304 303 304 305 306 308 308 309 310 310 310 309 310 311 311 312 312 311 309 308 306 305 301 298 299 294

GFSSGP_925_thetae_069.txt.gz
Theta_e
327 330 327 326 329 327 330 329 326 326 326 325 325 327 327 329 330 341 343 345 342 348 349 348 345 345 346 345 346 345 344 344 343 343 343 342 341 340 338 338 337 339 341 339 338 337 336 332 331
328 329 326 327 329 330 329 328 327 325 326 324 325 326 327 329 334 345 346 346 344 347 348 348 344 344 346 345 345 345 344 343 343 342 343 342 341 340 339 338 337 338 338 338 339 338 333 332 331
331 328 327 328 330 328 329 327 326 324 325 325 327 327 330 332 340 344 346 344 344 348 347 349 343 343 345 344 345 345 343 342 341 340 340 339 339 340 337 334 333 333 337 337 338 336 329 330 330
329 325 327 331 330 328 327 327 325 324 324 324 325 328 329 337 340 344 346 344 346 347 348 347 343 344 345 344 344 344 342 339 339 338 336 335 336 336 333 333 332 333 335 335 338 334 328 329 330
325 327 330 330 330 328 327 326 324 323 324 325 324 327 330 341 343 346 345 344 345 346 351 348 343 344 344 344 344 342 340 339 338 336 335 334 334 333 334 333 331 331 332 336 337 332 328 331 330
327 328 331 332 330 328 327 326 324 323 324 324 324 325 332 342 345 346 345 346 346 346 349 348 344 343 343 343 342 342 340 338 337 336 335 334 333 332 332 334 330 332 333 337 336 333 329 329 328
325 328 331 328 328 328 327 326 325 324 324 324 323 325 333 343 346 347 346 347 346 346 348 348 346 344 343 343 341 341 340 338 338 336 334 333 331 328 332 334 331 335 336 335 334 331 328 325 324
322 326 328 327 327 327 327 326 325 324 323 323 323 323 327 344 346 347 346 346 346 346 346 346 346 344 345 342 341 339 339 338 338 337 335 334 329 325 331 331 331 332 335 334 332 330 326 324 322
319 323 326 327 326 325 324 326 325 324 324 323 322 322 331 342 345 345 347 346 347 346 345 345 346 344 343 342 341 338 338 339 340 337 335 333 329 326 324 331 331 332 332 332 330 327 326 324 322
321 323 322 323 324 324 324 323 324 322 322 322 321 323 331 337 344 345 345 346 346 345 345 344 343 341 340 339 341 339 339 340 340 338 335 333 329 327 325 328 331 331 331 330 327 326 324 324 327
321 321 321 319 320 321 321 320 321 322 322 321 321 322 329 333 340 344 344 343 342 343 345 344 342 341 339 338 338 338 338 336 336 337 335 333 329 328 327 328 328 331 330 330 328 328 328 328 328
322 320 320 321 320 320 320 319 320 322 322 322 322 324 328 335 337 342 343 343 343 342 343 343 343 341 340 338 336 336 336 336 334 335 335 333 331 330 326 328 328 329 327 328 328 330 329 329 328
323 320 320 320 321 321 320 321 319 322 323 323 324 323 324 329 336 339 341 342 343 343 342 342 343 342 341 339 339 336 334 334 333 333 333 333 331 331 330 327 327 329 328 328 329 330 330 329 327
323 322 320 320 320 321 322 320 321 322 322 322 322 323 323 324 326 338 340 341 342 342 342 342 342 341 342 341 341 339 336 334 333 332 333 332 331 331 332 333 330 328 328 328 329 329 329 328 327
322 323 322 320 320 320 320 322 322 321 321 322 322 321 321 322 322 324 335 340 341 341 341 343 342 341 341 342 341 341 339 336 334 332 332 332 331 331 331 333 333 332 329 328 328 329 328 326 325
323 321 323 322 320 319 319 320 319 320 320 320 320 320 320 319 320 321 323 327 334 339 342 342 342 342 341 341 342 342 341 338 336 334 333 332 331 331 333 333 333 333 332 328 327 328 328 325 323
322 325 321 320 319 320 320 318 317 318 318 319 319 319 318 318 318 318 320 322 324 325 330 338 342 342 342 342 342 343 342 340 339 337 335 334 333 332 333 333 332 332 332 331 328 328 327 324 322
323 322 320 319 320 319 320 320 318 317 318 318 319 319 319 318 318 317 317 318 320 321 322 323 328 337 342 342 340 340 342 342 340 339 337 336 334 333 333 332 332 332 332 331 331 328 327 325 323
317 318 318 318 319 320 319 318 318 317 318 318 318 318 318 318 318 317 317 318 318 319 319 320 321 322 331 336 341 338 339 339 340 340 339 338 336 335 333 333 332 332 332 332 331 330 327 324 324
318 317 318 318 317 318 319 319 318 318 318 318 317 317 317 317 317 317 316 315 316 317 318 318 319 320 321 328 338 338 337 336 337 338 338 339 338 336 335 334 334 333 332 332 331 330 328 324 322
322 318 318 318 318 317 317 318 318 317 317 316 315 314 315 315 315 314 313 313 313 314 315 316 318 318 319 320 326 337 337 338 338 337 336 336 337 338 336 334 334 333 333 332 332 330 329 324 320
322 318 317 317 318 317 316 316 317 317 314 312 313 314 315 314 313 313 314 313 312 312 312 313 314 316 317 318 319 325 333 336 336 336 336 335 336 335 336 336 334 334 333 332 331 331 330 324 321
322 319 319 318 319 320 318 319 318 314 314 314 315 316 315 315 315 315 314 314 314 314 313 312 311 312 313 314 316 320 325 331 332 332 333 335 336 335 333 333 334 333 334 333 331 330 330 324 322
314 318 318 319 320 325 320 319 315 315 315 315 315 316 316 316 315 315 315 315 316 316 315 314 313 311 311 312 314 315 321 327 330 330 331 332 333 335 334 331 330 331 332 331 331 329 328 325 324
316 320 325 327 325 323 316 317 316 312 314 315 315 316 317 317 317 317 316 315 315 316 316 315 314 313 312 312 312 313 317 322 326 328 330 330 332 332 331 331 329 328 328 329 328 328 327 324 323
318 320 329 326 324 320 313 318 316 311 311 314 315 315 317 318 318 317 317 316 315 315 315 315 315 315 314 313 313 312 314 314 317 323 327 329 329 330 331 329 327 327 327 327 327 327 326 323 322
318 320 313 315 314 317 314 313 311 309 311 313 313 314 317 318 317 317 316 315 315 315 314 312 312 313 313 314 314 315 314 314 314 317 321 324 326 327 327 326 325 324 324 325 326 325 323 321 319
316 313 318 321 319 318 315 314 315 310 312 313 314 315 316 317 317 315 314 313 314 313 311 310 310 310 311 312 312 313 314 314 315 316 317 318 319 320 321 320 321 320 319 320 321 321 319 317 315
315 316 314 314 315 318 314 312 314 312 313 314 314 313 315 316 316 314 314 313 312 310 309 308 308 308 309 310 311 312 312 312 313 314 313 313 314 314 314 314 314 314 315 316 315 315 314 313 310
313 316 315 320 319 315 318 313 312 313 313 311 312 312 315 315 313 313 313 311 309 308 307 306 306 306 307 309 310 310 310 311 310 310 309 309 310 310 309 311 310 309 310 311 310 309 306 304 300

GFSSGP_925_thetae_072.txt.gz
Theta_e
320 321 328 329 331 328 330 329 327 326 326 325 324 325 325 325 342 350 343 343 351 350 350 344 343 345 344 345 345 344 345 344 344 343 342 342 341 339 337 335 336 342 339 338 337 336 334 332 331
321 327 329 328 330 330 327 326 328 325 324 323 324 324 325 330 344 344 345 344 350 350 349 345 344 345 344 345 345 345 344 343 341 341 341 341 340 340 339 337 336 337 338 339 338 333 330 329 329
321 331 332 329 330 329 329 326 326 325 323 324 326 326 326 339 341 345 347 344 349 349 347 346 344 346 345 345 345 344 343 341 340 339 339 339 340 340 336 334 332 337 336 339 336 330 329 326 329
327 327 327 331 329 328 327 325 325 324 323 324 325 327 333 340 343 346 345 344 348 347 348 343 343 345 344 344 344 343 342 339 338 337 336 336 337 335 333 332 332 333 335 338 336 330 329 327 327
327 328 331 330 330 327 326 325 324 324 323 323 324 326 340 342 345 345 344 345 348 349 349 342 342 343 344 344 344 343 340 338 337 336 334 334 335 333 331 331 330 332 333 338 335 330 329 329 326
329 327 333 334 330 328 326 325 323 322 322 323 323 323 342 343 345 344 344 345 349 351 347 341 343 344 343 344 344 340 339 338 336 335 333 333 333 334 333 331 330 332 334 337 335 332 330 329 324
330 330 331 331 330 329 327 326 323 322 323 323 323 323 341 344 346 345 345 345 351 349 347 343 344 344 343 343 342 341 339 337 336 335 334 332 331 331 334 331 334 333 334 336 335 331 329 327 322
325 325 330 331 331 329 326 326 324 323 322 322 322 322 342 345 346 346 346 345 348 348 347 345 345 343 344 342 341 340 338 337 337 335 334 332 325 326 332 332 333 336 335 335 333 330 327 323 321
321 324 327 327 327 326 324 326 325 324 323 322 321 324 340 346 346 347 346 345 346 348 346 345 343 344 343 341 341 339 337 337 337 336 334 333 325 319 330 330 331 332 333 333 332 329 326 320 320
323 322 323 323 324 325 323 323 324 324 323 321 321 328 339 344 345 346 347 346 345 346 346 345 344 342 342 342 340 338 337 337 338 337 335 333 329 325 322 330 331 331 331 332 330 327 320 321 321
323 324 321 321 321 321 322 322 322 323 322 321 320 322 329 342 343 343 345 346 345 345 346 345 345 342 343 341 340 338 336 337 338 338 335 333 330 327 325 327 330 330 330 331 328 322 321 328 327
323 321 321 320 321 321 321 320 320 320 320 320 319 321 330 331 337 343 343 343 342 343 344 345 343 341 339 338 340 338 340 338 337 339 336 333 330 328 327 327 323 328 329 329 326 325 322 328 329
325 321 320 320 320 320 319 319 318 318 320 322 322 322 324 330 332 340 343 343 343 342 343 343 343 342 339 339 337 336 337 336 335 334 336 334 331 330 327 327 327 328 329 327 328 329 329 329 329
323 323 321 319 320 321 321 320 319 317 318 322 322 322 322 323 327 338 340 342 342 343 342 342 341 343 342 339 338 336 335 334 334 333 334 334 333 331 330 327 328 328 329 327 329 329 330 329 329
321 324 323 320 320 321 321 322 320 318 320 320 320 320 320 321 323 324 339 340 341 341 343 342 341 342 341 342 341 340 337 335 333 332 332 333 332 331 331 332 329 328 328 328 328 329 329 328 328
322 322 326 322 320 319 319 322 320 319 319 319 319 318 317 317 319 322 323 335 339 341 341 342 342 341 341 340 342 341 340 338 335 334 332 332 332 331 331 331 333 332 331 328 328 328 329 328 327
323 325 323 322 320 320 319 320 317 317 318 318 317 316 316 316 316 319 321 322 325 332 340 341 343 342 341 341 341 342 341 340 338 336 334 332 332 331 331 331 332 334 332 332 328 327 328 328 325
321 322 320 320 321 320 320 319 317 316 317 317 316 316 315 315 315 317 318 319 320 323 324 327 340 342 342 342 340 342 343 340 340 338 336 335 333 332 331 332 333 332 333 332 331 328 327 328 325
322 320 319 318 317 321 320 320 318 316 316 316 316 315 315 316 317 317 317 317 317 319 321 322 323 326 339 342 342 340 340 342 342 341 339 337 335 333 332 332 333 332 332 332 331 330 328 327 325
321 320 320 318 318 318 319 319 318 317 316 316 316 315 314 314 314 315 316 316 316 316 318 318 319 321 322 330 341 341 339 338 339 340 341 340 338 336 334 333 333 332 332 332 332 331 330 328 325
319 319 320 318 318 317 316 316 318 316 316 315 316 315 313 313 312 311 312 313 313 313 314 316 318 318 319 320 324 340 338 336 336 335 337 339 339 339 337 335 334 333 333 332 332 332 330 328 325
321 318 320 319 318 319 315 317 316 317 317 317 313 311 311 313 313 312 312 313 312 313 312 313 314 315 317 318 319 327 338 337 338 338 336 335 335 335 336 338 336 334 334 333 332 332 330 329 324
320 320 320 320 317 316 316 315 317 315 316 313 310 311 313 313 311 312 313 314 314 314 313 312 311 312 314 315 315 317 318 323 335 337 336 336 335 335 335 333 335 336 334 334 333 332 331 330 326
316 317 321 320 319 323 317 315 315 314 314 312 313 313 314 313 312 313 315 316 316 316 314 314 312 311 311 311 312 313 315 318 324 330 331 330 331 333 335 335 332 331 331 332 332 332 331 330 328
314 316 324 324 323 319 317 317 315 312 313 313 314 314 314 315 314 313 314 314 315 316 316 316 315 314 313 312 312 312 313 315 319 324 329 330 331 331 332 332 331 329 328 327 328 329 331 330 329
315 320 326 325 320 317 314 317 312 311 312 313 314 315 316 315 315 315 315 315 315 315 314 313 313 314 314 314 314 313 312 313 314 316 320 325 328 329 330 330 330 328 327 326 326 327 328 329 328
318 320 316 316 313 314 313 312 309 309 313 313 313 314 316 316 315 314 314 315 315 314 312 311 311 312 312 313 313 314 315 315 315 315 316 319 323 324 325 326 326 324 324 324 326 326 325 327 326
317 315 317 319 321 321 313 312 312 308 312 312 312 313 316 315 315 313 312 313 313 311 310 309 309 310 310 311 311 312 312 313 314 315 316 317 317 318 319 320 319 319 319 317 317 320 321 321 321
316 317 315 314 315 319 313 311 310 309 310 311 312 313 314 315 313 312 312 312 310 309 308 307 307 307 308 310 311 311 312 312 312 311 311 312 313 313 313 313 312 311 312 313 314 314 316 316 315
313 317 316 314 315 314 314 309 309 308 309 311 312 312 313 313 311 312 311 310 308 307 306 304 305 305 306 308 308 307 307 306 305 304 305 306 306 306 307 308 307 307 308 308 308 308 307 306 305

GFSSGP_925_thetae_075.txt.gz
Theta_e
320 323 326 328 325 323 327 327 323 323 323 321 322 321 323 325 344 343 342 345 348 345 347 345 343 344 344 344 343 343 343 344 343 342 343 342 341 338 336 340 342 341 338 337 336 334 332 330 329
323 329 328 324 327 327 325 321 323 322 321 321 321 322 326 346 343 341 348 350 348 345 347 343 344 344 344 344 343 343 344 343 341 339 339 338 338 338 337 338 338 338 340 338 334 331 330 328 322
328 330 329 325 327 328 325 322 320 321 320 322 323 322 327 340 341 343 348 350 348 346 346 345 344 344 344 344 344 343 342 340 340 339 339 339 340 338 335 334 336 336 339 335 330 328 328 324 319
326 324 325 329 331 326 325 323 320 321 320 321 323 325 338 342 343 346 348 350 348 346 344 345 344 345 344 344 343 342 342 340 338 337 337 337 337 335 333 328 330 334 338 336 330 328 327 322 321
325 325 329 330 327 326 325 323 322 322 320 321 322 327 342 343 345 345 347 349 347 346 344 344 345 344 344 343 343 342 340 339 337 335 334 335 335 332 328 331 331 333 337 337 332 329 327 322 322
325 327 330 328 327 326 325 324 320 320 319 320 321 333 342 344 343 343 346 347 346 347 342 343 344 343 343 343 343 340 338 337 335 333 333 335 334 331 333 329 332 333 338 336 335 331 328 323 324
327 329 330 327 327 327 327 326 320 320 319 320 319 331 339 342 343 344 347 348 348 346 341 341 343 343 342 343 342 339 338 337 335 333 333 328 330 332 330 332 333 334 337 336 333 331 328 322 323
323 327 330 327 329 331 327 326 324 319 320 320 318 333 346 343 344 344 349 349 349 344 340 341 344 343 342 343 340 339 337 335 335 334 334 328 326 332 332 334 333 332 334 335 332 330 327 321 321
321 326 330 330 328 328 327 326 325 320 322 321 319 338 343 346 346 345 348 348 347 345 342 341 342 343 342 341 340 338 337 336 336 334 333 332 323 331 331 332 334 334 333 333 332 330 327 319 320
321 324 325 324 324 325 324 326 326 326 322 320 333 342 345 345 346 345 344 345 347 347 345 343 340 342 341 340 340 338 337 336 336 335 334 331 324 320 330 329 331 332 332 332 332 330 324 318 318
323 323 322 321 320 320 322 325 323 325 321 319 329 343 342 343 343 342 344 345 346 346 345 343 341 340 341 340 339 338 337 336 336 336 335 333 328 326 322 330 330 330 330 331 331 328 318 320 323
323 322 322 321 319 320 319 319 323 324 319 320 317 327 337 340 340 341 341 343 344 345 345 344 342 341 341 341 340 339 337 336 337 336 336 333 332 327 327 326 328 330 330 330 330 325 318 327 328
322 322 321 320 320 318 318 318 318 317 317 320 320 323 328 334 339 341 342 342 342 341 344 344 343 342 342 341 340 338 338 337 338 338 338 332 332 327 327 326 326 324 326 327 326 323 320 327 328
321 322 322 319 320 319 321 319 319 317 316 319 319 320 320 323 333 340 341 341 342 340 341 343 343 341 338 338 338 337 338 339 337 336 336 334 333 329 329 327 327 326 328 326 327 328 329 329 329
319 323 322 321 318 319 319 321 320 317 317 317 316 318 319 320 327 337 341 342 341 341 341 340 343 342 341 338 337 336 335 336 335 334 335 335 333 331 330 328 326 327 328 329 327 328 329 329 329
320 321 325 322 318 319 318 322 320 318 317 317 317 315 316 317 320 322 337 339 338 341 342 342 340 341 342 341 339 338 337 334 334 333 332 333 333 332 331 331 328 327 328 328 327 328 329 329 328
320 325 322 323 319 318 317 320 318 318 317 316 316 315 314 313 314 320 321 330 338 339 340 342 341 340 339 341 341 341 340 337 336 334 333 332 332 332 331 330 331 331 329 329 327 327 328 329 328
319 321 320 320 320 318 318 318 318 315 316 316 314 314 313 312 313 317 319 321 321 329 339 341 341 342 341 338 339 341 341 339 338 337 335 334 332 332 332 331 330 331 333 332 330 328 327 327 328
317 319 319 318 316 318 318 319 318 316 314 314 313 313 313 313 313 315 317 318 319 319 323 336 335 342 342 341 340 338 341 340 339 338 338 336 334 333 332 331 330 331 332 333 332 331 328 327 327
319 318 317 316 317 319 318 319 318 317 315 314 314 314 313 312 310 310 313 315 316 316 317 319 320 326 341 341 341 341 339 341 341 340 340 338 336 334 333 332 331 331 332 332 332 332 330 328 327
321 318 319 319 317 316 315 316 317 317 316 313 315 314 313 312 311 309 310 311 312 313 313 314 316 317 318 328 341 341 341 339 338 338 339 340 339 338 334 332 332 332 332 332 332 331 331 329 328
322 317 319 320 318 321 313 316 312 315 317 314 314 313 310 310 310 310 311 312 312 312 312 312 313 315 316 317 318 336 339 338 338 335 333 330 334 337 338 337 335 332 332 332 332 332 331 330 327
318 319 320 321 322 315 316 313 310 312 316 316 312 309 309 309 310 311 311 313 314 314 313 312 311 312 313 314 314 315 328 335 335 336 336 337 336 334 332 332 333 334 335 333 333 332 331 330 328
315 318 319 320 321 322 315 313 310 313 316 313 309 309 310 310 311 312 313 315 315 315 314 314 312 312 311 311 311 312 313 314 315 321 332 337 335 335 333 334 333 333 332 333 334 333 332 331 330
316 318 323 323 324 316 314 314 311 310 312 311 311 311 310 310 311 312 312 313 315 315 314 314 314 314 313 313 312 312 312 313 314 317 322 328 329 330 330 332 332 332 330 328 328 328 328 328 330
316 317 323 325 317 316 314 316 314 307 309 312 313 312 312 312 311 313 312 313 314 313 312 312 312 313 313 313 314 314 312 313 314 315 317 322 325 327 329 331 331 331 330 327 327 326 326 326 326
318 319 315 316 314 312 312 311 308 308 311 312 315 315 313 313 312 312 312 312 312 311 310 310 310 310 311 312 312 313 314 314 315 315 316 318 320 323 325 327 328 326 324 322 323 323 324 325 325
317 314 319 315 320 318 312 311 311 309 312 312 314 315 314 313 312 310 310 310 310 309 308 308 308 309 310 311 311 312 312 312 313 314 314 315 316 316 318 318 318 319 319 318 317 317 317 317 317
317 319 317 315 317 317 311 310 306 308 311 311 310 313 314 313 311 309 309 309 308 307 306 306 306 307 308 309 309 309 309 309 310 310 310 311 312 312 313 312 312 311 311 311 311 312 311 312 313
315 318 315 313 315 312 309 312 307 305 308 308 310 312 313 311 310 310 308 307 306 305 304 304 304 305 306 306 306 305 305 304 304 303 304 305 306 307 308 308 308 307 306 307 306 307 307 307 307

GFSSGP_925_thetae_078.txt.gz
Theta_e
325 321 326 324 322 321 326 325 321 322 322 320 320 321 325 330 339 335 341 347 346 346 344 345 345 344 344 344 343 344 344 343 343 343 343 342 342 341 340 342 341 338 337 336 335 332 330 328 327
322 326 326 321 325 327 325 321 324 322 320 318 318 321 332 348 341 347 347 348 346 346 346 345 345 345 344 344 343 343 343 342 341 339 338 337 337 338 337 338 340 340 337 336 333 328 324 322 327
323 328 326 326 325 327 325 322 321 320 318 320 322 321 333 343 340 345 347 348 346 347 346 345 345 345 344 343 343 343 342 341 338 338 337 338 339 336 333 335 336 341 334 332 327 321 317 321 329
327 323 321 330 330 326 324 322 320 321 319 320 320 336 338 340 342 347 349 347 346 347 344 344 344 344 343 343 343 341 341 340 338 337 338 337 337 335 330 330 334 339 335 330 328 323 318 325 329
324 324 326 325 327 325 324 323 321 321 318 321 321 335 343 343 344 349 349 347 345 345 342 344 344 343 343 343 341 341 340 338 337 336 336 335 335 330 327 328 333 338 337 332 329 327 319 321 328
323 324 328 327 324 323 323 323 323 322 318 319 324 340 342 342 344 349 349 347 344 343 344 344 344 344 343 342 341 341 338 337 336 334 334 335 333 331 329 331 332 336 338 334 332 330 322 322 327
324 323 325 324 324 324 323 324 324 321 316 320 318 341 341 341 342 348 347 346 344 342 344 345 344 343 343 342 341 338 337 336 334 331 334 334 330 332 328 330 331 335 337 335 332 331 325 320 323
322 322 327 325 325 325 322 325 323 323 320 317 331 344 346 341 343 347 346 347 346 343 342 345 344 343 343 343 340 338 337 336 334 333 332 327 330 330 332 332 335 336 336 334 332 331 327 318 323
319 324 329 327 326 326 324 325 324 323 323 319 325 338 341 342 348 347 347 347 347 345 343 342 343 342 342 342 339 337 336 335 334 333 331 323 329 331 334 333 333 334 335 334 331 330 327 317 323
326 322 325 325 324 324 325 327 326 324 324 322 342 341 343 342 346 346 346 345 345 345 343 343 343 342 342 341 339 337 336 335 335 334 333 331 319 331 333 333 333 333 333 333 331 330 327 318 320
322 324 322 322 323 320 325 325 323 324 325 322 339 343 339 341 341 342 345 346 345 342 343 343 342 342 341 340 339 337 337 336 336 335 334 331 323 325 330 329 331 332 331 331 331 330 326 318 319
323 321 320 321 320 322 324 322 324 324 324 319 320 341 338 339 340 341 342 345 345 344 343 341 340 342 341 340 339 338 337 336 336 336 335 334 327 321 327 326 329 330 330 329 330 330 325 319 322
322 322 320 320 320 319 320 321 319 323 323 318 319 336 338 336 338 341 343 344 345 345 344 343 341 342 341 340 339 338 337 336 336 336 336 335 330 328 327 325 326 328 328 327 329 329 323 320 327
320 321 321 320 320 319 319 319 318 323 323 317 318 326 334 336 337 339 341 342 341 344 344 343 343 341 341 340 340 339 338 336 335 336 336 336 332 331 328 327 326 325 325 323 324 324 323 319 327
318 321 320 321 319 319 318 320 320 316 316 317 317 316 317 324 337 338 340 340 341 341 343 343 343 342 342 341 341 339 337 337 337 336 336 337 333 332 328 328 327 326 326 326 325 326 327 328 328
317 320 322 319 318 318 319 321 319 317 317 317 316 315 314 317 334 339 340 339 340 341 340 340 342 341 338 340 340 338 336 336 338 336 335 335 334 333 330 329 329 327 327 328 328 327 327 328 328
318 319 320 322 318 318 318 320 317 317 316 316 315 315 314 313 314 324 339 339 339 340 341 341 340 340 341 338 337 336 335 334 335 334 333 333 335 334 331 331 330 329 327 327 328 328 327 328 328
320 320 319 320 319 318 318 318 317 316 316 315 314 313 313 312 312 315 318 328 332 337 339 340 341 340 339 341 340 339 339 337 334 334 333 332 332 332 332 332 331 330 330 327 327 327 327 327 327
315 318 321 318 316 319 318 318 317 317 315 313 313 313 313 313 311 314 315 317 321 324 335 339 341 340 340 340 339 339 340 340 338 336 336 335 334 332 331 331 331 330 330 330 329 330 328 327 326
317 317 318 316 317 319 318 319 317 316 315 313 313 313 313 313 310 309 312 313 315 316 325 335 338 339 340 341 340 339 338 340 340 339 338 336 335 334 332 332 332 331 330 330 331 332 331 330 328
318 317 316 317 315 315 317 319 318 316 315 313 313 312 312 310 310 309 309 311 312 313 314 317 319 322 336 340 340 340 339 338 339 340 339 339 337 336 333 332 332 331 330 330 331 332 331 330 328
321 318 318 320 317 319 315 320 314 317 317 316 313 311 310 309 308 308 309 311 312 312 312 312 313 314 316 319 330 340 340 339 339 338 337 337 337 338 338 337 333 331 331 330 331 331 331 330 328
318 318 319 320 322 316 315 316 313 310 316 316 316 313 310 307 308 309 310 312 313 313 312 312 312 312 312 312 314 320 337 338 338 336 336 336 334 333 333 334 334 334 333 334 332 331 330 330 329
316 318 320 320 322 323 315 316 313 310 312 313 315 312 307 307 309 310 313 314 314 314 314 311 311 312 311 311 311 312 314 320 325 324 324 328 333 335 335 333 332 332 331 331 332 332 331 331 331
315 318 319 322 324 317 312 315 316 308 309 310 312 308 309 309 310 311 312 313 314 313 313 313 313 313 313 313 312 311 311 312 313 314 316 322 329 333 335 332 332 333 332 331 330 327 328 328 328
318 313 310 316 318 315 312 316 314 308 305 307 308 310 309 309 309 310 311 312 313 312 311 312 312 312 312 313 313 313 312 313 313 314 317 321 326 327 329 330 331 332 331 331 329 326 325 325 325
318 320 314 312 312 308 312 311 307 309 310 310 311 311 310 311 311 310 310 311 310 310 310 310 310 310 311 311 312 313 313 314 314 315 317 320 323 324 327 329 329 329 326 324 323 322 321 321 320
317 314 319 318 321 316 312 311 313 312 312 312 312 312 312 313 311 309 309 309 308 308 308 308 309 309 310 311 311 311 312 312 312 313 314 315 316 317 319 321 321 320 320 321 320 317 316 316 315
317 318 317 314 312 313 311 311 306 308 312 313 312 312 312 312 310 309 308 307 307 306 306 306 307 308 309 308 308 309 309 309 309 309 309 310 311 312 313 312 312 312 311 312 311 311 311 310 309
314 316 314 308 316 305 305 310 304 304 309 310 311 313 311 310 309 308 306 305 305 304 304 304 304 306 305 305 306 305 304 304 305 304 304 304 306 307 308 308 307 307 307 307 305 306 306 306 306

GFSSGP_925_thetae_081.txt.gz
Theta_e
329 323 325 322 322 321 325 323 321 322 320 318 319 320 322 330 337 338 341 346 344 347 346 345 345 345 345 345 346 346 345 344 343 343 343 342 342 341 341 341 338 336 336 335 332 330 329 329 330
328 324 326 319 319 325 322 321 323 321 320 316 320 326 339 345 341 345 345 347 345 347 346 345 345 344 345 344 344 343 343 342 342 342 342 341 340 339 340 341 339 337 336 333 329 328 329 331 332
327 328 325 322 322 323 323 321 321 320 318 317 320 326 336 344 343 345 346 348 345 345 345 345 344 344 344 343 343 343 342 341 339 338 337 340 340 337 335 339 341 334 330 326 319 320 329 332 332
326 324 322 329 326 324 323 320 321 322 320 317 321 339 339 340 344 344 348 348 347 346 345 345 344 344 344 342 342 342 341 338 339 338 340 339 337 335 332 334 340 334 329 328 320 318 327 329 330
324 322 328 328 325 325 324 323 322 323 321 319 317 337 343 341 342 347 348 348 348 346 344 344 344 343 342 342 342 341 340 339 338 338 338 335 336 332 325 331 338 337 331 329 325 318 327 329 329
323 322 328 327 325 323 322 322 322 323 320 318 325 340 342 344 349 349 348 348 348 347 344 344 344 343 342 342 341 341 340 338 337 336 336 334 334 326 325 329 335 338 334 331 330 320 321 329 329
322 322 324 325 323 323 322 323 324 324 322 321 316 342 341 338 348 349 347 347 348 346 345 344 344 343 343 341 341 341 338 337 336 335 334 334 328 330 330 329 334 338 336 333 331 327 320 324 328
320 320 324 321 325 325 322 323 323 323 323 318 321 340 345 338 348 348 347 347 346 345 345 344 343 343 342 341 341 339 337 336 334 328 331 331 331 331 330 329 332 337 336 334 332 330 323 323 325
318 324 328 325 323 323 322 324 322 322 323 321 319 334 337 341 346 346 347 347 347 346 347 345 343 343 342 341 339 337 336 335 333 329 326 322 330 330 331 332 335 336 336 334 332 331 327 319 324
323 326 324 321 321 323 326 325 324 323 322 322 321 336 343 346 345 345 344 347 345 345 344 348 344 342 342 342 339 337 336 335 334 333 330 319 329 331 333 333 334 334 335 334 332 330 328 322 321
323 323 321 323 321 323 325 325 326 325 324 322 322 324 338 344 345 344 344 343 346 344 343 348 344 342 341 342 339 337 336 335 335 334 332 329 323 331 334 333 333 332 332 332 332 331 329 324 317
324 321 320 320 322 323 323 321 324 325 324 321 320 319 329 337 340 343 343 344 344 343 342 343 342 342 342 342 339 337 336 336 335 334 333 331 326 326 330 331 330 332 331 331 330 331 330 322 318
322 322 321 319 320 320 320 320 321 323 322 321 321 317 332 335 337 340 343 344 343 342 341 342 343 342 342 341 339 338 337 336 335 335 334 333 332 321 323 326 325 328 330 329 328 329 329 323 319
321 321 320 319 319 319 320 319 320 319 322 323 323 316 333 334 335 337 341 343 343 342 341 341 341 342 342 340 339 339 338 337 336 335 335 335 334 329 326 325 324 327 327 327 326 325 327 323 319
318 321 321 320 318 319 317 320 320 319 324 324 323 315 320 332 336 338 340 341 343 343 343 343 341 340 342 341 340 339 338 337 336 335 335 335 335 332 330 328 327 327 325 325 324 324 325 325 320
318 319 323 319 319 318 317 321 318 323 324 324 323 319 315 318 332 337 340 341 343 343 344 343 342 342 341 341 340 340 339 338 336 336 336 336 336 334 332 330 328 328 326 326 325 326 326 327 327
317 318 320 321 317 318 317 319 317 318 320 320 318 320 314 313 316 331 337 339 340 341 341 343 342 342 341 341 341 340 341 338 336 337 337 335 336 336 333 332 329 329 328 326 327 327 327 327 327
316 317 318 319 319 317 318 318 317 318 318 319 317 315 313 313 312 316 335 338 338 339 340 340 340 340 340 337 338 339 339 336 334 335 336 335 334 334 334 333 331 329 329 328 326 327 328 327 326
316 316 318 317 316 319 318 318 317 315 315 315 316 319 313 312 313 313 314 322 333 337 338 339 340 340 339 339 338 337 339 338 336 334 335 333 332 332 333 333 332 330 330 330 329 327 327 327 326
317 317 318 316 316 317 318 318 317 316 316 314 313 314 312 312 311 310 311 313 317 324 333 337 339 340 339 339 339 339 339 339 339 337 334 333 333 333 332 332 331 331 331 330 330 329 327 327 327
316 317 315 317 315 315 317 318 318 317 314 314 312 312 311 310 308 308 308 309 313 315 317 329 337 339 339 338 339 338 338 338 339 340 339 337 334 333 333 332 332 331 330 330 330 330 330 329 329
320 315 316 318 315 317 315 318 314 318 317 315 315 312 310 309 307 307 308 310 311 312 313 314 316 320 325 334 338 339 339 338 338 338 339 339 338 338 337 336 334 332 331 330 330 330 329 329 328
319 318 318 319 317 316 314 316 314 309 315 316 315 315 310 308 306 307 308 311 312 312 312 312 312 312 313 314 319 332 338 339 339 339 338 337 337 336 336 336 336 335 335 332 331 331 330 329 328
317 319 319 319 318 319 314 316 315 311 311 313 313 312 311 307 307 308 311 312 312 313 311 311 311 311 311 311 312 313 318 327 334 335 336 335 334 334 334 334 334 333 333 332 332 332 332 331 330
317 317 320 322 323 319 312 316 318 311 307 308 309 309 307 305 307 309 311 312 312 312 312 312 312 312 312 312 310 310 311 313 315 318 319 318 321 327 331 335 334 332 331 331 330 330 329 327 328
316 313 310 315 320 317 311 316 315 308 307 305 305 307 306 307 308 310 311 312 311 311 312 312 312 312 312 312 312 312 312 311 311 312 313 315 318 322 327 331 334 332 331 330 329 329 327 325 324
318 314 311 310 308 306 311 310 308 306 308 308 307 308 308 308 309 310 310 311 310 310 310 310 310 310 311 311 311 312 313 313 314 315 317 321 323 325 327 327 329 329 329 328 327 325 322 321 320
314 313 315 317 309 314 311 309 312 309 310 309 309 308 308 309 309 308 308 308 308 308 308 308 309 309 310 310 311 311 311 312 313 313 314 316 318 319 322 324 325 324 322 320 320 320 320 316 314
317 318 316 312 310 312 311 310 304 306 308 309 309 309 310 310 309 308 306 306 307 306 307 307 307 308 308 308 308 308 308 308 309 310 310 311 312 313 314 315 315 314 314 314 315 315 312 308 308
314 315 314 307 316 310 301 309 305 303 305 309 310 311 310 309 308 306 305 304 304 304 304 305 306 306 305 305 305 304 304 304 304 304 305 305 307 308 308 308 308 307 307 307 307 306 306 306 304

GFSSGP_925_thetae_084.txt.gz
Theta_e
334 328 324 321 320 319 321 321 321 321 319 316 314 319 320 329 337 338 340 344 341 347 345 346 347 346 343 345 345 343 341 343 343 342 342 342 342 340 341 337 336 336 335 332 331 330 331 332 332
331 326 324 317 318 321 319 320 322 320 320 315 317 326 339 342 341 342 344 345 344 347 346 346 347 345 344 345 345 346 344 343 343 342 342 341 341 341 341 338 336 336 333 330 329 330 331 332 330
328 327 322 320 317 320 319 320 320 321 319 316 317 327 336 342 343 342 345 345 347 347 345 346 346 344 345 345 345 343 342 342 341 340 339 339 340 340 340 340 335 331 326 321 328 331 333 331 331
327 324 322 324 323 321 320 319 322 322 321 317 318 328 337 339 343 344 346 346 347 346 345 345 344 345 345 343 343 342 341 340 337 337 338 339 337 339 337 341 333 329 327 319 323 327 330 330 329
323 322 328 327 325 322 322 322 321 323 322 320 316 327 341 340 341 346 347 346 346 346 344 345 344 344 344 342 341 341 341 338 338 337 338 337 335 333 334 340 337 330 329 323 321 327 329 330 330
325 322 328 330 327 325 322 322 322 322 320 321 320 334 339 342 346 346 347 346 345 344 344 344 344 344 343 341 341 341 340 339 339 339 337 337 336 328 329 337 339 334 330 329 321 325 328 329 329
322 323 324 326 326 325 323 321 322 322 322 323 316 337 336 341 345 345 346 346 345 345 343 343 343 344 342 341 341 340 339 337 336 336 335 333 331 327 326 333 338 336 333 332 328 320 324 328 328
318 320 323 321 325 323 321 323 321 322 323 319 320 326 327 336 345 344 345 344 344 345 345 344 344 342 342 341 341 340 338 337 336 335 334 330 331 331 333 332 337 337 336 333 331 326 321 325 327
317 326 329 324 322 323 321 322 321 321 322 321 319 327 331 338 343 344 345 344 344 346 346 344 343 342 342 341 341 339 337 336 334 326 326 324 329 327 330 329 334 337 336 334 332 330 325 323 325
324 326 324 321 319 320 321 322 322 323 323 322 322 319 332 343 344 342 344 344 342 342 343 347 343 342 342 341 341 338 336 335 334 329 323 322 329 329 329 330 334 335 335 334 332 331 328 320 322
323 322 320 321 320 322 323 325 325 323 325 322 321 320 320 328 337 341 343 344 341 341 342 343 345 343 341 341 340 337 335 335 334 333 329 319 329 332 332 334 334 334 335 334 332 331 330 326 318
324 322 320 319 322 322 323 322 325 323 321 320 319 319 319 321 329 338 342 342 341 343 341 342 345 343 342 341 339 337 336 335 334 334 333 329 321 330 333 332 332 332 331 331 331 331 330 328 319
322 322 320 319 321 320 318 320 322 323 322 320 321 321 318 318 325 336 340 341 341 343 342 343 343 343 342 342 340 338 336 335 335 334 334 333 329 321 328 330 331 329 331 330 329 328 329 329 322
317 319 320 320 319 320 320 319 319 319 321 323 322 322 320 318 332 336 338 339 341 342 342 344 345 342 341 342 341 338 337 336 336 335 334 334 333 332 320 322 325 324 326 328 327 326 326 328 326
318 318 319 320 318 318 316 319 320 319 324 324 323 321 320 318 327 335 337 339 340 341 341 340 340 342 341 341 341 339 338 337 336 336 335 334 334 333 330 325 325 325 326 326 327 326 325 324 323
319 318 318 321 318 317 317 321 317 320 322 324 323 322 320 319 317 332 337 338 338 340 341 341 341 342 341 342 341 339 339 338 337 336 335 335 335 334 334 329 329 327 327 326 326 325 325 325 326
317 322 320 319 318 318 316 319 315 321 321 323 324 322 320 317 314 325 335 338 339 339 340 341 341 340 340 340 341 340 339 339 338 337 336 335 335 335 335 333 332 330 328 327 326 326 326 327 326
318 319 319 319 318 317 317 317 315 321 321 321 323 322 320 314 313 316 326 336 338 340 341 342 341 341 341 340 340 341 340 339 339 338 336 336 336 335 335 335 333 332 329 328 327 326 326 327 327
312 316 317 316 316 318 316 317 316 315 321 321 322 322 320 316 313 315 315 318 335 337 338 339 342 341 341 340 337 338 339 339 340 339 337 335 336 336 335 334 334 333 331 329 328 327 326 326 326
312 317 317 316 316 318 316 317 316 313 315 317 321 321 319 318 313 312 313 314 315 333 337 338 338 339 339 340 339 337 338 339 338 336 335 333 334 335 332 332 333 333 332 330 328 328 327 327 326
313 315 315 316 315 314 315 317 317 316 314 312 313 317 318 318 317 309 309 311 312 316 329 333 337 338 339 338 339 338 337 337 337 338 338 337 333 332 331 331 331 331 331 330 330 329 328 328 327
318 313 315 314 315 320 315 319 312 316 316 313 313 311 313 315 309 307 307 308 310 312 315 319 328 335 337 338 338 337 337 337 338 338 338 338 338 337 336 333 332 331 331 330 330 330 329 328 328
318 315 316 315 314 313 314 316 313 310 315 317 315 313 312 310 308 306 306 309 310 311 311 313 316 317 320 322 331 336 337 338 338 337 337 337 336 337 337 337 336 335 334 334 332 331 329 328 328
316 318 318 316 315 314 312 315 313 311 311 311 311 312 312 311 308 306 308 310 311 311 310 310 311 311 311 312 312 314 317 325 331 334 335 336 336 336 335 335 334 334 333 333 334 333 332 331 330
318 315 322 323 322 316 311 314 316 310 307 308 308 309 310 309 307 307 309 310 310 310 311 311 311 311 312 311 310 310 311 312 314 320 325 327 326 326 328 330 332 333 333 332 331 331 331 330 327
318 313 309 313 317 316 311 315 314 309 308 307 306 306 306 306 306 308 310 310 310 311 311 311 311 311 312 312 312 311 311 310 310 311 312 313 315 317 319 324 329 333 333 331 331 329 329 327 327
317 317 308 307 305 308 311 309 307 307 306 305 305 305 305 305 307 309 309 309 309 310 310 311 311 311 311 311 312 312 312 313 313 314 315 318 319 321 323 325 325 328 328 328 328 328 327 324 320
314 312 313 312 309 314 311 309 311 310 308 307 307 306 306 307 308 308 308 307 308 309 309 309 309 310 310 310 310 311 311 312 312 313 314 315 317 319 319 321 323 323 324 324 323 322 319 317 318
317 314 314 311 307 310 311 311 303 307 305 304 307 306 307 308 307 307 305 306 306 307 307 308 308 308 308 308 308 308 308 308 309 309 310 311 311 313 314 315 316 316 316 316 316 315 314 316 314
313 314 313 309 312 307 302 310 305 303 302 303 307 308 308 308 307 305 304 304 304 305 305 306 306 306 306 305 305 305 304 304 305 305 305 306 307 309 309 309 309 309 309 309 309 310 309 307 305

GFSSGP_925_thetae_087.txt.gz
Theta_e
332 328 323 322 324 322 322 322 322 322 320 318 317 318 322 328 339 343 339 343 342 347 349 348 343 345 346 346 343 339 339 339 342 342 343 342 340 339 337 337 336 335 334 333 332 333 333 333 332
331 325 323 319 322 323 322 321 323 322 321 319 316 328 336 337 343 341 344 343 344 347 349 349 346 345 345 345 344 340 341 342 340 341 342 342 341 341 338 337 336 333 331 331 332 332 332 331 330
328 327 326 325 320 322 321 320 321 322 320 320 322 325 336 342 343 341 343 343 347 348 348 348 346 345 344 345 345 343 343 342 342 341 340 341 341 342 339 338 334 329 328 331 333 333 333 331 330
327 325 323 326 322 320 319 321 323 323 322 320 318 326 337 339 342 342 344 346 348 348 348 347 345 343 344 345 345 343 342 341 340 339 338 339 339 340 341 333 330 326 320 329 333 332 330 329 333
323 325 331 329 325 321 320 321 322 323 323 322 320 329 341 341 342 345 346 348 348 347 347 347 345 344 344 346 343 342 342 338 338 336 339 338 336 335 341 336 330 329 322 323 329 329 329 329 330
326 325 331 331 327 324 323 322 322 322 322 322 323 325 341 342 344 345 346 347 347 347 346 346 344 345 344 342 342 341 338 340 338 338 337 338 335 331 336 339 333 330 328 323 328 328 329 329 330
326 327 329 327 327 327 326 321 322 323 323 324 321 334 331 341 344 345 345 346 347 345 345 346 345 344 343 342 341 341 339 340 339 337 336 334 334 326 332 339 337 332 332 327 324 328 328 329 329
321 324 326 325 328 328 324 323 321 322 324 320 321 326 327 336 344 346 344 343 343 344 345 343 344 345 343 342 342 340 339 337 336 336 335 333 328 326 328 338 337 336 333 332 327 323 325 328 328
318 327 329 327 325 326 321 323 321 321 323 321 323 331 331 338 343 345 344 344 343 345 345 344 344 344 342 342 341 340 338 337 335 334 331 329 324 327 327 334 337 337 336 332 331 327 321 323 327
324 327 326 322 320 323 321 321 323 323 323 322 321 322 324 336 342 343 344 344 345 343 342 343 344 342 342 341 341 339 337 335 334 326 323 322 329 327 328 330 336 335 336 334 332 330 327 320 323
322 323 321 320 320 320 322 324 324 324 325 323 323 322 323 323 325 337 341 343 343 342 342 342 346 342 342 341 341 338 336 335 334 330 322 321 328 328 328 331 334 334 335 334 332 331 329 327 320
322 321 320 320 321 322 323 323 325 323 323 321 321 321 320 321 322 326 337 342 341 340 341 342 342 343 342 341 340 338 336 335 334 333 330 320 327 330 332 334 334 334 334 334 332 331 330 329 326
321 321 320 319 321 321 320 323 323 324 322 321 321 322 321 320 321 326 331 341 340 340 340 341 341 342 343 341 340 338 336 335 334 334 333 331 322 326 331 332 332 332 331 331 330 329 328 329 328
318 319 321 319 319 320 321 320 321 321 320 323 323 323 322 322 320 324 335 339 340 340 340 341 341 341 343 341 340 338 337 336 335 334 334 333 332 328 323 329 330 329 326 328 329 327 325 326 328
318 319 319 320 320 319 317 321 321 319 322 323 323 323 322 321 320 319 331 338 339 339 340 341 341 341 343 342 341 340 337 336 335 335 335 334 333 333 332 322 322 324 324 326 326 326 326 324 324
319 317 322 318 319 319 318 325 318 317 322 322 323 323 322 321 319 319 320 335 336 337 338 340 340 343 343 341 341 341 338 337 337 336 336 335 334 334 333 332 326 326 326 326 326 326 325 325 324
318 321 318 320 319 318 318 321 317 318 321 320 322 322 322 321 319 317 318 334 336 336 337 337 339 338 340 341 341 341 339 338 338 337 337 336 335 334 334 334 332 330 328 327 327 326 326 325 326
316 319 318 319 321 318 317 317 315 319 321 321 322 323 322 321 321 317 315 332 336 335 336 338 339 339 339 339 340 341 340 339 338 338 338 337 335 335 335 334 334 332 331 329 327 327 326 326 326
315 317 319 317 316 320 319 318 317 319 321 320 322 323 322 322 320 317 315 317 332 336 338 336 336 337 338 339 339 340 340 340 339 338 339 338 336 335 335 335 335 334 333 332 329 327 327 326 326
315 317 318 316 316 320 318 319 317 315 321 321 322 322 322 321 320 315 315 313 314 330 335 335 338 339 339 339 339 338 339 339 340 340 339 339 338 335 335 335 335 334 334 332 331 328 326 326 326
314 317 316 317 316 314 317 320 318 316 314 316 318 321 320 321 320 318 313 315 313 313 326 335 337 338 339 339 339 338 336 336 337 338 338 337 335 334 333 334 333 331 332 332 331 330 327 326 327
315 314 315 317 319 321 314 321 314 317 316 315 317 315 319 319 318 311 309 311 313 313 313 322 332 336 337 337 337 338 337 336 337 337 337 337 338 338 335 333 331 331 331 330 330 329 329 328 327
317 313 315 313 314 314 316 320 316 310 318 317 314 312 312 314 314 314 310 310 310 310 310 314 319 329 335 337 337 337 337 337 336 336 336 336 336 336 337 336 335 333 332 332 331 331 329 328 327
309 316 316 316 314 318 313 318 316 313 313 316 317 314 314 313 312 311 309 309 310 311 310 311 315 317 318 322 328 333 335 335 335 335 336 336 336 336 335 335 335 335 335 334 334 333 331 329 329
309 317 321 320 319 316 310 316 317 311 309 309 311 312 312 313 314 312 309 310 310 310 309 310 310 311 310 310 311 311 311 312 313 316 321 325 327 328 329 331 332 333 333 333 333 333 333 331 330
317 313 314 316 318 316 311 318 316 310 309 307 307 306 306 310 309 309 309 310 310 310 310 311 311 311 311 311 311 311 311 310 310 310 311 313 315 317 318 320 325 328 331 332 332 331 330 329 327
318 313 307 308 305 314 314 310 308 307 307 306 306 306 306 305 306 308 310 310 309 310 310 311 311 311 311 311 312 312 312 312 312 312 313 314 315 315 316 317 319 321 327 329 330 329 328 326 325
315 312 315 310 313 317 312 310 313 310 309 306 307 307 306 306 306 309 309 308 309 309 309 310 310 310 310 310 311 311 311 311 311 312 313 315 316 318 319 319 320 322 323 325 326 324 323 322 318
316 318 312 311 310 314 314 312 306 308 306 304 303 305 306 307 308 309 307 306 307 307 308 308 309 309 309 309 309 309 309 309 309 310 310 310 312 313 315 317 318 319 319 319 320 319 317 314 314
313 314 311 312 315 303 307 313 305 304 303 302 304 307 307 308 308 307 305 304 305 305 306 307 307 307 307 307 307 307 306 306 306 306 306 306 308 308 309 310 311 312 313 312 313 313 311 310 309

GFSSGP_925_thetae_090.txt.gz
Theta_e
333 330 325 327 325 324 324 323 324 324 323 323 324 323 327 327 342 347 343 344 344 348 348 345 345 345 344 344 344 344 343 343 342 342 341 341 339 338 337 337 336 335 335 335 336 335 333 332 331
331 327 325 326 325 325 324 322 324 325 325 324 323 324 329 331 342 345 345 345 346 347 349 346 345 345 345 344 343 340 340 342 342 341 342 342 339 338 338 336 333 333 333 334 334 333 333 333 334
331 327 326 325 324 326 325 323 323 325 324 325 325 329 334 340 345 345 345 345 346 348 349 347 344 345 345 344 340 340 341 340 340 340 341 341 341 339 339 336 331 331 333 334 334 334 333 330 332
328 326 326 326 326 324 323 323 324 326 326 325 324 332 342 344 345 344 345 345 346 347 349 349 345 344 345 344 342 343 342 342 341 339 340 340 343 340 338 329 322 323 331 334 334 332 333 334 334
326 328 328 327 326 324 322 324 324 326 326 326 326 335 345 346 346 346 345 346 346 346 348 348 345 344 344 345 345 343 342 341 339 338 338 339 339 342 333 330 326 320 328 331 331 330 329 333 331
329 327 329 329 326 324 322 325 324 324 325 326 327 336 346 344 346 346 345 347 347 346 349 349 346 343 344 345 343 341 341 338 338 337 337 337 337 341 338 331 330 324 325 329 330 330 329 331 331
328 328 329 326 326 326 323 324 325 325 324 326 329 337 341 345 346 347 346 346 346 347 348 348 347 346 345 344 341 341 339 338 339 337 334 333 331 334 341 335 331 331 325 328 329 330 329 329 331
326 328 328 326 326 327 325 324 324 324 325 322 323 332 334 335 346 345 347 346 346 345 346 346 347 347 346 345 341 339 341 339 338 337 336 332 330 326 339 339 335 333 330 323 322 326 328 328 329
324 330 331 327 326 326 326 326 325 324 325 325 331 331 338 340 345 345 345 345 345 345 345 345 347 346 346 344 344 340 339 338 337 336 334 331 330 327 333 340 337 336 333 331 327 322 324 327 327
323 328 327 325 325 325 325 326 326 326 325 325 327 327 339 342 346 346 345 344 343 345 345 346 346 346 345 344 343 341 339 338 337 334 333 330 331 332 331 338 335 336 336 333 332 329 323 324 328
322 321 323 324 324 324 325 325 324 325 326 325 325 328 333 329 332 338 342 345 344 344 344 346 345 345 344 343 342 341 339 337 335 331 328 329 332 331 331 335 336 335 335 336 334 333 332 330 324
321 320 320 323 323 323 324 323 325 324 324 324 324 326 329 330 326 326 334 341 344 342 343 342 344 345 344 343 342 340 339 337 335 333 327 328 331 332 331 333 335 337 336 337 336 334 333 332 329
319 318 320 321 322 323 323 325 324 325 324 324 324 325 326 327 326 327 327 335 342 342 342 343 342 344 344 343 341 340 339 337 336 334 331 327 329 331 333 334 334 335 335 334 334 333 332 332 331
315 317 320 320 321 323 323 323 324 324 324 325 325 326 326 325 325 327 333 338 342 341 341 343 343 344 344 343 342 341 339 338 336 335 334 332 329 329 331 333 333 333 332 332 332 330 329 329 330
315 316 320 321 320 322 323 324 325 323 324 325 325 325 325 325 323 323 327 337 341 341 342 341 342 341 343 343 342 341 340 338 337 336 336 334 333 332 331 329 330 330 330 329 330 330 328 327 327
317 317 320 320 321 320 322 325 323 323 323 325 325 325 325 325 323 322 319 335 340 341 341 342 342 343 343 343 342 342 341 339 338 337 336 335 334 334 332 332 328 328 329 330 330 330 329 328 328
316 317 317 320 321 321 323 320 321 322 323 324 323 324 325 325 323 321 319 325 337 339 340 341 342 342 342 343 341 342 341 340 339 338 338 337 335 334 334 333 332 329 329 329 330 330 329 329 329
317 316 315 319 322 322 322 321 320 321 322 323 322 322 324 325 325 322 319 322 336 339 340 340 338 342 341 342 340 339 341 340 340 339 339 338 337 336 335 335 334 333 331 331 330 330 330 329 329
313 314 315 316 320 322 321 320 320 319 321 321 321 322 323 324 324 322 319 317 335 338 339 339 337 339 339 339 340 341 340 340 339 339 339 339 338 337 336 336 335 334 333 332 331 330 329 330 329
316 314 317 315 320 321 320 321 320 320 320 320 321 320 322 324 325 323 320 316 324 336 338 339 336 334 337 339 338 337 338 338 339 339 338 338 338 338 337 336 335 334 333 332 331 330 330 329 329
316 314 316 318 319 319 320 321 319 319 319 319 320 321 321 324 324 323 321 318 316 316 331 335 335 325 330 335 335 335 336 336 336 337 337 338 337 337 337 335 335 334 333 333 332 331 330 330 330
317 313 316 318 319 320 320 319 319 319 320 320 320 321 322 324 324 323 320 317 315 314 314 319 333 334 329 324 335 336 336 337 336 336 338 338 337 336 335 335 333 333 333 331 332 332 331 330 331
317 315 315 317 318 319 321 322 318 317 321 321 320 320 321 322 322 322 318 317 314 314 312 313 318 331 334 335 328 336 337 337 337 336 336 336 336 337 336 337 334 332 331 331 331 331 330 330 331
310 315 317 317 319 321 317 320 316 317 317 319 319 320 320 319 320 320 319 314 314 313 313 311 313 319 327 330 332 336 336 337 336 335 335 336 336 336 334 334 334 335 334 332 331 331 330 330 330
309 317 321 321 321 318 314 319 317 316 315 316 317 319 320 319 319 319 319 315 314 313 313 312 312 314 317 319 324 330 328 327 327 328 327 328 327 328 330 331 332 334 336 336 334 331 330 330 329
312 316 317 315 316 314 315 319 314 315 315 315 314 314 314 318 319 319 318 317 314 312 313 312 313 313 312 311 312 311 311 311 311 311 312 315 317 320 320 322 324 326 329 333 332 331 331 330 329
317 319 312 316 313 315 315 315 314 313 314 313 313 313 313 313 314 317 317 315 314 313 313 313 313 313 313 313 312 312 311 311 312 311 312 312 313 314 315 316 318 319 321 326 329 329 330 329 328
310 314 319 319 320 317 316 315 311 314 314 312 312 313 313 312 312 311 313 314 313 312 312 312 312 312 312 311 311 310 310 311 311 311 312 314 315 316 316 318 319 320 321 322 325 327 327 326 324
315 319 315 316 318 317 317 315 312 311 312 311 310 310 310 312 312 312 312 312 312 311 310 310 310 310 309 308 308 307 307 308 309 309 310 311 312 313 315 316 317 318 319 320 322 322 321 319 318
314 317 315 320 319 313 317 315 308 310 310 310 312 312 311 311 312 312 312 311 311 310 310 309 308 307 306 305 305 304 304 304 304 304 306 307 307 309 310 312 313 314 315 316 316 316 314 310 308

GFSSGP_925_thetae_093.txt.gz
Theta_e
333 333 326 327 328 325 326 325 324 325 326 326 326 327 333 334 345 352 343 342 347 347 346 348 345 343 339 341 344 344 342 342 341 342 340 339 338 338 338 337 337 337 337 336 334 333 332 331 330
329 332 325 327 328 327 327 325 325 325 325 325 325 325 328 337 345 346 345 344 348 346 346 347 344 344 344 345 345 343 342 342 340 341 341 338 338 338 336 335 335 335 336 335 334 335 335 335 332
331 331 327 329 329 328 327 325 324 325 325 325 324 327 330 342 344 346 345 345 347 346 345 347 345 344 344 344 342 341 342 341 340 339 340 339 339 338 335 333 333 335 334 335 335 334 335 335 333
330 328 329 328 329 326 327 325 323 326 326 326 325 326 342 346 346 346 344 345 346 347 345 346 345 345 344 343 339 340 340 341 340 340 340 340 340 339 333 328 332 332 334 335 335 335 335 335 334
329 329 329 330 328 327 326 324 324 326 326 326 326 333 344 346 347 346 344 345 345 348 348 346 345 344 345 341 341 343 341 340 339 339 339 343 341 333 329 322 328 333 334 334 334 335 334 332 333
330 329 331 331 328 327 326 324 324 325 327 326 327 333 349 345 346 346 344 344 344 347 349 347 345 344 344 344 343 342 342 339 337 336 338 338 343 335 330 328 323 331 334 334 333 331 334 331 332
330 330 330 328 326 326 325 325 324 325 327 327 330 334 346 346 347 345 345 347 345 347 348 347 347 346 345 345 343 341 339 338 338 335 330 330 339 341 333 331 328 325 330 329 328 328 330 330 329
327 330 329 327 327 326 325 325 325 324 326 325 327 338 343 347 346 346 347 346 346 347 348 346 346 346 346 346 341 340 339 338 337 334 334 332 327 340 338 334 332 327 323 325 327 328 328 329 330
324 330 331 327 326 325 325 324 324 325 326 326 330 334 338 340 345 348 346 346 344 345 348 345 345 346 346 345 343 340 340 339 337 336 335 330 331 334 338 339 334 332 329 324 322 323 326 327 328
324 329 329 325 324 324 325 326 326 326 326 328 329 337 339 342 346 345 347 345 344 345 345 345 347 346 345 345 343 343 341 339 338 337 334 332 329 329 340 338 335 335 333 331 329 324 320 327 329
322 325 325 324 324 325 325 326 327 327 326 326 327 336 341 345 345 345 345 344 344 344 345 344 346 346 345 344 343 342 340 339 338 334 333 330 332 332 337 338 335 335 335 335 333 330 332 329 326
321 320 320 323 325 325 326 325 326 327 327 326 325 329 336 341 342 343 344 346 343 344 345 344 346 346 344 344 342 341 340 338 336 332 328 330 332 331 331 336 338 335 336 336 335 335 334 333 330
318 319 318 319 322 325 324 326 326 325 325 325 325 327 331 334 336 338 338 342 344 344 343 345 344 346 344 342 342 341 340 338 337 334 328 328 331 332 331 333 335 336 336 336 335 334 333 333 332
316 317 318 319 323 323 325 324 323 324 324 325 325 326 327 329 330 332 337 338 343 343 343 344 343 344 343 342 342 340 339 338 338 336 333 329 328 331 333 334 334 334 334 333 333 332 330 330 331
315 317 317 319 319 322 322 323 324 323 324 325 325 325 327 327 326 331 331 336 341 342 342 341 343 343 344 342 342 341 339 338 338 337 336 334 332 331 331 331 332 332 331 330 331 331 329 328 327
315 317 318 317 319 319 322 323 321 322 323 325 324 325 327 327 325 326 334 337 342 341 342 342 342 343 342 342 342 341 340 339 339 338 337 337 335 334 334 333 330 330 330 330 331 330 330 328 329
316 324 316 315 319 318 322 321 319 321 323 324 324 324 325 326 325 324 330 338 340 340 341 342 341 342 342 341 341 341 341 340 339 338 338 338 336 335 335 334 332 329 330 331 331 331 330 331 331
321 320 316 315 320 320 321 321 319 322 322 322 323 323 324 325 325 324 326 333 338 339 340 341 342 343 342 343 341 340 339 340 339 338 338 338 337 337 336 335 335 333 331 331 332 332 331 331 331
317 316 315 313 318 319 321 319 320 321 322 322 321 322 323 324 325 324 323 333 337 338 339 340 341 341 341 340 341 340 339 339 340 339 340 340 338 338 337 337 336 336 334 333 333 332 332 332 331
315 318 315 313 319 319 320 320 320 320 321 321 321 321 321 322 324 325 323 325 336 338 339 339 338 340 341 341 341 340 340 340 340 339 340 340 340 339 338 338 337 337 336 335 334 333 332 331 331
315 318 317 314 319 319 320 320 320 319 320 320 320 320 320 321 323 325 323 322 333 337 338 338 335 337 339 340 338 338 338 337 338 339 339 338 338 339 339 338 337 337 336 335 334 333 331 332 331
318 315 316 316 319 319 318 321 318 318 319 319 320 320 320 321 322 325 324 322 320 321 330 337 337 336 335 337 338 336 335 334 333 331 329 336 337 336 336 336 336 336 336 335 335 334 333 332 333
318 316 315 317 318 317 319 319 317 317 319 319 319 319 319 321 323 324 324 322 320 318 318 321 328 334 334 332 331 334 331 331 330 328 334 336 336 334 334 332 333 333 334 334 334 334 333 333 332
311 317 318 317 318 323 318 317 315 319 318 319 319 319 319 320 323 324 321 320 319 319 317 318 320 327 333 334 328 325 325 327 331 332 331 329 329 337 336 336 334 334 333 332 332 332 333 332 332
311 318 323 321 322 317 315 318 317 316 316 317 319 319 319 320 322 323 323 320 318 318 317 315 316 317 322 325 330 333 332 325 324 326 326 327 332 334 334 334 334 333 333 333 333 332 332 332 331
313 317 321 320 321 317 315 316 316 315 315 315 316 317 319 320 320 320 321 321 318 317 314 313 313 314 314 317 319 325 328 328 328 327 323 323 322 322 324 324 325 328 329 330 331 331 331 331 330
315 317 315 318 315 317 315 313 314 315 315 315 316 315 315 317 318 320 319 319 319 316 315 315 315 315 314 315 315 314 314 314 313 313 313 314 315 316 317 317 319 321 323 324 327 327 328 329 329
311 311 318 321 318 317 315 312 315 315 315 315 315 315 315 315 315 316 318 319 318 317 315 315 315 315 315 314 314 313 313 312 313 313 313 313 313 314 315 316 317 317 318 319 323 325 328 328 327
314 318 319 318 320 317 317 314 314 314 313 313 313 312 313 315 314 314 314 316 316 315 315 314 314 313 312 312 311 310 309 309 309 309 309 309 309 310 311 313 314 314 315 319 320 321 322 322 322
314 316 317 321 320 318 319 316 313 313 313 313 314 314 314 314 314 314 314 314 315 314 313 313 312 311 310 309 309 308 307 307 307 306 306 306 306 306 308 309 310 312 314 315 316 318 317 316 314

GFSSGP_925_thetae_096.txt.gz
Theta_e
331 333 333 328 333 326 327 323 323 322 326 326 324 325 330 347 351 353 343 347 350 348 347 345 346 346 344 342 343 343 342 339 339 339 339 338 338 338 339 339 338 337 336 334 332 331 331 331 330
327 331 331 328 331 328 325 324 322 324 325 323 324 326 331 350 346 345 343 348 347 348 346 345 344 343 339 342 343 341 341 339 339 337 338 338 337 336 336 336 337 336 335 335 335 334 333 334 331
326 329 329 329 329 329 326 324 322 324 324 324 325 325 334 347 345 345 344 347 345 347 347 346 343 340 343 344 343 342 341 338 339 336 337 338 336 334 334 335 335 334 334 335 335 335 334 335 334
327 331 331 330 330 327 326 324 323 325 325 323 323 335 347 346 346 345 345 347 345 345 347 343 344 344 344 344 342 341 340 339 338 338 337 338 337 332 333 334 333 333 334 335 336 335 334 335 334
326 330 332 332 328 327 325 325 324 325 325 324 324 337 350 345 346 344 346 347 344 346 346 344 343 344 344 340 339 340 339 339 339 341 340 339 335 328 330 331 332 332 334 335 335 334 335 333 333
329 329 332 332 330 326 325 324 324 324 324 324 323 336 349 345 346 344 345 347 345 346 344 344 345 344 342 339 342 341 340 338 337 337 342 340 332 328 320 327 332 333 334 333 334 332 330 332 333
329 330 332 329 328 326 325 322 322 323 325 326 326 330 346 347 345 344 345 346 347 345 346 345 345 344 342 342 342 341 340 338 336 335 335 342 337 331 328 321 327 331 328 328 329 330 329 328 327
326 329 331 328 328 326 325 324 322 323 326 325 329 341 350 347 344 344 346 348 349 347 346 346 345 344 344 344 341 340 338 337 335 330 329 338 340 335 332 329 324 325 326 327 327 328 329 328 326
323 330 331 330 327 325 324 324 324 323 324 327 333 338 346 346 345 345 346 346 348 347 345 346 345 345 345 344 341 339 338 337 334 335 333 329 337 338 336 335 331 324 321 322 324 326 326 327 327
324 327 328 327 325 324 325 324 324 325 325 328 337 337 345 345 347 346 345 344 346 348 346 346 344 346 346 344 341 339 339 337 336 336 332 331 327 339 337 336 334 333 329 327 322 320 322 328 329
321 324 324 326 325 326 328 326 324 324 326 327 335 339 342 345 345 346 344 344 345 347 345 345 345 346 345 344 342 341 339 339 338 337 331 333 327 334 340 334 333 334 333 332 330 327 329 328 327
321 319 321 324 324 326 326 327 327 325 324 325 331 337 343 345 344 344 345 343 344 345 345 346 347 345 344 343 342 341 339 339 338 334 332 331 333 331 339 336 334 334 334 333 334 335 333 332 329
319 318 318 319 322 324 325 326 326 327 325 323 330 335 337 343 342 344 344 344 343 343 344 344 346 345 344 342 342 339 339 338 336 331 328 330 331 330 332 338 335 334 334 334 334 336 334 333 332
318 317 318 318 321 323 325 326 326 325 324 323 326 327 331 333 341 339 341 343 343 344 343 344 345 345 344 343 341 338 337 337 336 333 328 327 330 331 330 333 336 336 336 336 335 333 332 331 331
315 317 318 318 322 324 323 326 327 325 322 324 324 324 325 329 333 338 339 341 342 344 344 344 344 344 344 342 341 340 338 337 337 336 334 329 328 330 333 334 334 334 334 333 332 331 330 328 328
316 316 320 318 320 322 322 327 324 322 324 324 323 322 324 325 326 330 334 339 341 342 342 343 343 343 344 342 340 340 338 338 337 337 336 334 332 330 331 331 332 332 331 330 330 330 330 328 327
315 319 319 317 318 318 322 322 320 320 320 323 322 321 323 324 323 326 332 335 340 342 341 341 341 341 342 343 342 340 339 338 338 338 337 337 336 334 333 333 331 329 330 330 330 330 330 330 329
315 316 316 316 315 319 318 318 318 318 319 319 320 319 321 324 323 324 329 336 341 342 341 341 341 342 342 340 342 341 341 339 338 339 338 338 337 335 335 334 334 330 329 330 330 331 330 330 330
315 315 315 314 315 316 319 319 318 318 319 318 319 320 319 320 321 324 326 336 339 340 341 343 342 341 341 342 340 340 339 340 339 339 337 337 338 337 336 335 335 334 331 331 331 332 332 331 330
314 319 316 316 316 317 319 320 318 317 320 319 319 318 318 319 320 321 326 332 337 339 339 341 341 342 342 341 341 341 339 338 339 339 338 339 339 338 337 336 336 336 335 334 333 333 332 332 332
313 316 318 319 318 319 318 320 320 317 318 318 319 317 317 317 319 320 321 329 336 338 339 340 340 339 341 340 339 340 339 338 338 337 336 337 337 337 337 338 337 336 336 336 335 334 333 332 331
315 314 314 317 319 325 320 323 322 319 318 318 316 316 316 317 317 318 321 324 335 337 338 339 338 339 340 338 338 337 336 336 335 335 335 333 332 334 335 335 335 334 334 335 335 334 334 332 331
315 314 317 319 319 318 320 320 319 319 317 317 317 316 316 316 317 318 319 321 323 328 336 337 335 337 339 337 335 335 334 332 330 330 330 331 329 328 329 330 331 330 329 333 334 333 333 333 332
312 316 318 318 319 322 319 317 313 314 316 316 316 316 316 315 316 319 322 322 320 318 320 322 335 335 332 328 326 325 325 324 328 328 328 328 332 332 330 329 331 332 329 326 329 328 330 332 333
312 317 321 322 321 322 317 317 313 314 315 315 316 316 315 314 316 319 319 319 319 318 317 317 322 331 334 331 330 326 323 323 323 324 323 322 323 323 325 328 330 326 328 331 332 332 332 332 332
313 316 320 317 317 314 316 322 314 313 313 314 314 315 314 315 316 318 318 318 318 319 317 317 316 318 322 326 328 328 324 322 322 323 321 322 322 322 320 319 325 328 329 330 330 331 332 332 332
314 317 314 319 315 316 313 312 311 312 313 314 314 314 314 316 315 317 317 318 318 318 317 314 315 314 315 317 320 320 319 322 326 325 324 321 320 319 321 320 318 318 320 322 324 325 327 328 330
311 310 318 319 321 324 314 311 314 313 312 313 313 313 313 314 315 314 315 317 318 317 315 314 315 314 314 315 315 314 314 314 314 313 313 314 314 313 313 314 315 316 317 317 319 321 323 326 327
311 313 316 318 318 318 315 313 312 311 312 312 311 311 312 312 312 311 312 316 317 316 315 315 315 315 314 314 314 313 311 311 311 311 311 311 311 312 313 313 314 314 315 316 318 318 319 321 323
313 313 316 320 319 317 318 313 310 311 311 312 313 313 312 312 311 311 310 314 315 315 315 314 313 313 312 311 311 311 310 310 309 309 309 308 308 309 309 310 311 311 312 313 314 316 317 318 318

GFSSGP_925_thetae_099.txt.gz
Theta_e
317 323 332 332 330 326 326 320 321 321 322 323 322 342 348 347 349 350 347 349 348 346 347 347 346 344 342 343 342 340 338 338 337 338 339 341 342 342 340 339 337 335 334 332 332 332 331 328 333
316 326 329 326 329 327 321 321 320 320 322 321 322 329 345 348 345 345 349 349 346 346 346 346 346 345 343 343 342 338 338 337 336 337 337 337 337 338 338 337 336 335 334 334 333 334 330 332 336
323 326 330 327 326 329 324 320 322 322 322 323 322 335 345 347 343 343 349 349 346 346 346 346 346 341 341 341 341 338 338 334 335 335 335 335 335 336 336 335 334 334 335 334 335 335 334 335 334
325 327 330 328 329 326 324 321 321 323 323 322 330 351 345 344 344 346 348 348 345 346 344 344 341 340 343 342 341 338 338 336 334 336 334 333 334 335 334 334 332 330 332 335 335 336 335 334 333
325 327 334 332 328 324 322 323 323 323 322 322 322 349 347 344 345 346 347 345 345 346 344 340 341 343 343 342 341 338 337 338 336 338 337 333 333 333 334 333 332 335 336 335 335 335 333 333 333
326 328 331 332 329 324 322 324 323 323 322 322 325 346 346 344 345 345 345 345 346 345 344 343 344 343 342 339 339 338 338 338 340 339 336 333 332 334 334 332 332 333 335 334 334 332 333 333 331
325 329 332 328 328 326 324 323 321 322 322 325 325 345 345 344 344 344 344 345 346 343 342 343 344 342 339 340 339 338 337 337 338 342 337 330 324 322 329 331 333 331 330 333 330 329 329 328 326
324 329 330 327 328 327 324 323 320 321 324 325 329 346 350 344 345 344 345 346 345 343 344 344 343 341 340 341 341 339 337 336 335 339 340 335 330 324 320 325 325 326 327 328 328 327 325 324 324
320 327 331 328 326 326 323 323 322 320 324 333 337 342 344 345 346 347 347 346 345 344 343 344 344 342 342 341 340 338 337 334 329 330 339 338 335 332 329 322 320 323 325 325 325 326 326 325 324
322 326 324 324 324 325 327 324 324 327 329 338 340 344 346 345 344 345 347 347 346 345 344 343 344 344 343 341 339 337 336 333 334 332 328 335 337 336 334 332 327 322 320 320 321 323 323 326 325
319 323 322 323 323 326 326 327 326 325 329 336 342 346 345 346 345 344 344 347 345 345 345 343 344 344 343 341 339 338 337 335 336 334 327 327 335 336 336 333 333 332 330 328 324 319 327 327 328
320 319 320 322 326 326 326 326 328 326 324 332 337 344 343 345 344 342 343 344 346 345 345 344 343 345 344 340 339 339 338 337 337 330 332 332 332 337 336 333 332 333 332 332 331 332 331 330 328
317 318 318 318 323 322 325 326 327 327 325 325 338 342 343 343 343 343 342 344 346 345 345 344 344 345 344 340 340 338 338 339 337 332 332 331 329 334 337 335 333 333 333 333 333 335 334 332 331
316 316 316 318 322 322 326 327 327 327 324 325 336 339 341 342 341 342 343 343 344 344 345 346 345 344 343 341 338 337 338 339 335 330 329 331 331 330 334 335 335 334 334 334 334 335 333 332 332
315 316 317 320 322 324 324 327 328 326 326 326 329 331 334 339 340 340 342 343 343 343 343 344 345 345 343 342 339 338 338 336 335 333 327 328 331 331 330 333 336 336 336 335 335 333 331 330 329
317 316 319 318 320 322 324 325 325 325 325 325 325 321 329 332 337 339 340 341 342 341 343 344 343 344 343 342 339 338 339 337 336 336 333 326 328 330 332 333 335 334 333 332 332 331 330 329 327
314 321 318 319 318 324 323 324 323 324 325 324 322 320 324 325 326 335 339 340 341 340 341 343 343 343 343 341 340 338 338 337 337 336 336 334 329 329 330 332 332 333 332 331 330 330 330 329 328
315 317 316 318 318 323 322 321 319 324 324 323 322 320 320 322 322 328 332 338 339 342 340 341 341 343 343 342 340 339 338 337 337 337 336 336 335 334 332 332 331 330 329 330 330 330 330 330 330
313 315 316 314 315 321 323 321 319 320 323 323 322 323 316 321 320 325 332 335 339 341 341 341 342 341 341 342 341 340 339 338 338 338 338 337 336 335 335 334 333 333 329 329 330 330 331 330 330
313 315 314 313 314 315 317 319 318 316 317 319 319 319 316 316 317 320 330 336 339 341 341 340 340 340 342 340 341 341 340 340 338 339 338 338 337 336 335 335 335 334 332 331 331 331 331 331 331
312 317 314 315 316 316 316 319 320 318 315 318 317 316 315 315 316 320 325 335 338 339 340 340 339 340 340 341 340 340 339 339 339 339 338 337 336 336 336 335 335 336 335 334 334 333 332 332 331
317 315 314 318 319 321 319 322 319 318 317 316 315 315 315 314 315 319 324 330 336 338 338 339 339 337 340 338 339 338 338 337 337 338 336 335 334 335 335 336 335 335 335 335 334 334 334 333 331
316 314 317 317 318 317 321 322 318 318 318 317 316 313 313 312 313 316 318 328 335 337 338 339 340 340 339 340 338 337 335 335 335 334 332 330 328 329 328 329 333 332 331 331 330 329 330 330 332
312 317 318 318 320 318 320 320 312 319 319 316 314 313 313 313 313 315 320 326 332 334 336 337 336 339 339 337 336 335 333 331 332 332 331 330 330 329 329 330 330 330 329 327 327 327 326 327 328
312 316 321 321 322 317 318 318 313 313 315 315 314 312 312 312 313 315 317 316 319 323 331 331 334 336 337 335 331 331 328 328 327 325 326 325 327 328 324 325 327 327 324 321 320 322 326 324 326
313 314 315 321 320 314 316 318 315 310 311 313 312 311 312 312 311 316 317 317 318 318 320 323 329 333 332 328 326 325 326 326 327 326 323 322 322 322 322 323 323 323 322 321 320 318 321 326 327
314 315 314 317 316 312 316 312 309 311 311 310 311 310 311 311 311 315 316 317 317 317 317 317 319 325 330 331 331 330 325 323 322 322 322 323 322 322 323 323 323 322 322 323 325 326 326 326 328
312 310 317 314 318 319 311 311 310 311 312 312 312 311 311 311 311 314 316 316 317 317 317 316 316 316 318 322 323 324 325 325 324 323 321 320 319 319 318 317 316 315 315 316 317 319 320 320 324
309 310 315 317 313 316 312 310 310 311 309 310 309 310 311 311 310 309 311 314 316 317 316 314 314 314 314 315 316 318 317 317 317 316 315 314 313 313 313 313 314 314 315 315 316 316 316 317 319
309 311 317 313 318 310 307 310 309 309 309 311 311 311 310 310 309 308 310 313 314 314 314 314 314 314 314 314 314 314 313 313 312 311 311 311 310 310 310 311 312 312 313 313 314 315 316 318 318

GFSSGP_925_thetae_102.txt.gz
Theta_e
321 321 327 332 330 325 326 324 321 321 323 323 321 339 340 344 343 346 347 348 346 346 346 345 345 345 343 341 339 339 336 336 340 345 344 344 343 342 341 338 336 335 334 333 332 333 335 338 338
322 322 328 326 328 326 322 320 319 320 319 320 337 342 344 349 345 349 349 348 345 346 347 345 345 343 342 341 338 337 337 336 337 342 341 342 341 340 338 336 334 333 333 333 332 335 336 335 335
326 324 329 327 326 327 320 319 320 319 320 320 333 343 344 347 349 348 349 348 346 346 346 346 342 343 342 339 337 336 336 336 336 336 338 338 339 337 336 335 334 334 334 334 335 336 334 334 333
325 324 328 330 329 326 320 318 319 321 321 320 335 350 345 343 344 347 348 347 347 346 346 345 343 342 342 338 338 334 335 336 337 335 335 336 336 335 334 334 334 333 334 336 337 334 334 332 331
323 325 330 331 329 324 321 321 321 322 321 321 338 349 348 343 345 349 348 347 346 346 346 345 340 341 340 338 338 334 335 337 337 335 335 335 334 334 333 331 332 335 334 335 336 334 332 331 330
320 326 334 333 328 326 320 322 323 322 321 320 345 345 345 343 348 348 347 346 345 346 345 340 342 342 341 338 337 337 335 337 336 334 334 334 334 334 333 335 336 334 335 335 333 333 333 330 330
320 326 328 331 329 325 323 321 324 322 321 325 337 345 343 342 346 346 345 345 344 344 342 341 343 342 341 339 337 338 338 339 336 331 331 333 333 333 333 333 334 334 334 333 332 332 332 329 330
318 321 328 329 329 326 322 322 323 323 323 324 337 345 348 342 345 344 345 344 343 342 341 344 343 342 339 338 337 337 339 341 339 332 325 322 330 332 333 330 329 332 329 328 329 329 325 328 330
317 323 323 327 328 326 323 324 319 321 325 335 338 339 342 342 344 344 346 345 344 344 344 344 343 339 339 339 338 337 336 336 341 337 330 325 320 323 325 326 326 326 328 326 325 324 323 325 330
318 320 322 321 323 325 327 325 323 333 337 341 346 343 344 344 344 345 345 345 344 344 344 343 341 340 341 340 338 337 335 333 337 339 336 333 329 324 320 322 324 325 325 325 325 325 324 323 328
316 317 318 323 321 324 327 327 327 333 336 339 346 346 343 344 344 345 344 344 344 345 344 343 341 341 341 340 338 336 332 328 328 330 335 335 334 332 330 325 322 321 320 319 321 321 325 327 327
315 317 317 322 323 326 327 326 328 326 325 328 343 343 344 342 345 345 345 344 344 345 344 344 342 343 340 339 337 336 332 334 335 330 329 337 335 335 333 332 331 329 327 325 321 323 327 326 326
316 316 316 318 322 323 324 327 328 327 325 323 335 342 342 342 342 343 345 344 344 344 344 344 343 343 340 339 337 336 335 336 333 329 327 329 336 336 334 332 331 331 330 330 331 331 331 330 328
314 316 316 316 321 322 324 327 327 326 324 324 331 338 340 341 340 341 342 344 343 344 344 343 343 343 341 339 338 338 337 337 335 330 332 332 329 333 336 335 333 332 332 331 333 334 334 332 331
312 317 316 317 320 322 321 328 328 326 325 324 322 325 337 338 339 341 341 344 343 344 343 343 343 343 342 339 338 337 338 338 336 332 330 331 331 331 332 335 335 334 334 334 333 334 332 332 331
316 316 318 319 320 322 322 324 326 325 326 325 322 320 324 337 337 339 341 342 343 343 343 343 343 343 342 339 338 336 338 338 335 330 328 330 331 330 329 332 334 335 335 335 335 334 331 329 328
315 319 318 319 320 321 320 324 323 325 326 324 323 320 320 329 333 336 340 342 342 342 342 343 343 343 342 340 338 337 338 338 333 333 330 326 329 330 331 330 332 336 334 334 332 331 330 330 329
315 316 315 319 320 322 319 320 321 325 325 325 323 321 320 324 330 335 338 339 340 341 341 342 344 344 343 342 339 338 337 337 334 335 335 332 327 328 330 331 332 332 331 331 330 329 329 329 329
311 314 316 315 318 322 321 320 325 325 324 323 323 322 322 320 323 330 336 339 339 340 341 342 343 342 343 341 339 338 338 337 336 335 336 336 335 331 330 329 330 330 330 330 330 329 330 330 329
312 313 315 315 315 320 321 321 320 324 322 321 322 321 321 320 318 321 329 336 338 340 339 340 341 341 342 342 340 339 338 338 337 336 337 335 336 335 335 334 333 332 332 329 329 329 330 330 330
312 313 314 316 317 316 318 321 321 319 320 320 320 319 319 317 318 318 326 333 337 339 340 341 339 340 341 341 340 340 340 338 338 337 337 338 336 336 335 334 334 334 334 333 330 330 330 330 330
313 313 313 314 317 322 318 321 318 318 318 316 319 320 318 316 314 317 322 331 336 339 340 339 339 339 340 340 341 339 339 339 338 338 338 337 337 337 335 335 334 334 335 334 331 332 332 331 331
314 315 314 315 317 317 321 319 317 315 318 316 315 315 315 312 311 316 320 330 336 338 339 339 339 339 339 340 340 338 339 338 337 337 337 336 335 334 333 333 332 334 333 332 332 331 330 329 330
312 316 318 318 318 317 319 319 315 318 317 316 314 313 313 312 311 313 321 327 332 335 337 338 339 339 339 339 337 337 337 335 335 334 333 332 329 329 328 327 327 329 331 330 329 328 327 327 326
312 317 320 321 321 315 318 322 318 313 315 316 315 313 313 312 311 313 316 322 327 331 334 336 337 338 338 337 336 336 335 332 330 330 329 329 331 329 330 328 326 326 327 328 324 322 321 322 324
313 314 318 321 316 318 318 320 315 310 310 314 314 312 312 311 310 313 315 319 325 328 330 335 336 336 336 336 335 334 332 330 329 328 327 326 325 327 327 325 325 325 325 324 324 325 321 321 320
313 315 314 314 312 313 317 312 308 309 310 309 311 310 310 310 310 314 315 319 323 324 327 332 334 335 334 334 332 330 328 327 326 325 326 324 322 322 322 322 322 323 323 323 325 325 326 327 327
311 311 312 311 317 315 313 310 310 312 312 310 310 310 308 308 308 312 314 316 319 321 320 323 329 332 332 329 327 325 325 325 325 325 322 321 321 321 321 321 321 321 321 319 319 318 318 319 319
311 313 314 315 309 311 310 309 308 307 310 310 309 310 310 310 309 311 313 315 316 317 317 316 319 324 328 328 328 328 326 324 324 323 322 322 321 320 318 317 316 315 314 314 315 315 316 316 316
308 310 315 307 314 305 302 310 307 306 309 309 310 309 309 308 307 308 311 313 314 315 315 314 314 315 316 319 319 318 318 319 318 318 316 314 314 313 312 312 312 313 313 312 313 314 314 315 316

GFSSGP_925_thetae_105.txt.gz
Theta_e
323 320 319 329 330 324 325 326 322 321 322 323 321 335 338 338 340 341 346 347 344 346 346 345 344 344 342 341 340 335 342 344 345 345 344 344 345 343 341 338 336 335 335 336 337 339 339 339 339
326 321 327 324 331 327 326 320 322 323 319 327 339 342 343 347 347 349 348 347 343 346 346 344 345 343 341 340 339 338 341 344 343 345 344 343 342 340 338 336 334 333 333 334 338 339 337 337 332
324 321 328 330 327 329 320 318 319 318 318 320 339 342 342 346 346 347 347 347 345 347 345 345 344 342 340 339 337 336 337 342 343 342 342 341 340 338 336 334 334 333 333 337 338 336 335 333 332
322 321 325 332 330 326 317 316 318 318 319 318 336 349 344 342 347 348 348 347 347 346 344 345 343 341 338 337 337 336 337 339 340 340 340 338 338 336 335 334 334 332 336 337 336 334 332 332 331
320 320 327 329 328 325 321 319 317 318 319 320 342 348 347 343 345 347 348 347 347 346 345 342 342 341 336 335 336 336 336 337 338 337 338 337 335 334 334 334 330 331 337 337 336 332 331 331 329
320 319 327 330 329 324 321 320 321 321 320 325 343 345 345 345 348 347 347 346 345 346 344 342 342 341 337 335 334 334 335 335 335 335 336 335 334 334 334 332 333 334 337 336 333 331 330 330 329
317 319 320 325 325 326 323 320 320 321 321 319 338 344 343 347 348 346 346 346 345 345 343 341 341 339 337 336 332 336 335 333 332 333 333 333 332 334 335 335 334 336 337 334 332 331 329 330 329
317 318 319 321 327 326 323 321 320 320 321 323 336 344 349 347 347 345 346 346 345 344 343 342 341 340 337 338 334 337 337 331 329 331 332 333 332 334 336 334 334 334 334 332 332 331 329 330 330
315 319 319 318 323 326 323 323 321 320 325 328 332 338 341 345 345 345 345 345 345 344 340 343 342 340 337 338 337 338 339 333 327 323 330 332 331 330 333 332 332 328 330 330 330 327 327 329 330
313 318 318 316 317 324 325 326 323 325 333 340 343 341 343 343 344 343 344 343 343 343 342 343 342 340 338 338 338 339 341 337 331 323 320 326 327 327 326 326 327 327 326 325 324 323 324 329 330
312 315 315 316 319 323 324 326 325 328 330 337 342 345 344 343 343 343 342 341 342 342 344 343 342 339 339 339 338 337 337 340 337 330 325 320 321 324 324 325 325 326 326 326 325 324 323 325 329
313 312 313 315 320 322 323 326 328 328 326 323 325 342 341 344 344 342 341 341 338 343 343 343 340 339 339 339 338 335 334 335 338 336 332 329 326 324 322 321 322 321 322 322 323 322 326 326 327
312 311 312 315 318 321 320 326 328 326 324 325 328 341 343 343 342 342 342 342 342 343 343 343 339 341 340 338 337 335 329 329 331 335 335 334 332 331 330 327 326 325 325 323 320 324 326 326 326
311 313 312 313 318 317 319 323 327 326 323 324 330 338 341 342 343 343 342 343 343 343 343 343 340 341 340 338 336 334 331 333 332 330 331 335 334 333 332 331 330 330 329 329 330 330 331 332 330
310 314 315 315 317 318 317 319 330 326 324 323 322 322 329 339 343 344 342 343 343 343 343 343 342 341 340 337 336 335 333 335 332 327 326 328 330 334 334 334 333 332 331 331 332 333 333 333 332
312 314 316 315 317 318 315 319 323 326 324 323 322 320 321 325 338 342 342 342 343 343 343 343 342 342 339 338 337 337 336 336 332 330 331 331 330 330 332 334 334 333 333 333 333 333 333 332 331
314 313 316 317 318 321 317 317 319 325 326 324 321 319 320 321 327 336 341 341 342 342 342 342 342 342 340 339 338 337 336 337 335 332 330 330 330 330 330 331 332 333 334 334 334 334 333 330 328
314 315 315 317 320 320 318 318 318 320 326 324 322 319 319 319 321 330 338 340 340 341 340 342 342 342 341 339 338 337 337 338 338 334 330 329 329 330 330 330 330 330 334 335 334 333 331 329 329
310 313 314 315 319 320 319 318 317 318 317 324 322 319 319 319 317 319 333 339 338 338 340 341 341 342 341 339 339 337 337 338 337 334 329 327 326 327 328 330 331 333 334 332 332 329 329 329 329
310 313 314 315 316 320 320 320 319 318 318 322 322 320 319 318 317 316 325 335 337 338 338 340 340 341 340 339 339 338 338 337 336 332 330 335 329 331 329 328 329 330 330 329 329 329 329 329 329
311 313 314 317 319 318 321 322 322 321 320 321 320 320 319 318 317 315 322 331 336 337 338 339 340 339 340 340 339 338 338 337 336 335 334 335 334 334 333 332 333 332 332 331 329 328 329 329 329
312 311 314 316 319 323 318 323 321 320 321 321 320 320 319 318 316 314 318 328 334 336 336 338 338 339 339 338 339 338 337 337 336 337 336 336 337 335 335 334 334 333 333 333 332 329 329 330 330
314 313 313 314 319 320 320 318 317 318 320 320 318 319 320 319 317 315 315 326 332 335 337 337 338 338 339 338 339 338 338 336 336 337 337 337 337 336 336 335 334 333 334 334 333 332 330 330 330
309 315 315 316 318 315 319 318 315 319 317 316 316 319 320 319 318 314 314 321 330 334 336 338 337 338 338 339 339 338 338 337 337 337 337 337 335 335 334 334 333 332 332 333 332 330 328 327 326
309 315 319 319 318 315 318 319 315 314 314 314 314 314 318 318 312 311 316 322 327 331 334 336 337 337 338 337 338 338 338 337 335 335 334 333 331 330 331 329 327 327 329 330 329 327 326 325 325
312 314 308 317 316 318 318 319 316 312 309 311 313 314 313 313 311 311 314 320 326 330 332 334 336 336 336 335 335 336 335 335 334 333 330 330 329 329 329 330 328 327 326 327 327 324 323 322 324
312 314 314 310 310 314 316 313 308 309 309 309 312 312 311 311 310 310 313 318 323 328 331 333 334 334 333 332 334 334 334 332 331 329 328 328 328 326 326 327 325 323 323 324 324 324 323 324 324
312 311 317 305 309 318 315 310 310 309 308 309 310 311 310 310 310 309 313 316 321 327 329 330 331 332 331 332 333 333 331 329 328 328 327 326 325 323 321 321 321 322 322 322 321 321 320 319 319
309 309 314 314 307 312 313 311 307 308 307 309 308 308 309 308 308 308 313 315 317 322 325 326 329 330 330 330 329 328 327 326 325 324 325 322 321 320 320 320 320 318 317 316 315 314 314 315 315
308 309 312 309 313 307 302 312 305 305 308 309 309 309 308 307 306 307 312 314 314 315 317 318 320 325 327 327 325 324 323 323 322 321 320 319 318 317 316 314 313 313 312 312 312 312 312 313 313

GFSSGP_925_thetae_108.txt.gz
Theta_e
324 323 320 324 329 329 329 326 322 319 320 321 321 330 336 337 339 337 344 345 344 344 346 346 345 343 340 341 336 343 343 340 341 342 344 345 345 343 341 338 337 336 338 337 338 340 340 339 337
325 323 325 326 331 330 327 321 324 321 319 320 326 340 343 338 346 347 346 346 344 345 345 345 344 342 341 339 335 344 345 344 343 343 344 344 342 341 338 336 335 335 337 337 339 338 337 337 336
320 321 323 328 331 329 324 319 320 320 319 325 329 336 343 343 345 345 346 346 345 346 345 345 343 341 339 336 334 344 344 344 344 344 343 341 340 338 336 335 334 335 335 337 337 337 333 330 329
320 318 320 327 332 324 322 314 316 317 317 316 331 334 336 342 345 346 346 346 347 346 344 344 342 339 338 333 334 343 343 344 343 342 341 339 338 336 335 334 332 334 336 336 335 332 331 329 326
319 318 319 322 326 325 322 317 315 316 317 317 335 331 333 344 345 347 347 347 346 346 344 344 341 338 334 336 335 340 342 342 342 340 339 338 337 335 334 334 331 336 336 336 332 331 330 328 323
320 320 322 318 319 325 322 318 319 317 316 328 340 335 336 343 347 348 347 347 346 345 345 342 340 337 337 336 335 335 340 340 340 339 338 337 336 334 333 334 335 336 336 335 331 330 330 328 327
315 320 319 317 317 318 321 320 319 320 317 320 336 343 345 348 346 347 345 345 346 345 343 342 340 335 335 336 335 334 335 337 338 337 335 334 333 333 334 333 336 336 336 335 330 330 330 328 329
313 316 319 316 317 319 321 320 321 322 320 327 335 341 349 348 346 346 345 346 345 344 342 342 340 337 333 334 334 333 332 333 335 333 332 331 333 334 334 333 335 337 336 334 330 329 329 329 329
312 316 316 318 317 316 321 324 322 321 320 325 335 337 340 348 346 345 344 345 344 343 342 341 339 338 334 333 336 333 329 332 332 331 330 331 335 336 335 334 336 336 334 332 331 328 329 329 329
312 313 314 313 314 314 317 323 324 326 323 329 340 341 346 346 346 345 343 344 343 343 341 341 339 338 336 334 338 335 331 330 331 332 330 330 334 335 332 332 332 332 331 331 330 326 328 329 330
310 312 311 312 314 316 317 322 323 326 328 326 338 344 346 345 346 344 343 343 342 342 342 341 340 337 338 337 339 338 332 328 327 329 329 327 328 331 330 330 328 328 328 326 324 324 325 328 328
311 310 310 312 314 314 319 321 323 323 325 325 322 340 344 343 342 343 343 343 342 341 342 342 341 338 337 339 339 340 336 329 324 324 327 327 327 326 326 326 327 326 325 325 324 324 323 325 327
311 309 310 311 312 313 317 321 321 321 319 322 325 334 340 341 341 341 341 341 341 339 339 342 341 339 338 337 337 338 339 335 329 324 322 321 323 324 324 324 324 324 323 322 323 321 325 326 326
309 310 311 311 312 313 317 318 318 320 321 323 331 337 339 341 340 340 339 338 340 340 339 342 341 338 338 338 337 336 335 337 335 330 328 325 322 321 320 320 320 321 321 322 321 322 326 329 328
309 310 311 312 311 313 317 318 317 316 318 324 327 329 335 341 340 339 339 338 334 337 333 342 341 338 338 338 337 335 334 335 336 336 334 332 331 330 329 329 328 329 328 329 330 331 332 333 332
309 310 313 313 311 311 316 318 315 316 316 322 321 322 326 331 338 340 340 338 336 339 342 342 341 340 339 338 337 335 329 328 330 331 332 334 334 333 332 332 332 331 331 331 331 332 333 333 331
309 313 313 314 311 313 316 318 315 314 315 323 321 320 323 324 331 338 340 339 339 340 342 342 341 340 340 339 337 335 330 333 333 331 326 327 329 331 332 333 332 333 332 332 333 333 333 333 331
308 312 313 315 313 313 317 317 317 314 313 317 322 320 322 322 323 330 336 339 340 342 342 342 341 340 340 339 337 335 334 333 334 330 328 330 330 330 330 330 331 333 333 333 333 333 333 332 329
309 309 311 314 317 316 319 317 316 317 312 316 321 320 321 322 320 323 335 337 337 339 341 342 341 341 339 338 337 336 336 335 335 334 331 330 330 330 330 330 330 331 331 332 334 334 333 330 328
309 310 314 314 315 318 319 318 318 315 314 315 320 319 319 320 320 319 331 336 336 337 339 340 341 341 340 338 338 337 336 336 336 337 336 331 329 329 329 329 329 330 330 332 333 332 329 328 328
310 312 314 317 319 319 320 322 321 318 318 318 318 319 318 319 319 318 325 333 336 337 337 338 338 339 339 338 337 337 336 335 336 336 335 330 327 327 328 328 329 330 331 332 330 329 328 328 329
310 311 316 318 318 323 316 323 322 320 320 319 320 319 318 317 317 315 317 327 334 336 336 334 333 337 338 338 337 332 332 336 335 334 333 331 330 330 332 329 329 330 330 329 328 327 327 328 329
314 313 314 316 316 321 319 317 320 320 321 319 317 318 319 317 317 316 315 319 329 333 335 336 336 337 337 336 332 326 331 336 335 335 335 333 333 334 333 332 332 332 332 332 332 331 331 330 330
309 314 315 315 315 316 319 316 317 321 319 318 316 318 317 317 317 316 312 313 323 331 332 329 333 334 337 336 336 334 334 334 334 333 334 335 336 336 334 334 334 328 330 333 333 331 331 329 329
307 309 314 312 312 318 316 317 314 317 316 317 316 317 318 318 318 315 310 317 324 329 331 333 334 334 335 335 334 335 334 334 334 334 334 335 334 334 333 333 333 331 329 329 330 331 329 327 327
311 308 309 317 318 319 318 319 314 310 312 314 315 314 317 317 318 312 310 314 321 326 331 333 334 334 333 333 333 334 333 334 335 335 333 333 334 332 330 329 328 327 327 327 328 327 324 323 322
313 314 312 311 309 310 314 312 309 308 307 308 310 313 313 315 311 311 310 314 320 325 330 332 333 333 333 333 334 334 335 335 334 333 330 330 329 329 329 329 328 326 325 324 325 324 324 323 324
312 312 311 308 313 319 315 310 310 309 308 307 310 312 311 310 310 310 310 313 318 324 328 329 331 332 331 332 332 333 333 332 331 329 328 328 327 325 324 324 323 322 322 322 322 322 320 318 316
312 313 313 311 309 314 314 312 307 307 306 308 308 308 308 309 308 308 309 314 317 321 325 327 330 330 330 330 331 331 330 329 328 327 326 325 324 321 320 321 320 320 320 319 317 315 313 313 314
308 309 312 308 313 305 305 312 305 304 307 308 308 309 307 307 308 308 307 312 314 317 322 325 327 328 327 328 328 327 327 325 325 324 323 322 320 319 318 318 317 315 313 312 311 311 310 310 311

GFSSGP_925_thetae_111.txt.gz
Theta_e
324 323 319 324 330 331 330 328 323 321 321 323 328 335 339 338 339 342 343 345 345 346 348 347 345 344 342 341 340 337 338 342 343 343 344 344 344 342 341 339 339 337 338 341 341 340 337 338 339
324 323 321 326 333 330 327 325 324 324 320 321 327 337 338 336 344 346 345 344 346 347 348 348 343 340 338 331 339 339 339 341 342 343 343 343 343 341 339 337 337 336 337 339 340 339 337 335 335
320 321 324 326 330 332 328 324 324 321 319 321 325 337 341 343 345 345 345 346 347 347 347 347 342 339 333 334 343 341 339 340 342 342 343 343 341 339 337 335 337 336 336 337 336 337 334 329 327
321 321 320 325 327 327 328 321 318 320 320 317 323 329 340 343 345 345 345 347 347 347 347 344 342 339 330 342 344 344 341 342 343 343 342 341 339 337 336 334 334 336 335 337 336 330 327 322 319
318 320 320 320 320 325 324 323 319 318 319 318 327 329 335 343 345 345 345 346 346 347 346 344 341 338 330 343 344 344 344 343 343 342 340 339 337 336 335 333 335 336 336 333 335 330 325 317 316
320 320 321 321 318 317 321 322 321 322 320 317 332 333 333 344 346 346 346 345 344 346 345 344 340 338 330 341 343 344 344 343 341 341 339 337 336 335 334 333 336 336 333 333 334 329 327 319 317
315 319 319 318 317 315 319 320 322 323 322 322 327 338 339 345 346 347 346 345 343 345 345 343 341 337 333 332 342 342 342 341 340 339 338 336 333 333 334 336 336 336 334 332 332 329 328 325 322
313 315 315 318 318 318 314 316 321 321 323 321 333 332 339 343 347 346 345 344 343 344 344 342 340 340 339 334 337 341 341 340 339 338 336 333 332 334 335 336 335 335 333 330 330 329 329 329 328
312 314 314 314 317 317 315 315 319 321 322 322 323 334 337 344 346 344 344 344 342 343 342 340 339 339 338 337 334 336 339 338 337 336 333 332 334 335 334 337 336 335 333 329 329 329 329 329 329
312 313 311 310 312 314 314 315 319 320 323 325 325 332 339 345 345 344 343 343 341 342 342 340 338 337 336 335 333 334 335 336 335 333 332 333 334 334 335 335 336 335 333 330 328 329 329 329 329
311 311 309 310 310 313 315 317 316 322 324 325 325 324 336 346 343 343 342 341 341 342 341 340 338 336 336 335 333 332 333 333 332 330 331 335 336 335 334 335 335 334 332 331 327 328 328 329 329
310 310 310 309 309 312 314 316 318 320 321 320 320 320 320 342 345 343 342 342 341 341 341 341 339 336 337 337 335 332 330 331 331 330 330 335 335 333 333 332 333 331 330 328 324 324 327 328 328
309 309 309 309 311 311 312 313 315 320 321 317 317 320 322 324 341 341 336 339 340 340 341 340 339 338 336 338 336 334 331 329 330 331 329 331 333 332 330 328 327 327 325 324 324 323 323 325 327
308 309 309 309 310 311 312 313 314 319 319 319 319 319 322 325 336 340 338 333 328 339 341 341 339 338 337 337 339 336 332 327 326 329 329 327 326 326 325 326 325 324 324 323 323 321 324 325 326
307 309 308 308 310 311 312 314 313 316 316 319 318 317 318 326 334 339 338 336 334 339 341 341 339 337 336 337 338 339 338 331 325 322 323 324 324 324 323 323 322 320 319 320 321 321 326 330 331
306 306 309 308 309 311 313 314 315 317 317 319 318 314 319 325 332 338 340 340 339 339 341 341 340 338 337 336 335 336 336 336 333 328 325 323 321 320 320 320 322 325 327 328 329 330 332 332 331
305 306 308 308 311 311 313 312 316 315 318 318 314 310 320 326 333 335 338 338 337 339 340 340 339 339 338 337 337 335 334 334 335 335 333 331 330 329 329 328 329 330 330 330 330 331 332 332 332
302 307 309 308 312 311 312 312 316 317 319 316 311 310 318 323 332 334 336 337 335 337 340 341 339 339 338 337 337 336 334 331 330 331 332 332 333 333 333 332 332 332 332 332 332 332 333 333 331
305 308 308 307 308 312 313 311 315 316 314 311 311 313 316 321 319 325 336 337 336 339 340 341 341 339 338 337 336 334 332 329 331 331 331 329 329 331 332 332 333 333 333 333 332 332 332 332 330
305 310 310 309 310 313 313 314 316 314 312 311 313 315 316 318 319 324 335 336 337 338 340 341 340 340 339 337 337 335 333 331 332 333 330 327 328 330 330 329 330 331 332 332 332 333 332 329 328
307 310 310 314 315 315 316 319 320 316 314 314 315 316 316 318 320 321 333 336 336 336 338 341 341 340 339 338 336 336 334 334 333 334 333 332 330 329 330 329 329 331 331 330 330 332 330 328 328
311 311 313 316 318 321 317 323 321 318 316 317 317 317 318 319 318 317 326 334 334 330 334 337 338 336 338 336 336 336 335 335 334 334 335 335 334 329 329 328 328 328 328 330 330 330 328 328 328
313 308 314 317 320 318 320 320 321 319 318 318 319 318 318 318 318 317 320 326 332 334 334 336 335 333 333 336 336 335 334 334 335 334 335 333 332 329 327 327 328 328 330 330 330 329 328 329 329
309 313 314 316 316 320 319 317 319 321 319 318 317 318 319 318 318 316 313 315 325 332 335 334 328 329 329 331 335 334 329 330 333 334 334 332 331 330 331 331 329 331 331 326 325 331 330 329 329
310 308 311 316 316 320 317 318 315 316 317 318 317 318 318 317 318 314 315 318 325 330 333 333 333 333 331 328 327 329 330 330 331 333 332 328 330 332 332 333 332 332 329 328 331 331 331 330 328
311 308 313 315 317 320 316 319 312 307 307 314 315 317 317 318 316 313 312 316 323 328 331 330 332 331 330 329 333 333 331 329 329 330 329 332 332 331 332 332 330 330 328 328 328 328 327 326 324
313 312 313 311 309 316 314 310 308 308 308 307 310 317 317 316 312 312 311 314 319 326 330 331 331 331 331 332 330 328 327 329 329 332 332 331 331 331 331 329 328 327 326 325 326 325 324 323 323
311 312 313 311 314 320 313 311 312 309 309 308 310 313 316 313 312 312 310 313 318 322 328 329 330 331 331 331 331 330 331 330 331 330 329 330 329 329 329 327 326 325 323 322 322 322 321 320 317
311 314 312 310 309 317 316 316 308 307 307 309 309 308 312 311 309 311 308 312 316 321 325 327 329 329 329 329 330 330 330 330 328 328 328 327 326 325 324 323 321 320 320 319 318 316 314 313 313
308 310 311 310 314 306 312 315 305 305 308 309 309 309 308 309 310 310 309 310 313 317 321 324 325 327 327 328 328 328 328 327 327 326 325 323 322 320 319 319 318 317 315 313 311 311 310 310 310

GFSSGP_925_thetae_114.txt.gz
Theta_e
324 323 322 327 332 329 329 328 326 326 325 327 329 332 336 338 342 347 345 345 346 345 347 347 344 345 341 337 332 342 343 343 343 344 344 344 343 341 338 340 337 338 340 340 340 340 341 340 341
323 322 322 326 330 327 327 326 327 326 324 324 325 329 335 337 340 346 345 346 346 346 347 347 344 344 343 339 333 337 342 343 343 344 344 344 343 340 338 338 336 341 341 340 339 339 338 340 340
322 322 320 321 325 327 324 324 325 324 324 324 324 327 331 334 344 345 346 346 347 346 347 347 344 344 343 339 333 337 341 342 343 344 343 343 341 340 338 337 337 337 339 338 338 335 335 336 336
321 322 320 324 319 319 320 322 324 324 323 323 323 326 330 339 345 346 346 346 347 346 346 346 344 343 339 336 336 338 341 342 343 343 344 342 340 338 336 336 337 336 337 336 336 334 330 326 327
320 321 321 319 316 315 316 320 323 323 323 323 323 324 327 343 345 346 346 347 347 346 347 346 343 339 339 341 340 339 341 342 343 343 342 341 338 336 336 336 336 336 336 334 334 327 320 316 316
319 317 319 320 316 315 314 317 323 323 323 322 322 322 325 341 346 343 346 347 346 346 346 346 342 337 341 343 341 340 341 342 343 342 341 339 336 335 335 335 335 336 336 335 333 325 319 317 317
316 317 317 315 315 315 315 315 321 322 324 324 322 322 324 343 344 343 339 344 346 346 346 346 343 338 343 344 344 341 342 342 342 341 340 337 335 333 334 337 336 333 335 334 330 323 320 319 320
315 315 315 314 315 315 314 315 316 320 325 324 323 325 325 336 345 341 336 343 346 345 345 344 341 337 342 343 344 344 343 342 341 340 338 335 334 331 335 337 336 332 334 332 330 327 325 323 323
311 314 313 312 311 313 314 315 315 316 320 323 324 327 326 326 344 345 343 344 344 344 344 343 340 337 336 344 343 343 342 341 339 339 336 333 332 335 338 339 335 331 331 331 329 329 328 328 327
312 312 311 310 310 311 312 315 316 317 316 319 323 323 324 327 339 345 345 341 343 343 343 342 339 337 335 339 342 342 341 340 339 337 335 330 331 334 338 337 335 332 330 329 329 328 329 331 331
311 312 309 309 309 310 310 313 314 316 318 319 320 323 326 325 337 344 345 342 342 342 342 341 339 338 335 333 341 341 339 339 337 337 331 330 332 334 337 336 335 335 331 331 330 329 330 330 330
309 308 309 309 309 309 310 311 313 315 317 317 319 322 325 324 325 327 342 342 341 341 342 340 338 337 333 332 332 336 339 338 334 332 331 333 335 333 335 335 337 334 333 332 330 330 330 330 330
308 307 307 307 309 310 310 310 312 313 315 316 318 319 323 323 323 325 325 340 333 332 341 339 338 335 333 332 330 330 331 332 331 330 333 335 336 334 336 336 336 334 333 331 328 327 328 329 329
306 307 308 308 309 309 311 311 310 312 314 318 319 319 319 321 320 321 324 338 336 336 340 340 338 334 336 334 332 329 329 329 330 329 332 336 334 333 333 333 333 332 331 328 327 326 326 327 328
307 307 307 307 308 310 310 312 312 309 312 316 319 320 319 320 318 322 325 335 335 339 340 341 340 336 337 337 336 332 329 329 329 329 330 333 333 332 331 331 330 329 328 327 326 325 327 329 331
306 306 308 305 308 309 311 314 310 310 311 313 317 320 318 319 318 322 327 324 332 334 340 341 340 338 336 337 336 335 331 328 329 329 330 330 330 330 329 329 328 327 326 326 326 326 329 333 333
305 307 305 305 306 309 311 313 312 313 313 313 317 319 317 318 317 320 327 323 329 327 335 340 340 339 338 337 337 335 336 332 328 327 328 329 328 328 328 326 326 327 329 331 331 332 333 334 333
305 306 306 307 308 311 312 312 313 316 318 319 319 318 316 316 317 317 326 325 331 328 332 340 340 339 339 338 338 337 338 337 336 331 328 327 327 327 327 328 330 331 332 332 332 332 333 333 332
305 306 307 306 306 308 313 313 313 317 318 319 319 317 316 316 316 317 320 324 329 333 337 338 340 339 338 337 336 335 336 335 336 336 335 334 332 332 332 333 333 334 334 334 334 334 334 333 331
306 306 307 306 308 310 312 314 312 315 317 318 318 316 316 316 316 317 320 330 325 336 337 339 339 339 338 337 336 336 336 335 334 334 333 333 334 335 335 335 334 334 334 334 333 333 332 333 331
307 308 308 310 312 311 314 314 314 316 315 315 315 316 315 316 317 318 320 333 330 333 336 338 339 339 338 337 336 336 335 333 334 334 333 331 331 330 332 333 333 333 333 333 333 333 334 333 330
310 309 313 314 313 319 314 319 317 315 316 317 318 318 318 317 318 318 321 332 333 333 337 338 339 338 338 338 337 336 335 334 332 334 334 330 328 328 330 330 329 330 331 331 330 331 332 330 329
313 309 311 315 316 319 317 322 319 318 319 318 318 319 319 318 317 318 321 332 334 333 332 336 337 338 338 337 336 336 336 336 335 335 334 332 331 331 329 328 330 329 329 330 330 331 330 329 330
309 313 315 314 317 324 320 321 323 323 319 320 318 318 318 319 318 319 325 333 332 331 330 329 334 335 335 335 336 334 334 335 334 334 334 333 332 329 328 328 327 327 329 330 328 326 329 329 329
310 315 319 321 323 324 321 317 315 313 317 318 318 318 319 318 319 318 321 330 333 331 329 330 328 330 330 329 331 332 330 329 331 333 333 333 332 330 330 329 329 328 329 329 327 329 328 329 329
311 314 319 320 323 323 318 320 314 311 310 311 318 316 317 318 317 315 322 326 331 333 333 331 331 329 329 327 329 329 329 330 330 329 329 330 329 328 329 330 331 330 330 328 329 329 329 327 327
313 316 314 317 313 319 319 315 314 312 312 312 318 316 317 318 314 314 319 324 330 331 331 331 330 330 329 329 328 328 326 329 328 328 328 329 328 328 330 329 331 330 330 329 329 328 326 327 325
313 312 319 318 320 323 318 319 317 314 313 312 317 315 317 317 313 314 318 320 324 330 330 329 331 331 331 328 328 326 324 328 326 324 328 327 328 328 330 330 330 328 327 326 325 324 323 322 321
314 315 315 314 313 320 320 320 310 312 312 313 314 317 316 315 314 314 313 318 322 326 328 328 328 329 330 329 328 326 326 324 323 324 327 330 329 327 328 328 326 325 324 323 322 322 320 317 316
311 314 314 320 317 314 317 317 309 311 313 313 312 314 315 313 313 314 313 315 320 324 325 324 324 325 326 327 328 327 326 326 326 326 326 327 326 328 327 325 323 321 320 320 318 317 313 313 313

GFSSGP_925_thetae_117.txt.gz
Theta_e
323 322 320 326 331 327 326 326 325 327 327 327 329 333 335 336 339 353 345 346 345 347 347 346 344 341 340 347 344 343 343 344 344 344 346 345 344 344 343 343 343 340 340 339 343 342 343 341 339
323 321 320 321 325 326 325 322 325 325 326 326 326 329 331 336 338 347 345 346 346 347 347 345 343 339 336 342 347 345 344 343 343 344 344 343 340 338 342 340 341 339 338 342 341 340 339 338 338
322 321 321 319 324 327 323 322 323 324 326 326 325 326 329 333 335 343 347 346 346 348 347 347 344 341 337 334 343 346 345 343 344 344 343 342 341 339 338 338 340 340 338 337 339 338 338 338 337
319 320 320 320 318 319 321 319 320 324 326 325 324 325 325 327 332 341 345 346 346 348 347 347 344 345 340 335 336 343 345 343 345 344 343 341 341 338 337 337 340 339 338 334 336 336 336 333 334
318 320 321 318 316 316 317 317 318 321 325 325 324 324 325 328 344 345 345 346 345 347 347 347 343 345 343 337 335 341 343 343 344 344 342 341 340 337 336 338 336 337 337 335 334 330 324 325 321
318 317 319 318 317 316 315 314 315 318 321 323 323 324 324 325 342 346 346 346 346 347 348 347 344 344 343 340 333 339 342 343 343 343 342 341 338 337 336 337 335 335 332 329 326 323 317 315 316
316 317 317 315 314 314 315 315 315 315 319 322 322 323 323 324 338 346 344 342 347 346 346 346 345 344 340 339 337 340 342 343 342 342 341 339 336 337 336 336 335 335 333 327 322 319 317 318 319
315 315 315 314 314 315 314 314 314 315 316 319 321 323 324 323 332 343 345 345 342 346 344 345 344 342 342 344 340 342 342 342 342 341 339 337 335 336 336 335 335 335 333 326 321 319 320 320 321
312 315 316 314 313 312 312 313 314 314 315 316 319 321 323 326 328 337 342 345 345 345 344 344 343 340 340 345 343 341 342 342 341 340 339 336 335 336 337 338 334 335 330 328 325 323 323 324 323
312 313 312 311 311 311 311 311 311 314 315 315 316 318 323 324 327 333 340 342 345 344 343 343 341 337 339 343 343 342 341 342 340 339 337 332 332 337 339 337 333 334 332 332 329 327 327 329 328
312 313 312 311 311 310 310 310 311 313 315 316 315 316 320 323 327 330 339 341 337 333 343 343 341 336 338 341 343 342 342 340 338 337 335 328 331 337 338 334 332 333 332 333 330 328 332 332 331
311 310 310 310 310 310 310 310 310 311 312 313 315 317 317 322 325 327 328 336 338 334 336 338 340 336 336 339 341 341 340 339 338 337 331 329 332 337 337 334 333 333 332 332 331 331 331 331 330
308 308 308 308 307 308 308 309 310 310 310 311 313 316 318 320 322 325 322 323 323 336 334 334 338 336 333 337 340 341 340 338 338 337 328 330 333 335 335 334 333 333 333 331 331 330 330 330 329
307 307 307 307 308 308 309 309 309 310 310 310 312 314 316 320 320 322 321 323 325 330 336 333 337 336 333 332 338 339 339 337 334 332 331 333 334 334 335 334 336 334 333 331 329 328 329 329 329
305 306 306 306 306 306 307 309 309 309 309 309 311 314 316 319 319 321 321 322 326 324 338 338 338 335 332 331 330 333 337 336 331 330 333 333 334 334 335 335 335 334 332 329 328 327 327 328 329
306 306 308 306 305 305 307 311 310 310 310 310 310 314 316 318 318 320 321 321 327 326 336 335 334 334 333 331 330 329 330 330 330 330 333 334 333 333 333 333 333 331 329 328 326 326 327 331 333
305 307 304 304 304 305 307 312 311 310 311 311 311 311 314 317 318 317 319 321 328 325 332 337 336 335 336 335 332 329 328 329 329 329 331 333 332 332 331 330 329 328 327 326 326 327 330 333 333
305 306 305 304 304 307 310 311 311 311 312 311 311 312 314 317 317 318 318 325 328 328 325 334 337 336 337 336 334 332 328 328 329 330 330 331 330 330 329 328 327 327 329 331 332 332 333 333 333
305 306 306 305 305 305 306 308 313 312 314 314 314 316 316 319 317 317 319 325 328 327 327 334 338 337 337 336 336 336 333 329 327 327 328 329 328 328 327 327 329 330 332 332 333 333 334 334 333
304 304 305 305 305 306 308 309 310 312 315 317 317 317 319 318 317 317 319 324 325 328 327 329 336 337 337 336 337 337 338 336 333 331 328 327 327 328 329 331 332 333 334 333 334 334 335 335 334
305 306 307 307 308 310 312 313 310 312 314 315 316 317 318 318 318 318 319 323 326 324 327 327 332 337 337 337 337 337 336 336 336 336 335 333 333 333 333 333 333 334 334 334 335 334 334 334 333
310 307 310 310 311 314 311 318 315 313 314 316 316 317 318 318 318 318 319 322 327 325 325 330 330 336 338 337 336 335 336 335 335 335 334 334 334 335 335 334 334 334 334 334 334 334 334 335 332
310 309 312 314 314 315 316 317 318 315 317 316 317 319 319 319 318 318 320 322 330 328 325 331 332 335 338 337 337 337 336 335 333 334 334 333 332 332 333 333 331 331 332 333 333 332 333 332 330
310 312 313 312 315 319 318 317 320 318 319 318 319 319 319 320 320 319 320 322 332 328 330 331 332 333 337 336 335 336 336 336 334 335 334 333 331 330 330 330 331 331 330 330 329 328 328 329 330
311 315 322 322 320 322 320 319 319 314 313 319 318 317 319 319 319 320 321 329 332 331 330 328 329 334 332 334 335 335 334 336 337 336 335 332 331 330 330 329 328 328 328 329 327 327 327 327 330
311 316 320 322 325 322 317 321 319 314 314 316 315 316 318 317 315 316 323 331 333 330 329 327 327 326 330 327 329 330 330 331 331 332 333 332 332 331 329 328 329 328 329 328 325 325 328 328 329
314 319 315 318 318 320 321 319 316 315 318 315 315 317 318 316 314 316 321 330 331 329 328 328 328 327 327 327 326 328 329 329 329 329 329 329 329 329 329 329 330 330 328 329 328 329 329 328 328
315 314 320 321 324 324 322 318 316 317 317 315 315 318 317 315 315 314 323 331 331 330 330 330 330 329 327 328 327 327 327 327 326 327 328 327 327 327 328 328 328 329 327 324 328 327 327 326 326
316 316 315 315 314 324 322 319 315 316 314 317 316 317 316 314 314 314 321 330 330 330 331 331 330 330 329 328 327 327 327 326 326 326 327 326 326 327 326 326 326 327 327 328 327 326 324 324 322
313 315 314 323 319 319 317 318 314 315 314 315 315 316 314 313 313 315 319 327 327 327 327 328 329 330 329 329 328 327 325 325 326 326 325 324 323 323 322 325 327 328 327 325 323 321 321 318 317